[[[{"header":{"parameterUnit":"kt","parameterCategory":2,"dx":1,"dy":1,"la1":29.587661999999998,"la2":31.0,"lo1":-88.76705300000003,"lo2":-86.6583820000003,"nx":115,"ny":88,"refTime":"2022-09-27T12:00:00:Z","depth":0,"parameterNumber":1,"parameterNumberName":"U-component_of_WINDS"},"data":[24.6087,24.4733,24.4358,24.3569,24.2517,24.2385,24.3043,24.4358,24.5805,24.6989,24.8153,24.9356,24.9994,24.9054,25.0388,25.1066,25.0934,25.1066,25.1066,25.1066,25.1066,25.1066,25.1066,25.1066,25.1066,25.1066,25.1066,25.1066,25.1066,25.1066,25.1066,25.1066,25.1066,25.1066,25.1066,25.1066,25.1145,25.1617,25.1931,25.3269,25.5241,25.7241,25.9816,26.065,26.0702,26.0702,26.0156,25.8927,25.8518,25.8108,25.7665,25.6675,25.5822,25.5259,25.5221,25.4829,25.5349,25.5701,25.6444,25.649,25.5665,25.5578,25.4941,25.3845,25.2411,25.1714,25.2119,25.1905,25.1912,25.1893,25.1437,25.1437,25.1263,25.1263,25.1085,25.1066,25.1066,25.1329,25.146,25.1855,25.2381,25.2927,25.3584,25.4485,25.5669,25.6569,25.7115,25.7904,25.8694,25.922,25.9483,25.9614,25.9857,25.9857,25.9857,25.9857,25.9857,25.9857,26.012,26.0514,26.0929,26.1192,26.1324,26.1587,26.2355,26.3276,26.3933,26.4217,26.5269,26.6453,26.7526,26.8184,26.8447,26.8315,26.8315,24.5936,24.4602,24.3287,24.2498,24.2385,24.2385,24.2517,24.3024,24.4358,24.5279,24.5673,24.6857,24.8172,24.8679,24.9317,25.0125,25.0671,25.0783,25.1066,25.1066,25.1066,25.1066,25.1066,25.1066,25.1066,25.1066,25.1066,25.1066,25.1066,25.1066,25.1066,25.1066,25.1066,25.1066,25.1066,25.1066,25.1066,25.1597,25.3057,25.4678,25.6133,25.7604,25.9305,26.0389,26.0702,26.0702,25.9746,25.8927,25.8518,25.8245,25.8126,25.6334,25.4969,25.427,25.4305,25.4953,25.5428,25.6651,25.7986,25.7593,25.7136,25.6273,25.586,25.4538,25.2628,25.2286,25.3044,25.3174,25.3223,25.3018,25.2305,25.1864,25.1637,25.1485,25.1302,25.1066,25.1066,25.1197,25.1197,25.1197,25.1723,25.2138,25.2664,25.319,25.4222,25.5254,25.6043,25.6721,25.7378,25.8036,25.841,25.8673,25.9068,25.9462,25.9725,25.9725,25.9857,25.9857,25.9857,25.9857,25.9988,26.0403,26.0535,26.0535,26.0666,26.1455,26.2113,26.3034,26.4349,26.5664,26.6453,26.6848,26.7242,26.79,26.8163,24.449,24.4621,24.3964,24.3175,24.2517,24.2385,24.2385,24.2648,24.4095,24.4227,24.3701,24.5016,24.6462,24.7646,24.7778,24.883,25.0783,25.0369,25.052,25.0934,25.1066,25.1066,25.1066,25.1066,25.1066,25.1066,25.1066,25.1066,25.1066,25.1066,25.1066,25.1066,25.1066,25.1066,25.1066,25.1066,25.1066,25.1224,25.325,25.5204,25.7423,25.8719,26.0162,26.0354,26.0702,26.0702,25.9883,25.8945,25.8108,25.7563,25.688,25.4833,25.3758,25.2939,25.3212,25.3894,25.4679,25.5498,25.6521,25.725,25.7583,25.6549,25.6,25.5587,25.3637,25.2656,25.3374,25.3308,25.3192,25.2796,25.2113,25.2494,25.2417,25.1812,25.1457,25.119,25.1085,25.1066,25.1066,25.1066,25.1329,25.1592,25.1855,25.2401,25.2927,25.3827,25.4222,25.49,25.6195,25.7095,25.7227,25.7358,25.7884,25.843,25.8694,25.9068,25.9462,25.9725,25.9857,25.9857,25.9857,25.9857,25.9857,26.012,26.0272,26.0403,26.0929,26.1871,26.3186,26.4349,26.4875,26.5511,26.6453,26.7111,26.6585,24.3043,24.4095,24.4227,24.3569,24.2385,24.2385,24.2385,24.2517,24.3701,24.3438,24.2761,24.3681,24.5016,24.6219,24.6331,24.7909,24.9731,24.9711,24.9994,25.0802,25.1066,25.1066,25.1066,25.1066,25.1066,25.1066,25.1066,25.1066,25.1066,25.1066,25.1066,25.1066,25.1066,25.1066,25.1066,25.1066,25.1519,25.2165,25.4111,25.6447,25.811,25.9517,26.0702,26.0702,26.0702,26.0702,26.0173,25.9218,25.7989,25.6863,25.5242,25.3758,25.2682,25.2136,25.2,25.2409,25.3604,25.4406,25.5447,25.6624,25.6606,25.6007,25.5797,25.5524,25.4919,25.3993,25.3289,25.3016,25.2668,25.2183,25.1965,25.2677,25.3099,25.2304,25.1589,25.1398,25.1105,25.1085,25.1066,25.1066,25.1066,25.1197,25.1197,25.146,25.1855,25.2269,25.2664,25.3321,25.4748,25.5406,25.5517,25.5648,25.6326,25.7115,25.7378,25.7773,25.8542,25.8936,25.9462,25.9725,25.9857,25.9857,25.9857,25.9857,25.9857,26.0009,26.0403,26.1061,26.1607,26.2528,26.3297,26.4217,26.5006,26.5269,26.4722,24.2498,24.2648,24.2648,24.2517,24.2385,24.2385,24.2385,24.2385,24.2648,24.2498,24.2517,24.2668,24.3569,24.5016,24.5016,24.6462,24.8284,24.8922,24.9336,25.1066,25.1066,25.1066,25.1066,25.1066,25.1066,25.1066,25.1066,25.1066,25.1066,25.1066,25.1066,25.1066,25.1066,25.1066,25.1164,25.1283,25.2224,25.3348,25.5614,25.7659,25.8701,25.9658,26.0702,26.0702,26.0702,26.0565,26.031,25.9764,25.8945,25.8381,25.7017,25.4969,25.415,25.3485,25.2939,25.3058,25.3348,25.4014,25.4833,25.5805,25.5362,25.5055,25.5243,25.4472,25.3652,25.2668,25.3504,25.3531,25.3608,25.3246,25.2478,25.2857,25.2727,25.1941,25.1639,25.1641,25.1426,25.1066,25.1066,25.1066,25.1066,25.1066,25.1066,25.1197,25.1592,25.1329,25.1723,25.2118,25.3038,25.3564,25.3564,25.3564,25.4616,25.5669,25.6043,25.6589,25.7358,25.843,25.9088,25.9483,25.9857,25.9857,25.9857,25.9857,25.9857,25.9857,25.9857,26.014,26.0666,26.1344,26.1981,26.2881,26.3013,26.2902,26.275,24.2385,24.2385,24.2385,24.2385,24.2385,24.2385,24.2385,24.2385,24.2385,24.2385,24.2385,24.2385,24.3306,24.4339,24.3964,24.4884,24.7515,24.7778,24.8547,24.9862,25.0651,25.0934,25.1066,25.1066,25.1066,25.1066,25.1066,25.1066,25.1066,25.1066,25.1066,25.1066,25.1066,25.1066,25.1421,25.2165,25.3346,25.5148,25.7058,25.8576,25.9653,26.0389,26.0667,26.0702,26.0702,26.0702,26.0565,26.031,25.9491,25.8535,25.8245,25.6624,25.5515,25.4287,25.3468,25.2529,25.2666,25.3212,25.3758,25.4304,25.3741,25.3331,25.3843,25.3334,25.2636,25.2313,25.3129,25.3894,25.4219,25.4305,25.3468,25.2892,25.2255,25.1597,25.1829,25.1881,25.1539,25.1151,25.1105,25.1105,25.1066,25.1066,25.1066,25.1066,25.1066,25.1066,25.1329,25.1592,25.1986,25.2249,25.2381,25.2381,25.3301,25.4202,25.4728,25.5254,25.6326,25.7378,25.8167,25.8805,25.9725,25.9857,25.9725,25.9725,25.9857,25.9857,25.9857,25.9877,26.0009,26.014,26.0798,26.1303,26.1435,26.1303,26.1566,24.2385,24.2385,24.2385,24.2385,24.2385,24.2385,24.2385,24.2385,24.2385,24.2385,24.2385,24.2385,24.2911,24.3944,24.2892,24.4095,24.541,24.6482,24.7495,24.8679,24.9994,25.0671,25.1066,25.1066,25.1066,25.1066,25.1066,25.1066,25.1066,25.1066,25.1066,25.1066,25.1066,25.1066,25.1813,25.3192,25.4829,25.6575,25.829,25.9446,26.0406,26.0632,26.0667,26.0702,26.0702,26.0702,26.0702,26.0565,26.0173,25.8945,25.8262,25.7835,25.6471,25.4969,25.3604,25.2409,25.1863,25.1727,25.188,25.2682,25.2955,25.2409,25.2682,25.2546,25.2802,25.2735,25.2735,25.3348,25.3707,25.3298,25.2721,25.311,25.3271,25.3108,25.3107,25.266,25.1595,25.1427,25.1617,25.1519,25.1066,25.1066,25.1066,25.1066,25.1066,25.1066,25.1197,25.1197,25.1329,25.146,25.146,25.1592,25.2249,25.2644,25.317,25.3959,25.5143,25.6195,25.6701,25.7358,25.8279,25.9068,25.9483,25.9614,25.9857,25.9857,25.9857,25.9857,25.9857,25.9988,25.9988,25.9988,25.9988,26.012,26.0383,24.2385,24.2385,24.2385,24.2385,24.2385,24.2385,24.2385,24.2385,24.2385,24.2385,24.2385,24.2385,24.2517,24.2517,24.2517,24.3306,24.4621,24.5016,24.6443,24.8153,24.9073,24.9994,25.0671,25.1066,25.1066,25.1066,25.1066,25.1066,25.1066,25.1066,25.1066,25.1066,25.1066,25.1302,25.2457,25.4111,25.6355,25.7821,25.9199,26.0096,26.058,26.0702,26.0702,26.0702,26.0702,26.0702,26.0702,26.0702,26.0565,25.9746,25.8108,25.7835,25.688,25.5379,25.4423,25.3485,25.2409,25.2136,25.2,25.188,25.188,25.1863,25.2017,25.2682,25.2955,25.2682,25.2802,25.3075,25.3877,25.2939,25.2409,25.3386,25.4351,25.4124,25.4203,25.346,25.221,25.1975,25.2134,25.1676,25.1224,25.1066,25.1066,25.1066,25.1066,25.1066,25.1066,25.1066,25.1066,25.1066,25.1197,25.1197,25.1329,25.146,25.1855,25.2644,25.3696,25.4768,25.5274,25.5912,25.6964,25.7753,25.841,25.9088,25.9594,25.9857,25.9857,25.9857,25.9857,25.9857,25.9988,25.9857,25.9857,25.9857,25.9857,24.2385,24.2385,24.2385,24.2385,24.2385,24.2385,24.2385,24.2385,24.2385,24.2385,24.2385,24.2385,24.2385,24.2385,24.2385,24.2892,24.3306,24.4227,24.5917,24.6199,24.789,24.9073,24.9994,25.0671,25.0934,25.1066,25.1066,25.1066,25.1066,25.1066,25.1066,25.1066,25.1085,25.1597,25.3365,25.5335,25.7803,25.8558,25.9693,26.0702,26.0702,26.0702,26.0702,26.0702,26.0702,26.0565,26.0565,26.0702,26.0702,26.0429,25.9746,25.9064,25.7972,25.6471,25.5106,25.415,25.3348,25.3195,25.2666,25.2409,25.188,25.1863,25.1727,25.2,25.2273,25.2819,25.2939,25.3212,25.4577,25.3621,25.2682,25.4696,25.5035,25.433,25.4284,25.4346,25.3404,25.3027,25.3038,25.1735,25.1085,25.1066,25.1066,25.1066,25.1066,25.1066,25.1066,25.1066,25.1066,25.1066,25.1066,25.1197,25.1197,25.1197,25.146,25.1855,25.2401,25.321,25.3847,25.4465,25.5517,25.6458,25.7358,25.8147,25.8805,25.9331,25.9594,25.9725,25.9594,25.9594,25.9857,25.9857,25.9857,25.9857,25.9857,24.2385,24.2385,24.2385,24.2385,24.2385,24.2385,24.2385,24.2385,24.2385,24.2385,24.2385,24.2385,24.2385,24.2385,24.2385,24.2385,24.2648,24.3701,24.4621,24.4884,24.6443,24.789,24.9054,24.9994,25.0671,25.0934,25.1066,25.1066,25.1066,25.1066,25.1066,25.1066,25.1184,25.2009,25.3997,25.6544,25.8719,25.9217,26.004,26.0702,26.0702,26.0702,26.0702,26.0702,26.0702,26.0292,25.9746,25.9627,25.9627,25.961,25.7835,25.8381,25.9064,25.7017,25.5925,25.5788,25.4696,25.4543,25.3604,25.2666,25.2017,25.2136,25.212,25.1727,25.1743,25.2666,25.2546,25.2409,25.3365,25.3092,25.2409,25.4031,25.4595,25.3886,25.4884,25.4914,25.4654,25.4105,25.3654,25.2574,25.1145,25.1066,25.1066,25.1066,25.1066,25.1066,25.1066,25.1066,25.1066,25.1066,25.1066,25.1066,25.1066,25.1066,25.1197,25.1329,25.1855,25.2138,25.2644,25.3301,25.4222,25.5143,25.6063,25.6701,25.7753,25.8562,25.8562,25.8694,25.8957,25.9483,25.9746,25.9877,25.9877,25.9857,25.9857,24.2385,24.2385,24.2385,24.2385,24.2385,24.2385,24.2385,24.2385,24.2385,24.2385,24.2385,24.2385,24.2385,24.2385,24.2385,24.2385,24.2517,24.2648,24.3175,24.4227,24.5259,24.6575,24.789,24.9185,24.9862,25.0802,25.1066,25.1066,25.1066,25.1066,25.1066,25.1066,25.1184,25.2009,25.3825,25.6857,25.9075,26.0441,26.0546,26.0702,26.0702,26.0702,26.0429,26.0292,26.0173,25.9473,25.8654,25.8399,25.8399,25.8108,25.6471,25.6744,25.8654,25.6744,25.6198,25.6897,25.6061,25.5106,25.3877,25.2546,25.2409,25.2955,25.2136,25.1727,25.1727,25.1863,25.1727,25.188,25.2409,25.2273,25.188,25.2136,25.2546,25.3164,25.5396,25.6146,25.549,25.4987,25.4728,25.3864,25.2457,25.1184,25.1224,25.1164,25.1224,25.1302,25.1164,25.1066,25.1066,25.1066,25.1066,25.1066,25.1066,25.1066,25.1066,25.1066,25.1066,25.1066,25.146,25.2118,25.2907,25.3959,25.4616,25.5122,25.6043,25.6964,25.7378,25.751,25.751,25.7753,25.8694,25.922,25.9746,25.9746,25.9857,24.2385,24.2385,24.2385,24.2385,24.2385,24.2385,24.2385,24.2385,24.2385,24.2385,24.2385,24.2385,24.2385,24.2385,24.2385,24.2385,24.2385,24.2385,24.278,24.3306,24.4095,24.5147,24.6443,24.7739,24.9205,24.9731,25.0388,25.1066,25.1066,25.1066,25.1066,25.1066,25.1224,25.2883,25.5017,25.8218,26.0214,26.0615,26.0702,26.0702,26.0565,26.0429,26.0292,25.9081,25.9081,25.8245,25.729,25.6744,25.6744,25.6471,25.5925,25.5652,25.5515,25.5106,25.4304,25.4031,25.3894,25.3741,25.2802,25.1863,25.2,25.2409,25.1863,25.1863,25.1727,25.1727,25.1454,25.1607,25.2529,25.2802,25.188,25.3092,25.3758,25.3092,25.5259,25.6401,25.5843,25.5742,25.5433,25.5297,25.3997,25.2845,25.2612,25.2028,25.2282,25.269,25.236,25.197,25.1833,25.1735,25.1539,25.1322,25.1361,25.1263,25.1066,25.1066,25.1066,25.1066,25.1197,25.1592,25.2006,25.2927,25.3827,25.3959,25.4596,25.5385,25.578,25.578,25.578,25.6043,25.6569,25.7115,25.7753,25.8936,25.9199,24.2385,24.2385,24.2385,24.2385,24.2385,24.2385,24.2385,24.2385,24.2385,24.2385,24.2385,24.2385,24.2385,24.2385,24.2385,24.2385,24.2385,24.2385,24.2385,24.278,24.3438,24.4076,24.541,24.6969,24.8547,24.9336,25.0388,25.1066,25.1066,25.1066,25.1066,25.1066,25.1066,25.3173,25.5092,25.7342,25.8898,25.931,25.9746,25.9337,25.92,25.8927,25.8518,25.7563,25.7563,25.6744,25.5515,25.5379,25.5225,25.5089,25.456,25.4833,25.5106,25.444,25.4167,25.4167,25.4014,25.3604,25.2802,25.2666,25.2273,25.2,25.1727,25.1727,25.1727,25.1028,25.0891,25.1028,25.142,25.1284,25.1044,25.2939,25.4423,25.4031,25.4577,25.5787,25.6098,25.6356,25.6263,25.6624,25.5614,25.4452,25.3673,25.3096,25.3482,25.394,25.3423,25.2922,25.2903,25.2825,25.2282,25.197,25.2243,25.2243,25.1224,25.1066,25.1066,25.1066,25.1066,25.1329,25.146,25.2269,25.2664,25.2664,25.3038,25.3827,25.4222,25.407,25.407,25.4485,25.488,25.5274,25.6458,25.7904,25.8299,24.2385,24.2385,24.2385,24.2385,24.2385,24.2385,24.2385,24.2385,24.2385,24.2385,24.2385,24.2385,24.2385,24.2385,24.2385,24.2385,24.2385,24.2385,24.2385,24.2385,24.2517,24.3306,24.4358,24.5805,24.7364,24.8416,24.9862,25.0671,25.0934,25.0671,25.0934,25.1066,25.1066,25.3002,25.4824,25.5946,25.6732,25.7933,25.8245,25.7563,25.6999,25.659,25.6317,25.6198,25.5908,25.5362,25.386,25.3741,25.3741,25.3741,25.2939,25.2955,25.4167,25.3894,25.3894,25.3894,25.3758,25.3212,25.3075,25.2939,25.2819,25.2136,25.1727,25.1727,25.1727,25.0345,24.9629,24.9766,25.0039,24.9902,25.0192,25.0618,25.1983,25.2393,25.3673,25.4936,25.6074,25.6413,25.7093,25.783,25.7459,25.6318,25.5503,25.5092,25.5409,25.567,25.53,25.4168,25.4092,25.3921,25.3271,25.3115,25.3365,25.2999,25.1872,25.1539,25.1931,25.2009,25.1401,25.1145,25.1085,25.1197,25.1592,25.1723,25.1986,25.2401,25.2664,25.2644,25.2644,25.3058,25.3453,25.3959,25.5011,25.5932,25.6589,24.2385,24.2385,24.2385,24.2385,24.2385,24.2385,24.2462,24.2424,24.2519,24.2462,24.2385,24.2519,24.25,24.2385,24.2424,24.2385,24.2385,24.2385,24.2385,24.2385,24.2517,24.2629,24.3569,24.4621,24.5542,24.5786,24.8435,24.9336,24.9468,24.9599,25.0125,25.1066,25.0809,25.2243,25.368,25.4425,25.5274,25.676,25.6863,25.6453,25.6044,25.6044,25.5379,25.4816,25.4287,25.3758,25.2546,25.2273,25.2273,25.2256,25.1863,25.2,25.2955,25.2802,25.2819,25.2955,25.2955,25.2409,25.2409,25.2409,25.2136,25.1863,25.1727,25.1727,25.1607,25.147,25.0908,24.9493,24.9356,24.9356,24.9493,24.9629,25.0465,25.1574,25.2666,25.4423,25.5788,25.669,25.738,25.803,25.8159,25.7488,25.7163,25.6953,25.7088,25.7324,25.6704,25.5726,25.5447,25.5372,25.4941,25.464,25.4885,25.4848,25.4035,25.3501,25.3115,25.2845,25.1754,25.1224,25.1105,25.1066,25.1066,25.1066,25.1329,25.1592,25.1855,25.1592,25.1329,25.1723,25.2249,25.2775,25.317,25.3716,25.4505,24.4457,24.4476,24.4476,24.4476,24.4476,24.4457,24.4476,24.4476,24.4457,24.4476,24.4457,24.4476,24.4047,24.3372,24.2595,24.2424,24.2385,24.2385,24.2385,24.2385,24.2385,24.2385,24.2818,24.3964,24.4733,24.541,24.6725,24.789,24.7495,24.7778,24.8435,24.923,24.9912,25.1242,25.2612,25.3374,25.459,25.5478,25.5498,25.4969,25.4423,25.415,25.3758,25.3075,25.2939,25.2546,25.2,25.1727,25.1727,25.1727,25.1727,25.1727,25.1727,25.1727,25.1727,25.1727,25.1727,25.1727,25.1727,25.1727,25.1727,25.1727,25.1727,25.1727,25.1607,25.1044,25.0072,24.9509,24.9356,24.8963,24.8554,24.9083,24.9782,25.0465,25.1011,25.2768,25.456,25.5925,25.7221,25.8173,25.8762,25.8328,25.7876,25.7783,25.7901,25.8414,25.8341,25.7596,25.738,25.6891,25.638,25.622,25.6484,25.6649,25.6096,25.5372,25.4697,25.3405,25.2457,25.1833,25.1499,25.1066,25.1066,25.1066,25.1066,25.1066,25.1197,25.1197,25.1197,25.1197,25.1066,25.1592,25.2118,25.2512,25.3038,24.6513,24.6514,24.6451,24.6558,24.629,24.6236,24.6344,24.6254,24.6281,24.6836,24.6173,24.6754,24.6129,24.5068,24.371,24.3013,24.2823,24.288,24.2956,24.2994,24.2937,24.2937,24.3049,24.4251,24.4536,24.447,24.5805,24.5805,24.5673,24.6199,24.6725,24.7469,24.8718,24.9828,25.126,25.2506,25.4273,25.5089,25.4287,25.3075,25.2136,25.2,25.2,25.1863,25.1863,25.1863,25.1727,25.1727,25.1727,25.1727,25.1727,25.1727,25.1727,25.1727,25.1727,25.1727,25.1727,25.1727,25.1727,25.1727,25.1727,25.1727,25.1727,25.1727,25.1454,25.0755,25.0055,24.9493,24.9356,24.8963,24.8417,24.8554,24.91,24.9509,24.9902,25.1284,25.3058,25.456,25.5925,25.693,25.6998,25.7305,25.785,25.8125,25.8535,25.9473,26.0104,25.9794,25.9464,25.8396,25.7639,25.7858,25.7975,25.82,25.7785,25.6759,25.5744,25.4187,25.3461,25.2748,25.1911,25.1066,25.1066,25.1145,25.1066,25.1066,25.1066,25.1066,25.1066,25.1066,25.1066,25.1197,25.1177,25.1329,25.1855,24.333,24.3575,24.348,24.3527,24.3423,24.3565,24.3618,24.3681,24.4931,24.5556,24.5513,24.6505,24.6934,24.6618,24.6166,24.5417,24.4308,24.429,24.4308,24.429,24.429,24.4308,24.4308,24.4575,24.4315,24.3745,24.4835,24.5016,24.4814,24.5381,24.5921,24.7048,24.8361,24.9409,25.0046,25.1403,25.1865,25.2483,25.2136,25.2153,25.1727,25.1727,25.1727,25.1727,25.1727,25.1727,25.1727,25.1727,25.1727,25.1727,25.1727,25.1727,25.1727,25.1727,25.1727,25.1727,25.1727,25.1727,25.159,25.159,25.1454,25.1454,25.159,25.1727,25.159,25.1301,25.0618,24.9646,24.9493,24.9236,24.8827,24.8297,24.8417,24.8963,24.9493,25.0039,25.183,25.3058,25.4423,25.4969,25.4969,25.5481,25.6368,25.6744,25.7017,25.7835,25.8228,25.8381,25.8705,25.8046,25.8245,25.8732,25.9069,25.9122,25.8986,25.7939,25.7051,25.5614,25.464,25.3595,25.2399,25.1184,25.1263,25.1401,25.1342,25.1421,25.1145,25.1066,25.1066,25.1066,25.1066,25.1066,25.1197,25.1329,25.1329,24.4718,24.4752,24.4822,24.4816,24.486,24.4928,24.4793,24.4945,24.5638,24.6467,24.7126,24.7751,24.825,24.8195,24.8206,24.7354,24.6238,24.5911,24.5911,24.5911,24.5893,24.5911,24.5911,24.5031,24.4271,24.4256,24.4971,24.5669,24.4844,24.537,24.6289,24.7254,24.851,24.9233,24.9577,25.0821,25.1633,25.1714,25.1727,25.1727,25.1727,25.1727,25.1727,25.1727,25.1727,25.1727,25.1727,25.1727,25.1727,25.1727,25.1727,25.1727,25.1334,25.0515,24.9559,24.9543,24.9406,24.9543,24.9543,25.0345,25.0618,25.0618,25.1317,25.159,25.1727,25.159,25.1334,25.0755,25.0482,25.0209,24.9493,24.881,24.8674,24.922,24.869,24.9526,25.1044,25.1574,25.2529,25.3348,25.3485,25.3894,25.4833,25.5242,25.5498,25.5771,25.6181,25.6744,25.729,25.7339,25.7509,25.8052,25.8664,25.9107,25.9732,25.9275,25.8862,25.7233,25.5967,25.4357,25.3115,25.1754,25.148,25.2048,25.197,25.2067,25.1794,25.1401,25.1184,25.1066,25.1066,25.1066,25.1066,25.1066,25.1197,24.628,24.6268,24.6445,24.6462,24.6474,24.6354,24.6086,24.6539,24.6429,24.7582,24.8405,24.8864,24.8879,24.8913,24.9181,24.8677,24.765,24.7469,24.7479,24.7479,24.7479,24.7497,24.7336,24.66,24.5626,24.5644,24.6147,24.6026,24.544,24.622,24.6639,24.7022,24.8458,24.93,24.9821,25.0884,25.1729,25.171,25.1727,25.1727,25.1727,25.1727,25.1727,25.1727,25.1727,25.1727,25.1727,25.1727,25.1727,25.1727,25.1454,25.1197,25.0362,24.8587,24.7768,24.7615,24.7751,24.7888,24.7904,24.8554,24.8963,24.9373,24.9936,25.0635,25.1181,25.1181,25.1181,25.1317,25.1454,25.1181,24.9902,24.9356,24.934,24.9083,24.869,24.8843,25.0362,25.0618,25.0465,25.212,25.2136,25.229,25.3092,25.3621,25.3894,25.4167,25.4304,25.4713,25.5396,25.6061,25.6471,25.729,25.7989,25.8927,25.9883,25.9658,25.9359,25.7424,25.6672,25.4952,25.4111,25.2519,25.2399,25.3348,25.3635,25.3211,25.2515,25.1911,25.1578,25.1125,25.1066,25.1066,25.1066,25.1066,25.1066,24.3353,24.3234,24.3282,24.3327,24.3254,24.3351,24.3488,24.3624,24.47,24.5535,24.5791,24.7069,24.7723,24.7813,24.8804,24.9213,24.8999,24.8774,24.8489,24.8489,24.8472,24.8489,24.8555,24.8141,24.7591,24.677,24.7134,24.6448,24.5741,24.622,24.7077,24.5996,24.8065,24.9498,24.9774,25.0952,25.1727,25.1727,25.1727,25.1727,25.1727,25.1727,25.1727,25.1727,25.1727,25.1727,25.1454,25.1454,25.159,25.1607,25.0482,24.9253,24.8161,24.7358,24.7205,24.7085,24.6796,24.6796,24.6796,24.7222,24.7631,24.7631,24.7904,24.8587,24.9526,24.9782,25.0345,25.0908,25.1317,25.1197,25.1334,25.0345,24.9646,24.9356,24.9373,24.922,24.9629,24.9629,25.0192,25.1317,25.1727,25.188,25.2136,25.2393,25.2273,25.2273,25.229,25.2699,25.3621,25.444,25.5106,25.5925,25.6334,25.7153,25.7835,25.7783,25.7983,25.7099,25.7064,25.6104,25.5439,25.4709,25.4632,25.5346,25.5092,25.4338,25.3768,25.2729,25.1833,25.1243,25.1066,25.1066,25.1066,25.1066,25.1066,24.2578,24.2581,24.2577,24.258,24.2588,24.2516,24.2516,24.2789,24.3351,24.4154,24.4973,24.5671,24.6507,24.7358,24.7888,24.8297,24.8219,24.823,24.8217,24.8319,24.8336,24.8217,24.8234,24.8081,24.8014,24.7365,24.7803,24.7988,24.776,24.868,24.8825,24.8768,24.9861,25.0408,25.0765,25.1391,25.171,25.1727,25.1727,25.1727,25.1727,25.1727,25.1727,25.1727,25.1727,25.1181,25.0618,25.0465,25.0072,24.9133,24.7871,24.6627,24.6081,24.5278,24.4852,24.4732,24.4732,24.4732,24.5142,24.5415,24.6097,24.5961,24.6796,24.7462,24.8008,24.8281,24.8724,24.9133,24.9423,24.9816,25.0362,25.0209,25.0755,25.0482,24.9919,24.9766,25.0465,25.0618,25.1044,25.1454,25.1727,25.1727,25.1727,25.1863,25.1863,25.2,25.2017,25.2,25.2939,25.3212,25.3894,25.444,25.4833,25.5225,25.5925,25.6163,25.6365,25.6442,25.6421,25.6092,25.5822,25.621,25.6597,25.6523,25.6135,25.5495,25.4717,25.3327,25.2301,25.1735,25.1342,25.1145,25.1066,25.1066,25.1066,24.3273,24.3204,24.2786,24.2516,24.2516,24.2516,24.2516,24.2516,24.2652,24.3335,24.4154,24.4427,24.5125,24.613,24.6523,24.6812,24.6763,24.7293,24.7205,24.7205,24.7205,24.7069,24.6201,24.6681,24.6664,24.6893,24.8209,24.8743,24.9116,24.9831,25.1116,25.1002,25.1054,25.1693,25.1643,25.166,25.1727,25.1727,25.1727,25.1727,25.1727,25.1727,25.1454,25.1028,25.1044,25.0345,24.922,24.8947,24.8008,24.6523,24.5142,24.429,24.376,24.2805,24.2396,24.2275,24.2259,24.2396,24.2789,24.3744,24.4427,24.4427,24.5278,24.6386,24.6659,24.6796,24.6932,24.7358,24.7205,24.8024,24.898,25.0345,25.0755,25.0755,25.0345,25.0482,25.1454,25.159,25.159,25.1727,25.1727,25.1727,25.1727,25.1727,25.1727,25.1727,25.1727,25.1727,25.1863,25.1863,25.2546,25.3212,25.3485,25.3621,25.4167,25.4219,25.4748,25.5174,25.5456,25.5319,25.5323,25.5651,25.6365,25.6739,25.6704,25.641,25.5804,25.4453,25.3192,25.2418,25.1794,25.146,25.1164,25.1085,25.1066,24.5225,24.507,24.3406,24.2516,24.2693,24.2532,24.2822,24.2645,24.2758,24.3031,24.3312,24.295,24.3826,24.3215,24.5251,24.5223,24.5376,24.6332,24.6845,24.6796,24.6659,24.5688,24.3897,24.4716,24.5202,24.5616,24.6768,24.7347,24.7963,24.8995,24.9642,25.0103,25.1171,25.166,25.1727,25.1727,25.1727,25.1727,25.159,25.1454,25.1454,25.1181,25.0635,24.9799,24.9663,24.898,24.8024,24.7342,24.625,24.3198,24.2925,24.2396,24.1336,24.1063,24.079,24.0926,24.1183,24.1593,24.2396,24.2789,24.2925,24.3062,24.3215,24.3624,24.4852,24.5262,24.5535,24.6539,24.7205,24.7069,24.7615,24.869,24.9509,25.0055,25.0908,25.1334,25.1727,25.1727,25.1727,25.1727,25.1727,25.1727,25.1727,25.1727,25.1727,25.1727,25.1727,25.1727,25.1727,25.1727,25.2,25.2273,25.2273,25.2273,25.2409,25.2546,25.3348,25.398,25.4254,25.4253,25.4237,25.4867,25.5873,25.6484,25.6343,25.6245,25.5878,25.5253,25.4338,25.3348,25.2321,25.1735,25.1322,25.1302,25.1066,24.7118,24.7029,24.6226,24.5879,24.5758,24.4655,24.4856,24.553,24.4917,24.4764,24.5728,24.5864,24.5879,24.5743,24.536,24.5273,24.5222,24.4736,24.4677,24.4628,24.4781,24.3946,24.3094,24.3215,24.4017,24.4973,24.5671,24.6401,24.7328,24.8615,24.9313,24.9608,25.0896,25.171,25.1727,25.1727,25.1727,25.159,25.0771,25.0345,25.0345,24.9543,24.8724,24.845,24.8161,24.8024,24.7205,24.637,24.4852,24.3231,24.2532,24.2396,24.1729,24.1729,24.1729,24.1729,24.1729,24.185,24.2532,24.2516,24.2516,24.2516,24.2516,24.2925,24.3471,24.3608,24.3608,24.4579,24.4596,24.5005,24.5671,24.6337,24.7582,24.8963,24.9919,25.0771,25.1607,25.164,25.1743,25.1727,25.1727,25.1727,25.1727,25.1727,25.1727,25.176,25.186,25.1844,25.1777,25.1727,25.1863,25.1863,25.1863,25.2,25.2136,25.2136,25.2666,25.2682,25.2788,25.2703,25.3026,25.3589,25.4492,25.5021,25.5579,25.5612,25.5049,25.4358,25.3751,25.3198,25.2847,25.2185,25.1813,25.1617,25.1243,24.7704,24.7634,24.718,24.6995,24.678,24.5601,24.5887,24.7252,24.6163,24.6494,24.7782,24.8267,24.8051,24.7883,24.584,24.5512,24.5514,24.393,24.2801,24.3317,24.319,24.3215,24.3199,24.3071,24.3505,24.4429,24.442,24.5109,24.6643,24.7549,24.8504,24.9356,25.0448,25.1181,25.1743,25.1727,25.1727,25.1454,25.0192,24.9493,24.9236,24.8161,24.7085,24.6796,24.6643,24.6386,24.5977,24.4852,24.3842,24.3135,24.3215,24.3014,24.2187,24.2171,24.1954,24.1794,24.1866,24.2123,24.238,24.2516,24.2516,24.2516,24.2516,24.2516,24.2516,24.2652,24.2652,24.2516,24.2652,24.3198,24.4017,24.4427,24.5518,24.7735,24.8435,24.9348,25.058,25.1028,25.1045,25.1045,25.0958,25.116,25.1467,25.1741,25.1861,25.2272,25.2392,25.2376,25.2227,25.2127,25.1994,25.191,25.1571,25.1657,25.1657,25.1657,25.1691,25.1621,25.16,25.182,25.2317,25.283,25.3157,25.3707,25.4492,25.4736,25.4107,25.3467,25.2674,25.2086,25.1812,25.1676,25.1612,25.1656,25.1212,24.6503,24.6148,24.4606,24.4271,24.4271,24.4114,24.4941,24.6144,24.5859,24.673,24.8077,24.8235,24.8191,24.7478,24.5154,24.5329,24.6927,24.457,24.3784,24.475,24.4795,24.4467,24.4417,24.3914,24.3798,24.3977,24.336,24.3754,24.5233,24.5747,24.6627,24.8992,24.9588,25.0258,25.1244,25.1657,25.1484,25.1261,25.0068,24.9232,24.9232,24.785,24.6501,24.5239,24.5135,24.4622,24.3714,24.3304,24.3511,24.4386,24.4433,24.3633,24.2021,24.1484,24.149,24.115,24.0701,24.1585,24.2324,24.2742,24.2862,24.2878,24.2878,24.2516,24.2846,24.2942,24.2926,24.291,24.2725,24.2798,24.295,24.3103,24.3786,24.5184,24.6571,24.7864,24.9081,24.943,24.9577,24.9519,24.9509,24.9784,25.1153,25.1323,25.1873,25.2681,25.2891,25.2462,25.2201,25.1818,25.2118,25.1833,25.1219,25.1099,25.087,25.1007,25.116,25.1155,25.1264,25.1505,25.1971,25.2283,25.2595,25.3023,25.3454,25.3514,25.3254,25.2988,25.229,25.1546,25.1074,25.0971,25.0976,25.1014,25.0877,24.7975,24.7911,24.7309,24.7049,24.6804,24.5678,24.6289,24.7535,24.6746,24.7035,24.8476,24.8736,24.8579,24.7787,24.567,24.5671,24.686,24.4493,24.4344,24.6024,24.5785,24.5487,24.5164,24.4651,24.4339,24.4292,24.4088,24.4236,24.4785,24.5713,24.6658,24.7755,24.8885,24.9555,24.9999,25.0152,25.0136,24.9878,24.8562,24.7755,24.7497,24.6431,24.5334,24.4906,24.4769,24.4494,24.4114,24.3961,24.4213,24.4605,24.4729,24.4345,24.3577,24.3392,24.342,24.3201,24.3154,24.3275,24.384,24.3898,24.3977,24.3961,24.3961,24.3961,24.3961,24.3961,24.3961,24.3961,24.393,24.3961,24.3946,24.3961,24.4099,24.4785,24.6098,24.7081,24.7694,24.8552,24.9134,24.9059,24.9181,24.9515,24.9944,25.0081,25.0357,25.0616,25.0875,25.0699,25.0619,25.066,25.0442,25.0144,25.0281,25.0353,25.0192,25.0346,25.0636,25.0669,25.0699,25.0942,25.1291,25.1557,25.173,25.2147,25.231,25.2296,25.2168,25.2013,25.183,25.1231,25.0633,25.0573,25.0376,25.0517,25.0558,24.6177,24.6034,24.6177,24.6022,24.6005,24.5242,24.5924,24.7264,24.6868,24.7396,24.874,24.9031,24.8845,24.7987,24.5841,24.5617,24.6998,24.436,24.414,24.5658,24.536,24.5118,24.5244,24.4795,24.4811,24.5024,24.4822,24.4714,24.4958,24.5614,24.6456,24.699,24.7954,24.8689,24.933,24.9255,24.9255,24.8964,24.7694,24.6853,24.6715,24.5508,24.4714,24.4729,24.4729,24.4946,24.5302,24.5332,24.5056,24.4658,24.4627,24.4259,24.383,24.4059,24.4211,24.4056,24.4438,24.4729,24.4714,24.4698,24.4667,24.4698,24.4698,24.4729,24.4729,24.4682,24.4667,24.4682,24.4714,24.4729,24.4729,24.4729,24.4884,24.5286,24.6145,24.6881,24.7065,24.7725,24.8337,24.8352,24.8352,24.8628,24.8935,24.9089,24.9443,24.998,25.0102,24.9945,24.9634,24.9831,24.9524,24.9287,24.9255,24.9478,24.9625,24.9804,24.9944,24.9945,24.9857,24.9904,25.0346,25.0571,25.0692,25.0821,25.0938,25.0932,25.0969,25.0827,25.0656,25.018,24.9986,24.9908,25.0011,25.0006,24.9958,23.9874,24.0302,23.9731,24.0302,24.0718,24.1715,24.2953,24.4595,24.5899,24.6979,24.8293,24.8746,24.8411,24.7988,24.4857,24.497,24.6587,24.398,24.3274,24.4619,24.3736,24.3943,24.5118,24.4472,24.46,24.5132,24.4948,24.4669,24.49,24.5053,24.5711,24.6672,24.7041,24.767,24.9043,24.8894,24.9091,24.8725,24.7639,24.6872,24.6747,24.5542,24.4915,24.4869,24.4731,24.5256,24.6364,24.6409,24.5517,24.4423,24.4161,24.3259,24.1906,24.263,24.3063,24.2895,24.3828,24.4516,24.4685,24.4731,24.4655,24.4946,24.4822,24.4946,24.4993,24.4946,24.4915,24.4946,24.4915,24.4853,24.4884,24.4915,24.5332,24.6367,24.6566,24.6705,24.6641,24.6732,24.6762,24.678,24.6997,24.7455,24.8426,24.8814,24.9015,25.0001,25.0293,25.0125,24.9509,24.94,24.9672,24.9296,24.876,24.8519,24.8835,24.9229,24.9169,24.9079,24.8848,24.8833,24.918,24.9461,24.9625,24.9883,24.9868,24.9729,24.9623,24.9831,24.9536,24.988,24.9168,24.8918,24.9207,24.939,24.9392,23.8744,23.9588,23.9588,23.9588,23.9719,24.0314,24.1313,24.2752,24.3323,24.4464,24.5606,24.5904,24.5553,24.5071,24.37,24.3701,24.4215,24.248,24.2311,24.3636,24.291,24.3305,24.4138,24.3688,24.3355,24.3349,24.4034,24.5081,24.5912,24.605,24.6312,24.6696,24.6727,24.6988,24.7419,24.7572,24.7557,24.7403,24.7003,24.6696,24.6711,24.6173,24.605,24.5896,24.5066,24.4723,24.5082,24.4032,24.3214,24.2783,24.2798,24.2417,24.1824,24.221,24.2384,24.2205,24.259,24.3282,24.4236,24.4374,24.4898,24.5912,24.6035,24.6035,24.605,24.6035,24.605,24.605,24.605,24.605,24.605,24.602,24.6201,24.6548,24.6668,24.6668,24.6668,24.6668,24.6668,24.6668,24.6668,24.6807,24.7223,24.7376,24.7778,24.8055,24.8194,24.801,24.7783,24.7861,24.7755,24.7464,24.7619,24.7711,24.765,24.7865,24.7708,24.769,24.7597,24.7833,24.8049,24.8263,24.8438,24.8707,24.8762,24.8506,24.8558,24.8775,24.9254,24.9929,24.9259,24.8245,24.8564,24.873,24.8759,23.7043,23.803,23.8019,23.8019,23.8019,23.8601,23.9315,24.0326,24.0884,24.1753,24.2621,24.3347,24.3296,24.2942,24.221,24.187,24.1781,24.129,24.1466,24.2385,24.1846,24.2223,24.318,24.2529,24.2219,24.2426,24.3149,24.4032,24.5003,24.5558,24.582,24.582,24.639,24.6668,24.6668,24.6668,24.6668,24.6668,24.6668,24.6668,24.6638,24.6668,24.6113,24.5018,24.4032,24.3462,24.3477,24.2521,24.1703,24.1286,24.1272,24.1009,24.0439,24.0439,24.0578,24.1148,24.1688,24.2367,24.3338,24.3462,24.4032,24.4864,24.5003,24.4958,24.5697,24.582,24.6113,24.6514,24.6668,24.6252,24.6098,24.582,24.6098,24.6529,24.6668,24.6668,24.6668,24.6668,24.6668,24.6668,24.6668,24.6668,24.6807,24.6668,24.6668,24.6668,24.6668,24.6807,24.6668,24.6668,24.6762,24.6653,24.6668,24.6668,24.6668,24.6668,24.6668,24.6668,24.6777,24.7045,24.7095,24.7281,24.7665,24.8001,24.7938,24.7812,24.8205,24.8434,24.8056,24.859,24.8218,24.7603,24.7993,24.8023,24.7878,23.4891,23.4903,23.4891,23.5034,23.5176,23.6615,23.734,23.7769,23.9029,23.9731,24.0016,24.1313,24.1895,24.1657,24.068,24.0168,24.0275,24.0482,24.0688,24.0863,24.0368,24.0913,24.2193,24.1123,24.1393,24.231,24.2236,24.2068,24.2192,24.3492,24.428,24.4295,24.5558,24.639,24.6252,24.6113,24.639,24.6113,24.6113,24.6252,24.6267,24.6252,24.4879,24.2521,24.198,24.1966,24.198,24.1841,24.1133,23.976,23.976,23.9191,23.7789,23.765,23.8358,23.9621,24.1009,24.1703,24.1841,24.1966,24.2119,24.2119,24.2382,24.2798,24.4017,24.4309,24.4711,24.6267,24.5989,24.5558,24.4433,24.4156,24.4849,24.5974,24.6267,24.6252,24.6252,24.6113,24.6529,24.639,24.6529,24.6668,24.6668,24.6668,24.6668,24.6668,24.6668,24.6668,24.6668,24.6668,24.6668,24.6668,24.6668,24.6668,24.6668,24.6668,24.6668,24.6668,24.6668,24.6762,24.6443,24.637,24.6866,24.7143,24.6953,24.7277,24.7835,24.7836,24.7419,24.7111,24.675,24.6843,24.713,24.7146,24.7175,23.2191,23.3047,23.319,23.3904,23.5034,23.5473,23.633,23.734,23.7769,23.8613,23.9731,24.0159,23.9743,23.8815,23.9045,23.9074,23.8701,23.8301,23.862,23.9368,23.9222,23.9746,24.0746,24.0517,24.0312,24.0397,24.0793,24.1063,24.1159,24.2185,24.2659,24.2659,24.3061,24.3353,24.3353,24.3353,24.3214,24.3353,24.3229,24.3353,24.3353,24.3353,24.2937,24.198,24.1009,24.0454,24.0469,23.9344,23.8621,23.822,23.822,23.7928,23.7511,23.7511,23.7803,23.822,23.8636,23.9191,24.0315,24.0454,24.087,24.1841,24.198,24.2243,24.2506,24.2645,24.2937,24.3353,24.3353,24.3214,24.2659,24.2659,24.2783,24.3214,24.3353,24.3214,24.3477,24.4448,24.4973,24.5127,24.5835,24.6668,24.6668,24.6529,24.639,24.639,24.6529,24.6668,24.6668,24.6668,24.6668,24.6668,24.6668,24.6668,24.6668,24.6668,24.6668,24.6668,24.6668,24.6668,24.6623,24.6578,24.6768,24.6574,24.6176,24.6297,24.6409,24.6447,24.6265,24.6127,24.6403,24.678,24.652,24.6419,24.6437,23.0741,23.1466,23.1477,23.2476,23.3904,23.3904,23.4903,23.6341,23.633,23.6901,23.7733,23.7733,23.7317,23.6437,23.7482,23.753,23.7166,23.7181,23.7351,23.7717,23.7691,23.8352,23.9412,23.9478,23.9474,23.9778,24.0006,24.0144,24.0227,24.0639,24.1173,24.1359,24.1805,24.198,24.198,24.198,24.198,24.198,24.198,24.1411,24.0315,24.0176,24.0162,24.0023,23.9329,23.8928,23.8774,23.8066,23.7511,23.7511,23.7511,23.7511,23.7511,23.7511,23.7511,23.7511,23.7511,23.7928,23.8789,23.8913,23.9329,24.0023,24.0162,24.0439,24.1009,24.1148,24.0856,24.0301,24.0176,24.0439,24.0994,24.1148,24.1411,24.198,24.198,24.198,24.198,24.2783,24.3477,24.3477,24.4185,24.474,24.474,24.4726,24.4726,24.474,24.5419,24.5558,24.5697,24.6252,24.6529,24.6668,24.6668,24.6668,24.6668,24.6668,24.6668,24.6668,24.6668,24.6668,24.6668,24.6668,24.6578,24.6186,24.6249,24.6006,24.524,24.543,24.5334,24.5024,24.5476,24.5453,24.5571,24.5608,24.5051,22.9611,22.9885,22.9896,23.0895,23.2203,23.2203,23.319,23.4605,23.476,23.4748,23.4605,23.4748,23.476,23.4833,23.5833,23.6064,23.5668,23.6395,23.6607,23.6285,23.6181,23.6974,23.8316,23.8007,23.8595,23.9777,23.9386,23.9222,23.9516,23.9419,23.9699,24.0543,24.1292,24.174,24.1652,24.1652,24.1608,24.1564,24.1666,24.0461,23.7823,23.7684,23.7655,23.7612,23.7612,23.7569,23.765,23.7511,23.7511,23.7511,23.7511,23.7511,23.7511,23.7511,23.7511,23.7511,23.7511,23.7511,23.7511,23.7511,23.765,23.7511,23.765,23.822,23.9468,23.9621,23.9066,23.8081,23.765,23.8358,23.9468,23.9621,24.0038,24.0994,24.1272,24.1549,24.1425,24.1703,24.1841,24.1841,24.2104,24.198,24.2382,24.2382,24.2243,24.2535,24.3477,24.4156,24.4295,24.528,24.6252,24.6113,24.6113,24.6113,24.5974,24.6252,24.5974,24.6252,24.639,24.6529,24.6668,24.6668,24.6653,24.6488,24.6593,24.6398,24.5837,24.5271,24.4742,24.4484,24.3833,24.3312,24.4306,24.4651,24.4209,22.6175,22.8304,22.8304,22.9314,23.0621,23.061,23.162,23.3047,23.3047,23.2334,23.1466,23.2619,23.3047,23.319,23.4643,23.5026,23.4525,23.4417,23.4581,23.5054,23.4761,23.5425,23.682,23.6729,23.7507,23.8835,23.8455,23.8859,23.9799,23.9514,23.9336,23.9643,23.9797,23.9655,23.9201,23.9201,23.8958,23.8584,23.94,23.9587,23.8889,23.8903,23.8679,23.813,23.8088,23.8013,23.7555,23.7511,23.7511,23.7511,23.7511,23.7511,23.7511,23.7511,23.7511,23.7511,23.7511,23.7511,23.7511,23.7511,23.7511,23.7511,23.7511,23.7665,23.7942,23.8081,23.7942,23.765,23.7555,23.7693,23.811,23.811,23.822,23.8483,23.8636,23.8774,23.876,23.9621,24.0315,24.0454,24.1411,24.198,24.198,24.198,24.1841,24.1841,24.2243,24.2521,24.2659,24.3893,24.4171,24.3492,24.3075,24.3214,24.3061,24.3199,24.3754,24.4711,24.4849,24.5266,24.6113,24.6529,24.6668,24.6529,24.6529,24.6578,24.6428,24.5898,24.5255,24.4605,24.3898,24.3416,24.3376,24.3247,24.2942,22.3046,22.4616,22.5461,22.6175,22.7042,22.8458,23.0039,23.1323,23.061,23.0182,23.0182,23.1049,23.1477,23.162,23.319,23.3493,23.314,23.3588,23.4016,23.4194,23.3655,23.4094,23.5504,23.5401,23.6129,23.7524,23.7376,23.7652,23.8468,23.8862,23.8846,23.874,23.9427,23.9418,23.8875,23.868,23.8665,23.8354,23.8261,23.8175,23.8161,23.7462,23.7031,23.6601,23.6587,23.642,23.6238,23.6238,23.6238,23.6238,23.6224,23.6516,23.7212,23.7212,23.7517,23.7817,23.7942,23.7813,23.7555,23.7511,23.7511,23.7511,23.7511,23.7742,23.8284,23.834,23.8326,23.834,23.8326,23.8227,23.7956,23.7942,23.7828,23.7555,23.7511,23.7511,23.765,23.8358,23.8774,23.8928,23.9468,23.9884,24.0023,23.9884,23.9884,24.0038,24.0023,24.0301,24.0994,24.2032,24.2258,24.133,24.1564,24.198,24.1966,24.198,24.2382,24.3061,24.3338,24.3616,24.4309,24.528,24.5404,24.5667,24.6252,24.6529,24.6653,24.6141,24.5654,24.5117,24.4448,24.3708,24.3231,24.2862,24.2806,22.0357,22.0642,22.219,22.2761,22.3035,22.5878,22.7887,22.904,22.7733,22.8018,22.9468,22.9754,22.9896,22.9896,23.1477,23.1948,23.1527,23.3188,23.3624,23.3165,23.2717,23.3138,23.4372,23.3954,23.4567,23.6001,23.5988,23.6142,23.6424,23.7678,23.8145,23.7987,23.9337,23.9782,23.929,23.9319,23.9179,23.8842,23.7569,23.7023,23.7163,23.589,23.5164,23.5069,23.5209,23.5055,23.4667,23.464,23.4667,23.4667,23.4667,23.5226,23.6484,23.6596,23.6823,23.7494,23.7423,23.7338,23.7119,23.7215,23.7354,23.777,23.777,23.8059,23.8903,23.9139,23.9279,23.9279,23.9238,23.9085,23.8497,23.8399,23.8354,23.7899,23.7785,23.777,23.7828,23.7981,23.7995,23.8009,23.777,23.7966,23.8163,23.8134,23.8163,23.7952,23.8512,23.8398,23.961,24.0089,24.006,23.992,24.0593,24.1286,24.1009,24.1272,24.1411,24.1688,24.1688,24.1841,24.2382,24.3338,24.4032,24.4017,24.4849,24.5697,24.582,24.5509,24.5038,24.5041,24.4333,24.3813,24.3883,24.277,24.2448,21.7756,21.9062,22.0653,22.1202,22.1356,22.3189,22.4177,22.432,22.4034,0.0,0.0,22.7602,22.8172,22.8304,22.9885,23.0564,23.0449,23.161,23.2085,23.2085,23.2312,23.2585,23.283,23.2429,23.3006,23.4414,23.4414,23.5143,23.6283,23.6565,23.6794,23.6843,23.8237,23.8888,23.8909,23.9718,23.9003,23.6941,23.6545,23.7108,23.8373,23.8092,23.7713,23.7371,23.7371,23.6441,23.4681,23.4667,23.4667,23.4667,23.4667,23.4807,23.4946,23.5073,23.4473,23.3539,23.34,23.3918,23.5065,23.519,23.6181,23.8847,23.8973,23.8512,23.7435,23.8594,23.9279,23.9279,23.9279,23.9251,23.9154,23.914,23.9099,23.9001,23.8987,23.8973,23.8959,23.8973,23.8917,23.8973,23.8917,23.8973,23.8931,23.8917,23.8987,23.8959,23.8875,23.9113,23.9364,23.9097,23.8883,23.8311,23.854,23.8497,23.8344,23.8483,23.8913,24.0038,24.0176,24.0731,24.1688,24.2243,24.2382,24.2382,24.2659,24.2937,24.2937,24.2957,24.2874,24.358,24.3538,24.3677,24.4132,24.2508,24.0858,21.4199,21.5198,21.7481,21.848,0.0,22.0917,22.1049,21.9753,22.1334,22.2344,22.32,22.4748,22.545,22.5593,22.7887,22.9017,22.9006,23.0345,23.137,23.2058,23.2154,23.2378,23.2958,23.2281,23.2288,23.2852,23.2852,23.3287,23.4004,23.4862,23.5131,23.5284,23.6705,23.755,23.7537,23.8118,23.7248,23.5271,23.5271,23.5553,23.6257,23.5553,23.5001,23.4727,23.4714,0.0,0.0,0.0,0.0,0.0,0.0,0.0,0.0,23.5121,0.0,23.2773,23.1319,23.0334,23.0028,23.0574,23.1732,23.3256,23.4946,23.5051,23.3398,23.5248,23.7225,23.8782,23.8935,23.9234,23.9649,23.9762,23.9638,23.9335,23.9279,23.9279,23.9279,23.9279,23.9279,23.9279,23.9279,23.9279,23.9279,23.9279,23.9279,23.9279,23.9279,23.9265,23.9279,23.9307,23.9112,23.8538,23.7971,23.7526,23.7511,23.7511,23.7942,23.8358,23.8636,23.9052,23.9607,24.0454,24.087,24.1009,24.1564,24.198,24.198,24.198,24.2155,24.2507,24.2456,24.2476,24.3135,24.2122,24.1017,21.0346,21.0917,21.3628,21.5055,21.5472,21.7645,21.7349,21.5472,21.8216,21.9643,22.0082,22.1905,22.2772,22.2893,22.5747,22.702,22.7008,22.8897,23.0324,23.1597,23.1657,23.2179,23.3059,23.2841,23.2435,23.1917,23.1904,23.1841,23.1739,23.2993,23.3556,23.371,23.5143,23.586,23.586,0.0,0.0,0.0,23.3569,23.3697,23.3978,23.2852,23.2161,23.2161,23.2148,0.0,23.3569,23.3556,23.4132,23.5438,23.5438,0.0,0.0,0.0,0.0,0.0,0.0,0.0,0.0,0.0,0.0,0.0,22.9232,23.0185,22.9408,23.2225,23.5118,23.7537,23.8395,23.8901,23.9418,23.9518,23.9456,23.9273,23.9218,23.9344,23.9638,23.9638,23.9638,23.9624,23.9638,23.9638,23.9666,23.9624,23.9652,23.9693,23.9638,23.9624,23.9666,23.9953,23.994,23.9348,23.8383,23.7698,23.754,23.7511,23.7511,23.7511,23.7511,23.7511,23.7789,23.8774,23.9344,23.9483,24.0439,24.1133,24.1148,24.1133,24.1118,24.1535,24.1152,24.0945,24.1155,24.1133,24.1133,20.6054,20.7502,20.9235,21.0927,21.2069,21.1091,21.1223,21.2201,21.3924,21.5494,21.691,21.9775,22.1071,22.1213,22.2904,22.3749,22.3892,22.6734,22.8161,22.8567,23.0648,23.1801,23.2014,23.2942,23.2995,23.2344,23.2331,23.208,23.1751,23.1867,23.202,23.202,23.3569,23.4273,23.4273,23.3006,23.2148,23.2007,23.202,23.257,23.3978,23.385,23.3697,23.3697,23.3697,23.3134,23.202,23.2007,23.2161,23.2315,23.2302,23.2302,23.2443,22.9793,22.6798,0.0,22.133,0.0,0.0,0.0,0.0,0.0,0.0,0.0,0.0,23.1699,23.4247,23.4554,23.7102,23.8228,23.6895,23.6882,23.7406,23.8593,23.8734,23.9283,24.0549,24.0831,24.0831,24.0831,24.0831,24.0831,24.0663,24.0831,24.0831,24.0764,24.0597,24.0443,24.0637,24.0328,23.9895,23.9376,23.8749,23.8213,23.7742,23.7569,23.7583,23.754,23.7569,23.7511,23.754,23.7803,23.7942,23.7928,23.8205,23.8205,23.8066,23.822,23.8636,23.9899,24.0089,23.9629,23.8607,23.8344,23.8081,20.264,20.422,20.5779,20.5779,20.5056,20.6054,20.6921,20.7767,21.0224,21.1651,21.2507,21.4638,21.6636,21.8337,22.0763,22.2333,22.3167,22.4605,22.6164,22.7853,22.9074,22.9817,23.0533,23.1895,23.2245,23.1604,23.2595,23.2734,23.2092,23.2067,23.2057,23.1751,23.2443,23.2442,23.1876,23.1196,23.1186,23.1751,23.1751,23.2007,23.2711,23.2724,23.2724,23.2724,23.2724,23.2852,23.2993,23.2993,23.3428,23.4299,23.4299,23.3172,23.0638,22.7073,22.2414,0.0,0.0,0.0,0.0,0.0,0.0,0.0,0.0,0.0,0.0,0.0,22.8639,22.8055,23.2891,23.627,23.6283,23.5579,23.5412,23.5962,23.5412,23.5131,23.5694,23.7396,23.81,23.7242,23.8664,23.979,23.9803,23.9803,24.0072,24.0916,23.9522,23.8395,23.8496,23.9042,23.9204,23.8637,23.9023,23.921,23.8609,23.851,23.851,23.8482,23.8255,23.8028,23.8028,23.7742,23.7511,23.7511,23.7511,23.7511,23.7511,23.7511,23.765,23.8358,23.8636,23.8358,23.765,23.7511,23.7511,19.892,20.0357,20.0337,19.948,19.8196,20.0479,20.2182,20.3333,20.58,20.7523,20.8522,20.9072,21.0917,21.4045,21.6361,21.8776,22.0906,22.1762,22.3749,22.6746,22.7448,22.8242,22.9001,23.059,23.1197,23.1146,23.2411,23.2994,23.2643,23.2348,23.1841,23.1581,23.1556,23.0769,22.9292,22.99,23.0487,23.1366,23.1521,23.1751,23.1751,23.1751,23.1751,23.1751,23.1751,23.2302,23.3415,23.3428,23.3991,23.5156,23.4274,23.2096,22.8138,22.2913,0.0,0.0,0.0,0.0,0.0,0.0,0.0,0.0,0.0,20.6176,20.6054,0.0,22.1547,0.0,22.8528,23.3288,23.5029,23.3863,0.0,0.0,23.1739,23.0766,23.1188,23.3313,23.4299,23.3146,23.5694,23.7537,23.7537,23.7973,23.8664,24.0212,23.8395,23.6718,23.6437,23.7691,23.8466,23.7653,23.8347,23.8859,23.8118,23.8441,23.8846,23.9279,23.8931,23.8497,23.8497,23.8255,23.7942,23.7942,23.7842,23.7756,23.7742,23.7598,23.7526,23.7511,23.7511,23.7511,23.7511,23.7511,23.7511,19.4058,19.5229,19.1071,19.0786,19.3202,19.3488,19.6056,19.9918,20.0204,20.2793,20.6656,20.3934,20.4505,20.7502,20.7798,0.0,21.4648,21.7503,22.0478,22.3606,22.6438,22.7853,22.7962,22.9531,23.0715,23.1647,23.1777,23.238,23.3172,23.1755,23.101,23.0973,23.0973,22.9544,22.6828,22.8941,23.0262,23.0341,23.1135,23.1751,23.1751,23.1751,23.1751,23.1751,23.1751,23.1739,23.1867,23.1879,23.1879,23.1892,22.8375,22.5503,22.3514,0.0,0.0,0.0,0.0,0.0,0.0,0.0,0.0,0.0,0.0,0.0,0.0,0.0,0.0,21.9132,22.4934,0.0,23.1777,23.0779,0.0,0.0,0.0,22.8116,22.9652,22.9946,23.0087,22.9934,0.0,0.0,23.4401,23.5707,23.7141,23.8677,23.8677,23.7973,23.6578,23.7537,23.8057,23.6109,23.5989,23.5775,23.5737,23.6454,23.7712,23.8831,23.9251,23.9084,23.907,23.9126,23.914,23.9085,23.8721,23.8215,23.8215,23.7913,23.7511,23.754,23.754,23.7526,23.7511,23.7511,23.7511,18.5916,18.2063,18.1216,18.209,18.424,18.5221,18.7218,18.9796,19.0776,19.2327,19.426,19.3831,19.5671,19.8876,19.8876,0.0,0.0,0.0,21.4638,22.0335,22.1608,22.376,22.646,22.803,22.8915,22.9433,23.0299,23.1325,23.2404,23.1693,22.8283,22.2289,0.0,22.3149,22.2698,22.6345,22.8492,22.885,23.1064,23.2082,23.1751,23.1751,23.1751,23.1751,23.1751,23.1751,23.1751,23.1751,23.0598,22.8092,22.4607,21.9467,0.0,0.0,0.0,0.0,0.0,0.0,0.0,0.0,0.0,0.0,0.0,18.8071,18.9534,0.0,0.0,0.0,21.2947,21.8405,22.5039,22.6455,0.0,0.0,0.0,0.0,0.0,0.0,0.0,22.3496,22.8303,23.2055,23.2901,23.2673,23.275,23.4286,23.3735,23.3313,23.3454,0.0,23.5897,23.6123,23.6097,23.6299,23.6904,23.6864,23.6864,23.7412,23.7986,23.8443,23.8429,23.8955,23.9293,23.9265,23.9112,23.8833,23.8342,23.8538,23.8496,23.8002,23.8085,23.7928,23.7583,23.7511,23.7511,17.6356,0.0,0.0,0.0,0.0,17.6382,17.8148,18.011,18.1226,18.2548,18.4164,18.4451,0.0,0.0,0.0,0.0,0.0,0.0,20.8788,21.4643,21.8238,22.1049,22.3486,22.4605,22.5319,22.5747,22.5615,22.6148,22.722,22.6041,22.1662,21.4342,0.0,0.0,0.0,0.0,22.6781,22.7757,23.1007,23.2547,23.1981,23.1981,23.1904,23.1751,23.1751,23.1751,23.1739,23.0598,22.8159,22.4281,21.9302,0.0,0.0,0.0,0.0,0.0,0.0,0.0,0.0,0.0,0.0,0.0,0.0,0.0,0.0,0.0,0.0,0.0,0.0,0.0,21.5742,22.0408,22.2779,0.0,0.0,0.0,0.0,0.0,0.0,0.0,0.0,0.0,22.8227,22.829,22.9162,0.0,0.0,23.106,23.1598,23.2993,23.4273,23.4849,23.5016,0.0,23.6538,23.6129,23.572,23.5707,23.6787,23.7211,23.6215,23.629,23.6288,23.5867,23.6712,23.6621,23.4408,23.3927,23.3828,23.3491,23.3619,23.3745,23.3495,23.38,23.3954,0.0,0.0,0.0,0.0,16.6989,0.0,0.0,0.0,17.2305,17.4906,0.0,17.6321,0.0,0.0,0.0,0.0,18.978,19.8294,0.0,0.0,21.7082,22.1334,21.8798,21.8655,21.9501,22.0653,21.6514,21.5219,21.6186,21.2424,0.0,0.0,0.0,0.0,0.0,0.0,22.5544,22.7061,23.1158,23.3093,23.2431,23.2406,23.2155,23.1777,23.1751,23.1751,23.1483,22.7706,22.414,22.0903,21.1552,0.0,0.0,0.0,0.0,0.0,0.0,0.0,0.0,0.0,0.0,0.0,0.0,0.0,0.0,0.0,0.0,0.0,0.0,0.0,0.0,21.1957,0.0,0.0,0.0,0.0,0.0,0.0,0.0,0.0,0.0,22.2013,21.8635,22.2472,22.6694,22.9672,0.0,0.0,0.0,0.0,23.3556,23.2161,23.1879,23.1867,23.202,23.3146,23.4119,23.4119,0.0,0.0,23.2417,23.0728,22.9435,22.7925,23.0828,23.1026,22.3529,22.2279,22.2243,22.1821,22.2963,22.3648,22.3749,22.5041,22.5905,0.0,0.0,0.0,0.0,0.0,0.0,0.0,0.0,0.0,16.1597,16.4193,16.3345,0.0,0.0,0.0,0.0,0.0,0.0,0.0,0.0,20.1388,20.5492,20.851,20.9532,21.0238,21.0821,21.0258,20.4796,0.0,0.0,0.0,0.0,0.0,0.0,0.0,0.0,22.1768,22.4167,22.9527,23.2613,23.3118,23.3093,23.2846,23.2309,23.2143,23.0719,22.7719,22.2672,21.7114,0.0,0.0,0.0,0.0,0.0,0.0,0.0,0.0,0.0,0.0,0.0,0.0,0.0,0.0,0.0,0.0,0.0,0.0,0.0,0.0,0.0,0.0,0.0,21.2658,0.0,0.0,0.0,0.0,0.0,0.0,0.0,0.0,0.0,21.0515,21.4835,22.0138,22.4894,22.7253,22.9287,23.1367,0.0,0.0,0.0,0.0,0.0,0.0,0.0,23.1188,23.106,22.9946,22.8551,22.7412,22.5991,22.4852,22.4289,0.0,0.0,21.3446,21.3996,21.6229,21.6625,21.7214,21.7802,21.8429,21.8911,21.961,0.0,0.0,0.0,0.0,0.0,0.0,0.0,0.0,0.0,14.9288,15.1037,0.0,0.0,0.0,0.0,0.0,0.0,0.0,0.0,0.0,0.0,0.0,19.7591,19.8596,0.0,0.0,0.0,0.0,0.0,0.0,0.0,0.0,0.0,0.0,0.0,0.0,21.8754,22.2019,22.7966,23.1421,23.2057,23.2613,23.2666,23.2022,23.2576,23.0558,22.5842,0.0,0.0,0.0,0.0,0.0,0.0,0.0,0.0,0.0,0.0,0.0,0.0,0.0,0.0,0.0,0.0,0.0,0.0,0.0,0.0,0.0,0.0,0.0,0.0,0.0,20.3945,0.0,0.0,0.0,0.0,0.0,0.0,0.0,0.0,0.0,0.0,20.7593,21.3812,21.9027,22.3084,22.6737,22.9917,23.1149,23.202,0.0,0.0,0.0,0.0,0.0,0.0,0.0,0.0,0.0,0.0,0.0,0.0,0.0,0.0,20.8214,20.1031,20.2061,20.4386,20.5537,0.0,0.0,0.0,0.0,0.0,0.0,0.0,0.0,0.0,0.0,0.0,0.0,0.0,0.0,0.0,14.0272,0.0,0.0,14.4876,0.0,0.0,0.0,0.0,0.0,0.0,0.0,0.0,0.0,0.0,0.0,0.0,0.0,0.0,0.0,0.0,0.0,0.0,0.0,0.0,0.0,0.0,21.6305,22.0653,22.6877,22.9929,22.9572,23.0841,23.1481,23.0989,23.2383,23.0941,22.6073,0.0,0.0,0.0,0.0,0.0,0.0,0.0,0.0,0.0,0.0,0.0,0.0,0.0,0.0,0.0,0.0,0.0,0.0,0.0,0.0,0.0,0.0,0.0,0.0,0.0,0.0,19.6204,20.6103,21.1728,0.0,0.0,0.0,0.0,0.0,0.0,0.0,0.0,0.0,21.234,22.0111,22.5871,22.7529,23.0083,23.1739,23.1739,23.1739,23.1739,23.1739,23.1598,23.0625,0.0,0.0,0.0,0.0,0.0,0.0,0.0,0.0,0.0,0.0,0.0,0.0,0.0,0.0,0.0,0.0,0.0,0.0,0.0,0.0,0.0,0.0,0.0,0.0,0.0,0.0,0.0,0.0,0.0,0.0,0.0,0.0,0.0,0.0,0.0,0.0,0.0,0.0,0.0,0.0,0.0,0.0,0.0,0.0,0.0,0.0,0.0,0.0,0.0,0.0,0.0,0.0,0.0,0.0,21.2006,21.7492,22.4748,22.896,22.9952,23.0368,23.0422,22.9775,22.8189,22.5182,0.0,0.0,0.0,0.0,0.0,0.0,0.0,0.0,0.0,0.0,0.0,0.0,0.0,0.0,0.0,0.0,0.0,0.0,0.0,0.0,0.0,0.0,0.0,0.0,0.0,0.0,0.0,0.0,20.7025,20.9595,20.5826,0.0,0.0,0.0,0.0,0.0,0.0,0.0,0.0,0.0,0.0,22.2296,22.5766,22.9378,23.1751,23.1751,23.1751,23.1751,23.1751,23.0919,22.8807,22.4571,0.0,0.0,0.0,0.0,0.0,0.0,0.0,0.0,0.0,0.0,0.0,0.0,0.0,0.0,0.0,0.0,0.0,0.0,0.0,0.0,0.0,0.0,0.0,0.0,0.0,0.0,0.0,0.0,0.0,0.0,0.0,0.0,0.0,0.0,0.0,0.0,0.0,0.0,0.0,0.0,0.0,0.0,0.0,0.0,0.0,0.0,0.0,0.0,0.0,0.0,0.0,0.0,0.0,20.9237,21.4585,22.2696,22.7316,22.8327,22.8897,22.9154,22.8832,22.628,22.2293,0.0,0.0,0.0,0.0,0.0,0.0,0.0,0.0,0.0,0.0,0.0,0.0,0.0,0.0,0.0,0.0,0.0,0.0,0.0,0.0,0.0,0.0,0.0,0.0,0.0,0.0,0.0,0.0,19.5914,19.9701,19.89,0.0,0.0,0.0,0.0,0.0,0.0,0.0,0.0,0.0,0.0,21.8967,22.3368,22.7951,0.0,0.0,23.0907,23.0907,23.0907,23.0638,22.8294,22.1986,21.7737,0.0,0.0,0.0,0.0,0.0,0.0,0.0,0.0,0.0,0.0,0.0,0.0,0.0,0.0,0.0,0.0,0.0,0.0,0.0,0.0,0.0,0.0,0.0,0.0,0.0,0.0,0.0,0.0,0.0,0.0,0.0,0.0,0.0,0.0,0.0,0.0,0.0,0.0,0.0,0.0,0.0,0.0,0.0,0.0,0.0,0.0,0.0,0.0,0.0,0.0,0.0,0.0,20.7325,21.1967,22.085,22.5484,22.5484,22.6888,22.7744,22.759,22.5747,22.1202,0.0,0.0,0.0,0.0,0.0,0.0,0.0,0.0,0.0,0.0,0.0,0.0,0.0,0.0,0.0,0.0,0.0,0.0,0.0,0.0,0.0,0.0,0.0,0.0,0.0,0.0,0.0,0.0,0.0,0.0,0.0,0.0,0.0,0.0,0.0,0.0,0.0,0.0,0.0,0.0,0.0,21.5953,22.0652,22.5939,22.9434,0.0,22.9434,22.9305,22.9049,23.0279,22.8138,21.9173,0.0,0.0,0.0,0.0,0.0,0.0,0.0,0.0,0.0,0.0,0.0,0.0,0.0,0.0,0.0,0.0,0.0,0.0,0.0,0.0,0.0,0.0,0.0,0.0,0.0,0.0,0.0,0.0,0.0,0.0,0.0,0.0,0.0,0.0,0.0,0.0,0.0,0.0,0.0,0.0,0.0,0.0,0.0,0.0,0.0,0.0,0.0,0.0,0.0,0.0,0.0,0.0,0.0,0.0,21.0372,22.0267,22.5484,22.5484,22.5901,22.6043,22.5901,21.9918,0.0,0.0,0.0,0.0,0.0,0.0,0.0,0.0,0.0,0.0,0.0,0.0,0.0,0.0,0.0,0.0,0.0,0.0,0.0,0.0,0.0,0.0,0.0,0.0,0.0,0.0,0.0,15.3825,0.0,0.0,0.0,0.0,0.0,0.0,0.0,0.0,0.0,0.0,0.0,0.0,0.0,0.0,21.2983,21.7416,22.3944,22.8204,0.0,0.0,22.7222,22.4052,22.5496,22.3292,0.0,0.0,0.0,0.0,0.0,0.0,0.0,0.0,0.0,0.0,0.0,0.0,0.0,0.0,0.0,0.0,0.0,0.0,0.0,0.0,0.0,0.0,0.0,0.0,0.0,0.0,0.0,0.0,0.0,0.0,0.0,0.0,0.0,0.0,0.0,0.0,0.0,0.0,0.0,0.0,0.0,0.0,0.0,0.0,0.0,0.0,0.0,0.0,0.0,0.0,0.0,0.0,0.0,0.0,20.025,20.689,21.7237,22.3377,22.4485,22.5198,22.5484,22.5484,21.792,21.201,0.0,0.0,0.0,0.0,0.0,0.0,0.0,0.0,0.0,0.0,0.0,0.0,0.0,0.0,0.0,0.0,0.0,0.0,0.0,0.0,0.0,0.0,0.0,0.0,0.0,0.0,0.0,0.0,0.0,0.0,0.0,0.0,0.0,0.0,0.0,0.0,0.0,0.0,0.0,0.0,0.0,0.0,21.5749,21.8698,0.0,0.0,0.0,22.4248,22.2567,0.0,0.0,0.0,0.0,0.0,0.0,0.0,0.0,0.0,0.0,0.0,0.0,0.0,0.0,0.0,0.0,0.0,0.0,0.0,0.0,0.0,0.0,0.0,0.0,0.0,0.0,0.0,0.0,0.0,0.0,0.0,0.0,0.0,0.0,0.0,0.0,0.0,0.0,0.0,0.0,0.0,0.0,0.0,0.0,0.0,0.0,0.0,0.0,0.0,0.0,0.0,0.0,0.0,0.0,0.0,0.0,0.0,20.2623,21.3143,21.989,22.2772,22.4485,22.5341,22.5341,21.8359,21.2115,0.0,0.0,0.0,0.0,0.0,0.0,0.0,0.0,0.0,0.0,0.0,0.0,0.0,0.0,0.0,0.0,0.0,0.0,0.0,0.0,0.0,0.0,0.0,0.0,0.0,0.0,0.0,0.0,0.0,0.0,0.0,0.0,0.0,0.0,0.0,0.0,0.0,0.0,0.0,0.0,0.0,19.9396,21.3954,21.2141,21.0167,0.0,0.0,21.9644,22.1517,22.1057,0.0,0.0,0.0,0.0,0.0,0.0,0.0,0.0,0.0,0.0,0.0,0.0,0.0,0.0,0.0,0.0,0.0,0.0,0.0,0.0,0.0,0.0,0.0,0.0,0.0,0.0,0.0,0.0,0.0,0.0,0.0,0.0,0.0,0.0,0.0,0.0,0.0,0.0,0.0,0.0,0.0,0.0,0.0,0.0,0.0,0.0,0.0,0.0,0.0,0.0,0.0,0.0,0.0,0.0,0.0,0.0,19.9351,20.9982,21.7316,22.1092,22.2761,22.4188,22.5341,22.0357,21.3665,0.0,0.0,0.0,0.0,0.0,0.0,0.0,0.0,0.0,0.0,0.0,0.0,0.0,0.0,0.0,0.0,0.0,0.0,0.0,0.0,0.0,0.0,0.0,0.0,0.0,0.0,0.0,0.0,0.0,0.0,0.0,0.0,0.0,0.0,0.0,0.0,0.0,0.0,0.0,0.0,0.0,19.4908,20.8432,20.7473,0.0,0.0,0.0,0.0,21.2734,20.8988,0.0,0.0,0.0,0.0,0.0,0.0,0.0,0.0,0.0,0.0,0.0,0.0,0.0,0.0,0.0,0.0,0.0,0.0,0.0,0.0,0.0,0.0,0.0,0.0,0.0,0.0,0.0,0.0,0.0,0.0,0.0,0.0,0.0,0.0,0.0,0.0,0.0,0.0,0.0,0.0,0.0,0.0,0.0,0.0,0.0,0.0,0.0,0.0,0.0,0.0,0.0,0.0,0.0,0.0,0.0,0.0,19.4768,20.4161,21.1803,21.7249,21.9775,22.163,22.3069,21.9479,21.3167,0.0,0.0,0.0,0.0,0.0,0.0,0.0,0.0,0.0,0.0,0.0,0.0,0.0,0.0,0.0,0.0,0.0,0.0,0.0,0.0,0.0,0.0,0.0,0.0,0.0,0.0,0.0,0.0,0.0,0.0,0.0,0.0,0.0,0.0,0.0,0.0,0.0,0.0,0.0,0.0,17.9131,18.3694,19.7068,0.0,0.0,0.0,0.0,0.0,0.0,20.2723,19.7634,0.0,0.0,0.0,0.0,0.0,0.0,0.0,0.0,0.0,0.0,0.0,0.0,0.0,0.0,0.0,0.0,0.0,0.0,0.0,0.0,0.0,0.0,0.0,0.0,0.0,0.0,0.0,0.0,0.0,0.0,0.0,0.0,0.0,0.0,0.0,0.0,0.0,0.0,0.0,0.0,0.0,0.0,0.0,0.0,0.0,0.0,0.0,0.0,0.0,0.0,0.0,0.0,0.0,0.0,0.0,18.8945,19.7379,20.5047,21.1766,21.5526,21.8063,21.9501,21.6678,21.0607,20.0854,0.0,0.0,0.0,0.0,0.0,0.0,0.0,0.0,0.0,0.0,0.0,0.0,0.0,0.0,0.0,0.0,0.0,0.0,0.0,0.0,0.0,0.0,0.0,0.0,0.0,0.0,0.0,0.0,0.0,0.0,0.0,0.0,0.0,0.0,0.0,0.0,0.0,0.0,0.0,16.6329,17.0998,0.0,0.0,0.0,0.0,0.0,0.0,0.0,0.0,19.0124,0.0,0.0,0.0,0.0,0.0,0.0,0.0,0.0,0.0,0.0,0.0,0.0,0.0,0.0,0.0,0.0,0.0,0.0,0.0,0.0,0.0,0.0,0.0,0.0,0.0,0.0,0.0,0.0,0.0,0.0,0.0,0.0,0.0,0.0,0.0,0.0,0.0,0.0,0.0,0.0,0.0,0.0,0.0,0.0,0.0,0.0,0.0,0.0,0.0,0.0,0.0,0.0,0.0,0.0,0.0,0.0,19.0021,19.813,20.4129,20.9666,21.3353,21.4791,21.2107,20.445,19.1538,0.0,0.0,0.0,0.0,0.0,0.0,0.0,0.0,0.0,0.0,0.0,0.0,0.0,0.0,0.0,0.0,0.0,0.0,0.0,0.0,0.0,0.0,0.0,0.0,0.0,0.0,0.0,0.0,0.0,0.0,0.0,0.0,0.0,0.0,0.0,0.0,0.0,0.0,14.3134,15.1516,0.0,0.0,0.0,0.0,0.0,0.0,0.0,0.0,17.9495,0.0,0.0,0.0,0.0,0.0,0.0,0.0,0.0,0.0,0.0,0.0,0.0,0.0,0.0,0.0,0.0,0.0,0.0,0.0,0.0,0.0,0.0,0.0,0.0,0.0,0.0,0.0,0.0,0.0,0.0,0.0,0.0,0.0,0.0,0.0,0.0,0.0,0.0,0.0,0.0,0.0,0.0,0.0,0.0,0.0,0.0,0.0,0.0,0.0,0.0,0.0,0.0,0.0,0.0,0.0,0.0,0.0,0.0,19.1871,19.7796,20.3917,20.7746,20.8707,20.093,19.2283,0.0,0.0,0.0,0.0,0.0,0.0,0.0,0.0,0.0,0.0,0.0,0.0,0.0,0.0,0.0,0.0,0.0,0.0,0.0,0.0,0.0,0.0,0.0,0.0,0.0,0.0,0.0,0.0,0.0,0.0,0.0,0.0,0.0,0.0,0.0,0.0,0.0,0.0,0.0,0.0,0.0,0.0,0.0,0.0,0.0,0.0,0.0,0.0,0.0,0.0,0.0,0.0,0.0,0.0,0.0,0.0,0.0,0.0,0.0,0.0,0.0,0.0,0.0,0.0,0.0,0.0,0.0,0.0,0.0,0.0,0.0,0.0,0.0,0.0,0.0,0.0,0.0,0.0,0.0,0.0,0.0,0.0,0.0,0.0,0.0,0.0,0.0,0.0,0.0,0.0,0.0,0.0,0.0,0.0,0.0,0.0,0.0,0.0,0.0,0.0,0.0,0.0,0.0,0.0,0.0,0.0,0.0,0.0,18.5135,19.0856,19.7685,20.1523,20.2514,18.9175,17.9492,0.0,0.0,0.0,0.0,0.0,0.0,0.0,0.0,0.0,0.0,0.0,0.0,0.0,0.0,0.0,0.0,0.0,0.0,0.0,0.0,0.0,0.0,0.0,0.0,0.0,0.0,0.0,0.0,0.0,0.0,0.0,0.0,0.0,0.0,0.0,0.0,0.0,0.0,0.0,0.0,0.0,0.0,0.0,0.0,0.0,0.0,0.0,0.0,16.352,0.0,0.0,0.0,0.0,0.0,0.0,0.0,0.0,0.0,0.0,0.0,0.0,0.0,0.0,0.0,0.0,0.0,0.0,0.0,0.0,0.0,0.0,0.0,0.0,0.0,0.0,0.0,0.0,0.0,0.0,0.0,0.0,0.0,0.0,0.0,0.0,0.0,0.0,0.0,0.0,0.0,0.0,0.0,0.0,0.0,0.0,0.0,0.0,0.0,0.0,0.0,0.0,0.0,0.0,0.0,0.0,0.0,0.0,0.0,17.6617,18.1639,19.0227,19.4786,19.448,18.0516,16.9744,0.0,0.0,0.0,0.0,0.0,0.0,0.0,0.0,0.0,0.0,0.0,0.0,0.0,0.0,0.0,0.0,0.0,0.0,0.0,0.0,0.0,0.0,0.0,0.0,0.0,0.0,0.0,0.0,0.0,0.0,0.0,0.0,0.0,0.0,0.0,0.0,0.0,0.0,0.0,0.0,0.0,0.0,0.0,0.0,0.0,0.0,0.0,0.0,0.0,0.0,0.0,0.0,0.0,0.0,0.0,0.0,0.0,0.0,0.0,0.0,0.0,0.0,0.0,0.0,0.0,0.0,0.0,0.0,0.0,0.0,0.0,0.0,0.0,0.0,0.0,0.0,0.0,0.0,0.0,0.0,0.0,0.0,0.0,0.0,0.0,0.0,0.0,0.0,0.0,0.0,0.0,0.0,0.0,0.0,0.0,0.0,0.0,0.0,0.0,0.0,0.0,0.0,0.0,0.0,0.0,0.0,0.0,0.0,16.7882,17.3509,18.0854,18.2225,17.7208,16.7976,16.0592,0.0,0.0,0.0,0.0,0.0,0.0,0.0,0.0,0.0,0.0,0.0,0.0,0.0,0.0,0.0,0.0,0.0,0.0,0.0,0.0,0.0,0.0,0.0,0.0,0.0,0.0,0.0,0.0,0.0,0.0,0.0,0.0,0.0,0.0,0.0,0.0,0.0,0.0,0.0,0.0,0.0,0.0,0.0,0.0,0.0,0.0,0.0,0.0,0.0,0.0,0.0,0.0,0.0,0.0,0.0,0.0,0.0,0.0,0.0,0.0,0.0,0.0,0.0,0.0,0.0,0.0,0.0,0.0,0.0,0.0,0.0,0.0,0.0,0.0,0.0,0.0,0.0,0.0,0.0,0.0,0.0,0.0,0.0,0.0,0.0,0.0,0.0,0.0,0.0,0.0,0.0,0.0,0.0,0.0,0.0,0.0,0.0,0.0,0.0,0.0,0.0,0.0,0.0,0.0,0.0,0.0,0.0,0.0,0.0,16.5012,16.8605,16.7211,16.0652,15.5995,15.1223,0.0,0.0,0.0,0.0,0.0,0.0,0.0,0.0,0.0,0.0,0.0,0.0,0.0,0.0,0.0,0.0,0.0,0.0,0.0,0.0,0.0,0.0,0.0,0.0,0.0,0.0,0.0,0.0,0.0,0.0,0.0,0.0,0.0,0.0,0.0,0.0,0.0,0.0,0.0,0.0,0.0,0.0,0.0,0.0,0.0,0.0,0.0,0.0,0.0,0.0,0.0,0.0,0.0,0.0,0.0,0.0,0.0,0.0,0.0,0.0,0.0,0.0,0.0,0.0,0.0,0.0,0.0,0.0,0.0,0.0,0.0,0.0,0.0,0.0,0.0,0.0,0.0,0.0,0.0,0.0,0.0,0.0,0.0,0.0,0.0,0.0,0.0,0.0,0.0,0.0,0.0,0.0,0.0,0.0,0.0,0.0,0.0,0.0,0.0,0.0,0.0,0.0,0.0,0.0,0.0,0.0,0.0,0.0,0.0,15.5975,15.1938,14.9635,14.9092,14.5868,14.1178,0.0,0.0,0.0,0.0,0.0,0.0,0.0,0.0,0.0,0.0,0.0,0.0,0.0,0.0,0.0,0.0,0.0,0.0,0.0,0.0,0.0,0.0,0.0,0.0,0.0,0.0,0.0,0.0,0.0,0.0,0.0,0.0,0.0,0.0,0.0,0.0,0.0,0.0,0.0,0.0,0.0,0.0,0.0,0.0,0.0,0.0,0.0,0.0,0.0,0.0,0.0,0.0,0.0,0.0,0.0,0.0,0.0,0.0,0.0,0.0,0.0,0.0,0.0,0.0,0.0,0.0,0.0,0.0,0.0,0.0,0.0,0.0,0.0,0.0,0.0,0.0,0.0,0.0,0.0,0.0,0.0,0.0,0.0,0.0,0.0,0.0,0.0,0.0,0.0,0.0,0.0,0.0,0.0,0.0,0.0,0.0,0.0,0.0,0.0,0.0,0.0,0.0,0.0,0.0,0.0,0.0,0.0,0.0,0.0,13.9376,13.9386,13.8949,13.8082,13.5883,13.258,12.8471,0.0,0.0,0.0,0.0,0.0,0.0,0.0,0.0,0.0,0.0,0.0,0.0,0.0,0.0,0.0,0.0,0.0,0.0,0.0,0.0,0.0,0.0,0.0,0.0,0.0,0.0,0.0,0.0,0.0,0.0,0.0,0.0,0.0,0.0,0.0,0.0,0.0,0.0,0.0,0.0,0.0,0.0,0.0,0.0,0.0,0.0,0.0,0.0,0.0,0.0,0.0,0.0,0.0,0.0,0.0,0.0,0.0,0.0,0.0,0.0,0.0,0.0,0.0,0.0,0.0,0.0,0.0,0.0,0.0,0.0,0.0,0.0,0.0,0.0,0.0,0.0,0.0,0.0,0.0,0.0,0.0,0.0,0.0,0.0,0.0,0.0,0.0,0.0,0.0,0.0,0.0,0.0,0.0,0.0,0.0,0.0,0.0,0.0,0.0,0.0,0.0,0.0,0.0,0.0,0.0,0.0,0.0,0.0,12.7737,13.006,13.0773,12.9912,12.83,12.5957,0.0,0.0,0.0,0.0,0.0,0.0,0.0,0.0,0.0,0.0,0.0,0.0,0.0,0.0,0.0,0.0,0.0,0.0,0.0,0.0,0.0,0.0,0.0,0.0,0.0,0.0,0.0,0.0,0.0,0.0,0.0,0.0,0.0,0.0,0.0,0.0,0.0,0.0,0.0,0.0,0.0,0.0,0.0,0.0,0.0,0.0,0.0,0.0,0.0,0.0,0.0,0.0,0.0,0.0,0.0,0.0,0.0,0.0,0.0,0.0,0.0,0.0,0.0,0.0,0.0,0.0,0.0,0.0,0.0,0.0,0.0,0.0,0.0,0.0,0.0,0.0,0.0,0.0,0.0,0.0,0.0,0.0,0.0,0.0,0.0,0.0,0.0,0.0,0.0,0.0,0.0,0.0,0.0,0.0,0.0,0.0,0.0,0.0,0.0,0.0,0.0,0.0,0.0,0.0,0.0,0.0,0.0,0.0,11.7942,12.2472,12.4234,12.4959,12.4978,12.3343,12.1149,0.0,0.0,0.0,0.0,0.0,0.0,0.0,0.0,0.0,0.0,0.0,0.0,0.0,0.0,0.0,0.0,0.0,0.0,0.0,0.0,0.0,0.0,0.0,0.0,0.0,0.0,0.0,0.0,0.0,0.0,0.0,0.0,0.0,0.0,0.0,0.0,0.0,0.0,0.0,0.0,0.0,0.0,0.0,0.0,0.0,0.0,0.0,0.0,0.0,0.0,0.0,0.0,0.0,0.0,0.0,0.0,0.0,0.0,0.0,0.0,0.0,0.0,0.0,0.0,0.0,0.0,0.0,0.0,0.0,0.0,0.0,0.0,0.0,0.0,0.0,0.0,0.0,0.0,0.0,0.0,0.0,0.0,0.0,0.0,0.0,0.0,0.0,0.0,0.0,0.0,0.0,0.0,0.0,0.0,0.0,0.0,0.0,0.0,0.0,0.0,0.0,0.0,0.0,0.0,0.0,0.0,0.0,0.0,0.0,11.6036,0.0,11.7956,0.0,11.6337,11.5169,0.0,0.0,0.0,0.0,0.0,0.0,0.0,0.0,0.0,0.0,0.0,0.0,0.0,0.0,0.0,0.0,0.0,0.0,0.0,0.0,0.0,0.0,0.0,0.0,0.0,0.0,0.0,0.0,0.0,0.0,0.0,0.0,0.0,0.0,0.0,0.0,0.0,0.0,0.0,0.0,0.0,0.0,0.0,0.0,0.0,0.0,0.0,0.0,0.0,0.0,0.0,0.0,0.0,0.0,0.0,0.0,0.0,0.0,0.0,0.0,0.0,0.0,0.0,0.0,0.0,0.0,0.0,0.0,0.0,0.0,0.0,0.0,0.0,0.0,0.0,0.0,0.0,0.0,0.0,0.0,0.0,0.0,0.0,0.0,0.0,0.0,0.0,0.0,0.0,0.0,0.0,0.0,0.0,0.0,0.0,0.0,0.0,0.0,0.0,0.0,0.0,0.0,0.0,0.0,0.0,0.0,0.0,0.0,0.0,11.121,11.2683,11.3139,11.2104,11.2099,11.1374,0.0,0.0,0.0,0.0,0.0,0.0,0.0,0.0,0.0,0.0,0.0,0.0,0.0,0.0,0.0,0.0,0.0,0.0,0.0,0.0,0.0,0.0,0.0,0.0,0.0,0.0,0.0,0.0,0.0,0.0,0.0,0.0,0.0,0.0,0.0,0.0,0.0,0.0,0.0,0.0,0.0,0.0,0.0,0.0,0.0,0.0,0.0,0.0,0.0,0.0,0.0,0.0,0.0,0.0,0.0,0.0,0.0,0.0,0.0,0.0,0.0,0.0,0.0,0.0,0.0,0.0,0.0,0.0,0.0,0.0,0.0,0.0,0.0,0.0,0.0,0.0,0.0,0.0,0.0,0.0,0.0,0.0,0.0,0.0,0.0,0.0,0.0,0.0,0.0,0.0,0.0,0.0,0.0,0.0,0.0,0.0,0.0,0.0,0.0,0.0,0.0,0.0,0.0,0.0,0.0,0.0,0.0,0.0,0.0,0.0,10.9334,11.0223,11.0073,11.0219,10.9485,0.0,0.0,0.0,0.0,0.0,0.0,0.0,0.0,0.0,0.0,0.0,0.0,0.0,0.0,0.0,0.0,0.0,0.0,0.0,0.0,0.0,0.0,0.0,0.0,0.0,0.0,0.0,0.0,0.0,0.0,0.0,0.0,0.0,0.0,0.0,0.0,0.0,0.0,0.0,0.0,0.0,0.0,0.0,0.0,0.0,0.0,0.0,0.0,0.0,0.0,0.0,0.0,0.0,0.0,0.0,0.0,0.0,0.0,0.0,0.0,0.0,0.0,0.0,0.0,0.0,0.0,0.0,0.0,0.0,0.0,0.0,0.0,0.0,0.0,0.0,0.0,0.0,0.0,0.0,0.0,0.0,0.0,0.0,0.0,0.0,0.0,0.0,0.0,0.0,0.0,0.0,0.0,0.0,0.0,0.0,0.0,0.0,0.0,0.0,0.0,0.0,0.0,0.0,0.0,0.0,0.0,0.0,0.0,0.0,0.0,10.3341,0.0,10.3495,10.3491,10.335,10.2895,0.0,0.0,0.0,0.0,0.0,0.0,0.0,0.0,0.0,0.0,0.0,0.0,0.0,0.0,0.0,0.0,0.0,0.0,0.0,0.0,0.0,0.0,0.0,0.0,0.0,0.0,0.0,0.0,0.0,0.0,0.0,0.0,0.0,0.0,0.0,0.0,0.0,0.0,0.0,0.0,0.0,0.0,0.0,0.0,0.0,0.0,0.0,0.0,0.0,0.0,0.0,0.0,0.0,0.0,0.0,0.0,0.0,0.0,0.0,0.0,0.0,0.0,0.0,0.0,0.0,0.0,0.0,0.0,0.0,0.0,0.0,0.0,0.0,0.0,0.0,0.0,0.0,0.0,0.0,0.0,0.0,0.0,0.0,0.0,0.0,0.0,0.0,0.0,0.0,0.0,0.0,0.0,0.0,0.0,0.0,0.0,0.0,0.0,0.0,0.0,0.0,0.0,0.0,0.0,0.0,0.0,0.0,0.0,0.0,0.0,10.0868,10.0868,10.0868,10.0868,0.0,0.0,0.0,0.0,0.0,0.0,0.0,0.0,0.0,0.0,0.0,0.0,0.0,0.0,0.0,0.0,0.0,0.0,0.0,0.0,0.0,0.0,0.0,0.0,0.0,0.0,0.0,0.0,0.0,0.0,0.0,0.0,0.0,0.0,0.0,0.0,0.0,0.0,0.0,0.0,0.0,0.0,0.0,0.0,0.0,0.0,0.0,0.0,0.0,0.0,0.0,0.0,0.0,0.0,0.0,0.0,0.0,0.0,0.0,0.0,0.0,0.0,0.0,0.0,0.0,0.0,0.0,0.0,0.0,0.0,0.0,0.0,0.0,0.0,0.0,0.0,0.0,0.0,0.0,0.0,0.0,0.0,0.0,0.0,0.0,0.0,0.0,0.0,0.0,0.0,0.0,0.0,0.0,0.0,0.0,0.0,0.0,0.0,0.0,0.0,0.0,0.0,0.0,0.0,0.0,0.0,0.0,0.0,0.0,0.0,0.0,10.0426,10.0426,10.0426,0.0,10.043,0.0,0.0,0.0,0.0,0.0,0.0,0.0,0.0,0.0,0.0,0.0,0.0,0.0,0.0,0.0,0.0,0.0,0.0,0.0,0.0,0.0,0.0,0.0,0.0,0.0,0.0,0.0,0.0,0.0,0.0,0.0,0.0,0.0,0.0,0.0,0.0,0.0,0.0,0.0,0.0,0.0,0.0,0.0,0.0,0.0,0.0,0.0,0.0,0.0,0.0,0.0,0.0,0.0,0.0,0.0,0.0,0.0,0.0,0.0,0.0,0.0,0.0,0.0,0.0,0.0,0.0,0.0,0.0,0.0,0.0,0.0,0.0,0.0,0.0,0.0,0.0,0.0,0.0,0.0,0.0,0.0,0.0,0.0,0.0,0.0,0.0,0.0,0.0,0.0,0.0,0.0,0.0,0.0,0.0,0.0,0.0,0.0,0.0,0.0,0.0,0.0,0.0,0.0,0.0,0.0,0.0,0.0,0.0,0.0,0.0,0.0,0.0,9.7219,9.7361,9.7222,0.0,0.0,0.0,0.0,0.0,0.0,0.0,0.0,0.0,0.0,0.0,0.0,0.0,0.0,0.0,0.0,0.0,0.0,0.0,0.0,0.0,0.0,0.0,0.0,0.0,0.0,0.0,0.0,0.0,0.0,0.0,0.0,0.0,0.0,0.0,0.0,0.0,0.0,0.0,0.0,0.0,0.0,0.0,0.0,0.0,0.0,0.0,0.0,0.0,0.0,0.0,0.0,0.0,0.0,0.0,0.0,0.0,0.0,0.0,0.0,0.0,0.0,0.0,0.0,0.0,0.0,0.0,0.0,0.0,0.0,0.0,0.0,0.0,0.0,0.0,0.0,0.0,0.0,0.0,0.0,0.0,0.0,0.0,0.0,0.0,0.0,0.0,0.0,0.0,0.0,0.0,0.0,0.0,0.0,0.0,0.0,0.0,0.0,0.0,0.0,0.0,0.0,0.0,0.0,0.0,0.0,0.0,0.0,0.0,0.0,9.6201,9.6201,9.6201,9.6201,9.6201,0.0,0.0,0.0,0.0,0.0,0.0,0.0,0.0,0.0,0.0,0.0,0.0,0.0,0.0,0.0,0.0,0.0,0.0,0.0,0.0,0.0,0.0,0.0,0.0,0.0,0.0,0.0,0.0,0.0,0.0,0.0,0.0,0.0,0.0,0.0,0.0,0.0,0.0,0.0,0.0,0.0,0.0,0.0,0.0,0.0,0.0,0.0,0.0,0.0,0.0,0.0,0.0,0.0,0.0,0.0,0.0,0.0,0.0,0.0,0.0,0.0,0.0,0.0,0.0,0.0,0.0,0.0,0.0,0.0,0.0,0.0,0.0,0.0,0.0,0.0,0.0,0.0,0.0,0.0,0.0,0.0,0.0,0.0,0.0,0.0,0.0,0.0,0.0,0.0,0.0,0.0,0.0,0.0,0.0,0.0,0.0,0.0,0.0,0.0,0.0,0.0,0.0,0.0,0.0,0.0,0.0,0.0,0.0,0.0,0.0,0.0,0.0,0.0,0.0,9.5613,0.0,0.0,0.0,0.0,0.0,0.0,0.0,0.0,0.0,0.0,0.0,0.0,0.0,0.0,0.0,0.0,0.0,0.0,0.0,0.0,0.0,0.0,0.0,0.0,0.0,0.0,0.0,0.0,0.0,0.0,0.0,0.0,0.0,0.0,0.0,0.0,0.0,0.0,0.0,0.0,0.0,0.0,0.0,0.0,0.0,0.0,0.0,0.0,0.0,0.0,0.0,0.0,0.0,0.0,0.0,0.0,0.0,0.0,0.0,0.0,0.0,0.0,0.0,0.0,0.0,0.0,0.0,0.0,0.0,0.0,0.0,0.0,0.0,0.0,0.0,0.0,0.0,0.0,0.0,0.0,0.0,0.0,0.0,0.0,0.0,0.0,0.0,0.0,0.0,0.0,0.0,0.0,0.0,0.0,0.0,0.0,0.0,0.0,0.0,0.0,0.0,0.0,0.0,0.0,0.0,0.0,0.0,0.0,0.0,0.0,0.0,0.0,0.0,0.0,0.0,0.0,0.0,0.0,0.0,0.0,0.0,0.0,0.0,0.0,0.0,0.0,0.0,0.0,0.0,0.0,0.0,0.0,0.0,0.0,0.0,0.0,0.0,0.0,0.0,0.0,0.0,0.0,0.0,0.0,0.0,0.0,0.0,0.0,0.0,0.0,0.0,0.0,0.0,0.0,0.0,0.0,0.0,0.0,0.0,0.0,0.0,0.0,0.0,0.0,0.0,0.0,0.0,0.0,0.0,0.0,0.0,0.0,0.0,0.0,0.0,0.0,0.0,0.0,0.0,0.0,0.0,0.0,0.0,0.0,0.0,0.0,0.0,0.0,0.0,0.0,0.0,0.0,0.0,0.0,0.0,0.0,0.0,0.0,0.0,0.0,0.0,0.0,0.0,0.0,0.0,0.0,0.0,0.0,0.0,0.0,0.0,0.0,0.0,0.0,0.0,0.0,0.0,0.0,0.0,0.0,0.0,0.0,0.0,0.0,0.0,0.0,0.0,0.0,0.0,0.0,0.0,0.0,0.0,0.0,0.0,0.0,0.0,0.0,0.0,0.0,0.0,0.0,0.0,0.0,0.0,0.0,0.0,0.0,0.0,0.0,0.0,0.0,0.0,0.0,0.0,0.0,0.0,0.0,0.0,0.0,0.0,0.0,0.0,0.0,0.0,0.0,0.0,0.0,0.0,0.0,0.0,0.0,0.0,0.0,0.0,0.0,0.0,0.0,0.0,0.0,0.0,0.0,0.0,0.0,0.0,0.0,0.0,0.0,0.0,0.0,0.0,0.0,0.0,0.0,0.0,0.0,0.0,0.0,0.0,0.0,0.0,0.0,0.0,0.0,0.0,0.0,0.0,0.0,0.0,0.0,0.0,0.0,0.0,0.0,0.0,0.0,0.0,0.0,0.0,0.0,0.0,0.0,0.0,0.0,0.0,0.0,0.0,0.0,0.0,0.0,0.0,0.0,0.0,0.0,0.0,0.0,0.0,0.0,0.0,0.0,0.0,0.0,0.0,0.0,0.0,0.0,0.0,0.0,0.0,0.0,0.0,0.0,0.0,0.0,0.0,0.0,0.0,0.0,0.0,0.0,0.0,0.0,0.0,0.0,0.0,0.0,0.0,0.0,0.0,0.0,0.0,0.0,0.0,0.0,0.0,0.0,0.0,0.0,0.0,0.0,0.0,0.0,0.0,0.0,0.0,0.0,0.0,0.0,0.0,0.0,0.0,0.0,0.0,0.0,0.0,0.0,0.0,0.0,0.0,0.0,0.0,0.0,0.0,0.0,0.0,0.0,0.0,0.0,0.0,0.0,0.0,0.0,0.0,0.0,0.0,0.0,0.0,0.0,0.0,0.0,0.0,0.0,0.0,0.0,0.0,0.0,0.0,0.0,0.0,0.0,0.0,0.0,0.0,0.0,0.0,0.0,0.0,0.0,0.0,0.0,0.0,0.0,0.0,0.0,0.0,0.0,0.0,0.0,0.0,0.0,0.0,0.0,0.0,0.0,0.0,0.0,0.0,0.0,0.0,0.0,0.0,0.0,0.0,0.0,0.0,0.0,0.0,0.0,0.0,0.0,0.0,0.0,0.0,0.0,0.0,0.0,0.0,0.0,0.0,0.0,0.0,0.0,0.0,0.0,0.0,0.0,0.0,0.0,0.0,0.0,0.0,0.0,0.0,0.0,0.0,0.0,0.0,0.0,0.0,0.0,0.0,0.0,0.0,0.0,0.0,0.0,0.0,0.0,0.0,0.0,0.0,0.0,0.0,0.0,0.0,0.0,0.0,0.0,0.0,0.0,0.0,0.0,0.0,0.0,0.0,0.0,0.0,0.0,0.0,0.0,0.0,0.0,0.0,0.0,0.0,0.0,0.0,0.0,0.0,0.0,0.0,0.0,0.0,0.0,0.0,0.0,0.0,0.0,0.0,0.0,0.0,0.0,0.0,0.0,0.0,0.0,0.0,0.0,0.0,0.0,0.0,0.0,0.0,0.0,0.0,0.0,0.0,0.0,0.0,0.0,0.0,0.0,0.0,0.0,0.0,0.0,0.0,0.0,0.0,0.0,0.0,0.0,0.0,0.0,0.0,0.0,0.0,0.0,0.0,0.0,0.0,0.0,0.0,0.0,0.0,0.0,0.0,0.0,0.0,0.0,0.0,0.0,0.0,0.0,0.0,0.0,0.0,0.0,0.0,0.0,0.0,0.0,0.0,0.0,0.0,0.0,0.0,0.0,0.0,0.0,0.0,0.0,0.0,0.0,0.0,0.0,0.0,0.0,0.0,0.0,0.0,0.0,0.0,0.0,0.0,0.0,0.0,0.0,0.0,0.0,0.0,0.0,0.0,0.0,0.0,0.0,0.0,0.0,0.0,0.0,0.0,0.0,0.0,0.0,0.0,0.0,0.0,0.0,0.0,0.0,0.0,0.0,0.0,0.0,0.0,0.0,0.0,0.0,0.0,0.0,0.0,0.0,0.0,0.0,0.0,0.0,0.0,0.0,0.0,0.0,0.0,0.0,0.0,0.0,0.0,0.0,0.0,0.0,0.0,0.0,0.0,0.0,0.0,0.0,0.0,0.0,0.0,0.0,0.0,0.0,0.0,0.0,0.0,0.0,0.0,0.0,0.0,0.0,0.0,0.0,0.0,0.0,0.0,0.0,0.0,0.0,0.0,0.0,0.0,0.0,0.0,0.0,0.0,0.0,0.0,0.0,0.0,0.0,0.0,0.0,0.0,0.0,0.0,0.0,0.0,0.0,0.0,0.0,0.0,0.0,0.0,0.0,0.0,0.0,0.0,0.0,0.0,0.0,0.0,0.0,0.0,0.0,0.0,0.0,0.0,0.0,0.0,0.0,0.0,0.0,0.0,0.0,0.0,0.0,0.0,0.0,0.0,0.0,0.0,0.0,0.0,0.0,0.0,0.0,0.0,0.0,0.0,0.0,0.0,0.0,0.0,0.0,0.0,0.0,0.0,0.0,0.0,0.0,0.0,0.0,0.0,0.0,0.0,0.0,0.0,0.0,0.0,0.0,0.0,0.0,0.0,0.0,0.0,0.0,0.0,0.0,0.0,0.0,0.0,0.0,0.0,0.0,0.0,0.0,0.0,0.0,0.0,0.0,0.0,0.0,0.0,0.0,0.0,0.0,0.0,0.0,0.0,0.0,0.0,0.0,0.0,0.0,0.0,0.0,0.0,0.0,0.0,0.0,0.0,0.0,0.0,0.0,0.0,0.0,0.0,0.0,0.0,0.0,0.0,0.0,0.0,0.0,0.0,0.0,0.0,0.0,0.0,0.0,0.0,0.0,0.0,0.0,0.0,0.0,0.0,0.0,0.0,0.0,0.0,0.0,0.0,0.0,0.0,0.0,0.0,0.0,0.0,0.0,0.0,0.0,0.0,0.0,0.0,0.0,0.0,0.0,0.0,0.0,0.0,0.0,0.0,0.0,0.0,0.0,0.0,0.0,0.0,0.0,0.0,0.0,0.0,0.0,0.0,0.0,0.0,0.0,0.0,0.0,0.0,0.0,0.0,0.0,0.0,0.0,0.0,0.0,0.0,0.0,0.0,0.0,0.0,0.0,0.0,0.0,0.0,0.0,0.0,0.0,0.0,0.0,0.0,0.0,0.0,0.0,0.0,0.0,0.0,0.0,0.0,0.0,0.0,0.0,0.0,0.0,0.0,0.0,0.0,0.0,0.0,0.0,0.0,0.0,0.0,0.0,0.0,0.0,0.0,0.0,0.0,0.0,0.0,0.0,0.0,0.0,0.0,0.0,0.0,0.0,0.0,0.0,0.0,0.0,0.0,0.0,0.0,0.0,0.0,0.0,0.0,0.0,0.0,0.0,0.0,0.0,0.0,0.0,0.0,0.0]}],[{"header":{"parameterUnit":"kt","parameterCategory":2,"dx":1,"dy":1,"la1":29.587661999999998,"la2":31.0,"lo1":-88.76705300000003,"lo2":-86.6583820000003,"nx":115,"ny":88,"refTime":"2022-09-27T12:00:00:Z","depth":0,"parameterNumber":2,"parameterNumberName":"V-component_of_WINDS"},"data":[14.2034,14.1341,14.108,14.0625,14.0017,13.9941,14.0321,14.108,14.1916,14.2599,14.3316,14.3966,14.4379,14.3882,14.4607,14.4953,14.4877,14.4953,14.4953,14.4953,14.4953,14.4953,14.4953,14.4953,14.4953,14.4953,14.4953,14.4953,14.4953,14.4953,14.4953,14.4953,14.4953,14.4953,14.4953,14.4953,14.4816,14.3993,14.3444,14.1067,13.7146,13.3688,12.8612,12.7259,12.7153,12.7153,12.6886,12.6287,12.6088,12.5888,12.5758,12.5362,12.5378,12.5491,12.6597,12.8401,12.9056,13.0374,13.2254,13.4143,13.4734,13.5223,13.7703,13.9715,14.1357,14.2594,14.2188,14.2566,14.1936,14.197,14.339,14.339,14.461,14.461,14.4919,14.4953,14.4953,14.5105,14.5181,14.5408,14.5712,14.5981,14.6361,14.6927,14.761,14.8177,14.8446,14.8901,14.9357,14.966,14.9812,14.9888,15.0076,15.0076,15.0076,15.0076,15.0076,15.0076,15.0227,15.0455,15.0648,15.0799,15.0875,15.1027,15.1519,15.205,15.243,15.2546,15.3153,15.3837,15.4408,15.4787,15.4939,15.4863,15.4863,14.1991,14.1265,14.0506,14.005,13.9941,13.9941,14.0017,14.0354,14.108,14.1612,14.184,14.2523,14.3282,14.362,14.4034,14.4455,14.4725,14.4835,14.4953,14.4953,14.4953,14.4953,14.4953,14.4953,14.4953,14.4953,14.4953,14.4953,14.4953,14.4953,14.4953,14.4953,14.4953,14.4953,14.4953,14.4953,14.4953,14.4027,14.1447,13.8189,13.5473,13.2986,12.9638,12.7792,12.7153,12.7153,12.6687,12.6287,12.6088,12.5954,12.5853,12.5022,12.4357,12.4059,12.5022,12.5426,12.618,12.7132,12.8539,13.0675,13.1238,13.2255,13.5015,13.7171,13.909,13.9395,13.8331,13.7776,13.673,13.711,13.9361,14.078,14.2732,14.3918,14.4542,14.4953,14.4953,14.5029,14.5029,14.5029,14.5332,14.5526,14.5829,14.6133,14.6775,14.7417,14.7873,14.8218,14.8597,14.8977,14.924,14.9392,14.962,14.9848,15.0,15.0,15.0076,15.0076,15.0076,15.0076,15.0152,15.0344,15.042,15.042,15.0496,15.0951,15.1331,15.1862,15.2622,15.3381,15.3837,15.4065,15.4292,15.4672,15.4824,14.1156,14.1232,14.0852,14.0397,14.0017,13.9941,13.9941,14.0093,14.0928,14.1004,14.0701,14.146,14.2295,14.2979,14.3054,14.3662,14.4835,14.4641,14.4683,14.4877,14.4953,14.4953,14.4953,14.4953,14.4953,14.4953,14.4953,14.4953,14.4953,14.4953,14.4953,14.4953,14.4953,14.4953,14.4953,14.4953,14.4953,14.4679,14.1102,13.7216,13.3337,13.0804,12.8254,12.7863,12.7153,12.7153,12.6753,12.6252,12.5888,12.5622,12.5289,12.429,12.3723,12.3324,12.3457,12.379,12.4258,12.4658,12.5677,12.6949,12.7988,12.8698,13.0791,13.2917,13.4994,13.4251,13.3218,13.4642,13.3563,13.3663,13.5909,13.8388,14.0412,14.2423,14.3356,14.4432,14.4919,14.4953,14.4953,14.4953,14.5105,14.5256,14.5408,14.5678,14.5981,14.6547,14.6775,14.712,14.7914,14.8481,14.8557,14.8633,14.8936,14.9205,14.9357,14.962,14.9848,15.0,15.0076,15.0076,15.0076,15.0076,15.0076,15.0227,15.0268,15.0344,15.0648,15.1143,15.1903,15.2622,15.2926,15.3341,15.3837,15.4216,15.3913,14.0321,14.0928,14.1004,14.0625,13.9941,13.9941,13.9941,14.0017,14.0701,14.0549,14.0202,14.0734,14.146,14.211,14.2219,14.313,14.4227,14.4262,14.4379,14.4801,14.4953,14.4953,14.4953,14.4953,14.4953,14.4953,14.4953,14.4953,14.4953,14.4953,14.4953,14.4953,14.4953,14.4953,14.4953,14.4953,14.4165,14.3031,13.923,13.4879,13.2002,12.9214,12.7153,12.7153,12.7153,12.7153,12.6851,12.6385,12.5786,12.5324,12.449,12.3723,12.3156,12.289,12.2823,12.3023,12.3691,12.4125,12.4762,12.5467,12.5849,12.6379,12.7144,12.8708,12.9232,12.8371,12.8753,13.0618,13.1618,13.1891,13.296,13.5502,13.7914,13.999,14.189,14.3458,14.4884,14.4919,14.4953,14.4953,14.4953,14.5029,14.5029,14.5181,14.5408,14.5602,14.5829,14.6209,14.7079,14.7458,14.7569,14.7645,14.799,14.8446,14.8597,14.8825,14.9316,14.9544,14.9848,15.0,15.0076,15.0076,15.0076,15.0076,15.0076,15.0116,15.0344,15.0724,15.0992,15.1523,15.2014,15.2546,15.3001,15.3153,15.2886,14.005,14.0093,14.0093,14.0017,13.9941,13.9941,13.9941,13.9941,14.0093,14.005,14.0017,14.006,14.0625,14.146,14.146,14.2295,14.3392,14.3806,14.4,14.4953,14.4953,14.4953,14.4953,14.4953,14.4953,14.4953,14.4953,14.4953,14.4953,14.4953,14.4953,14.4953,14.4953,14.4953,14.4782,14.4576,14.2928,14.0614,13.645,13.2881,13.0839,12.8931,12.7153,12.7153,12.7153,12.7086,12.6918,12.6651,12.6252,12.6021,12.5355,12.4357,12.3957,12.359,12.3324,12.3425,12.3523,12.3891,12.429,12.4721,12.4591,12.4528,12.4835,12.6399,12.6682,12.5933,12.5616,12.6924,12.7786,12.8166,12.9339,13.1585,13.5086,13.7817,14.0249,14.2417,14.4021,14.4953,14.4953,14.4953,14.4953,14.4953,14.4953,14.5029,14.5256,14.5105,14.5332,14.556,14.6092,14.6395,14.6395,14.6395,14.7003,14.761,14.7873,14.8142,14.8633,14.9205,14.9585,14.9812,15.0076,15.0076,15.0076,15.0076,15.0076,15.0076,15.0076,15.0192,15.0496,15.084,15.1255,15.1822,15.1898,15.1787,15.1746,13.9941,13.9941,13.9941,13.9941,13.9941,13.9941,13.9941,13.9941,13.9941,13.9941,13.9941,13.9941,14.0473,14.1114,14.0852,14.1384,14.2903,14.3054,14.3544,14.4303,14.4759,14.4877,14.4953,14.4953,14.4953,14.4953,14.4953,14.4953,14.4953,14.4953,14.4953,14.4953,14.4953,14.4953,14.4336,14.3031,14.0929,13.732,13.4039,13.1086,12.9281,12.7792,12.7224,12.7153,12.7153,12.7153,12.7086,12.6918,12.6518,12.6052,12.5954,12.5121,12.4623,12.4024,12.3624,12.3124,12.3191,12.3457,12.3723,12.3989,12.3758,12.3558,12.3893,12.4587,12.4287,12.4256,12.3972,12.379,12.4163,12.4677,12.603,12.7857,13.1753,13.5586,13.8337,14.106,14.2903,14.45,14.4884,14.4884,14.4953,14.4953,14.4953,14.4953,14.4953,14.4953,14.5105,14.5256,14.5484,14.5636,14.5712,14.5712,14.6244,14.681,14.7114,14.7417,14.799,14.8597,14.9053,14.9468,15.0,15.0076,15.0,15.0,15.0076,15.0076,15.0076,15.004,15.0116,15.0192,15.0572,15.0911,15.0987,15.0911,15.1063,13.9941,13.9941,13.9941,13.9941,13.9941,13.9941,13.9941,13.9941,13.9941,13.9941,13.9941,13.9941,14.0245,14.0886,14.0278,14.0928,14.1688,14.2262,14.2936,14.362,14.4379,14.4725,14.4953,14.4953,14.4953,14.4953,14.4953,14.4953,14.4953,14.4953,14.4953,14.4953,14.4953,14.4953,14.365,14.1205,13.7911,13.4634,13.165,12.9355,12.7757,12.7295,12.7224,12.7153,12.7153,12.7153,12.7153,12.7086,12.6851,12.6252,12.5919,12.5755,12.5089,12.4357,12.3691,12.3023,12.2757,12.269,12.2723,12.3156,12.3289,12.3023,12.3156,12.309,12.3257,12.3395,12.3395,12.3523,12.3827,12.3627,12.4457,12.6067,12.8787,13.176,13.4049,13.7451,14.1261,14.2794,14.3993,14.4165,14.4953,14.4953,14.4953,14.4953,14.4953,14.4953,14.5029,14.5029,14.5105,14.5181,14.5181,14.5256,14.5636,14.5864,14.6168,14.6623,14.7307,14.7914,14.8253,14.8633,14.9164,14.962,14.9812,14.9888,15.0076,15.0076,15.0076,15.0076,15.0076,15.0152,15.0152,15.0152,15.0152,15.0227,15.0379,13.9941,13.9941,13.9941,13.9941,13.9941,13.9941,13.9941,13.9941,13.9941,13.9941,13.9941,13.9941,14.0017,14.0017,14.0017,14.0473,14.1232,14.146,14.2329,14.3316,14.3848,14.4379,14.4725,14.4953,14.4953,14.4953,14.4953,14.4953,14.4953,14.4953,14.4953,14.4953,14.4953,14.4542,14.2515,13.923,13.5053,13.2564,12.985,12.8045,12.7402,12.7153,12.7153,12.7153,12.7153,12.7153,12.7153,12.7153,12.7086,12.6687,12.5888,12.5755,12.5289,12.4556,12.409,12.359,12.3023,12.289,12.2823,12.2723,12.2723,12.2757,12.2789,12.3156,12.3289,12.3156,12.3257,12.339,12.3824,12.3324,12.3023,12.4827,12.6642,12.8785,13.0967,13.4679,13.8905,14.1203,14.2469,14.389,14.4679,14.4953,14.4953,14.4953,14.4953,14.4953,14.4953,14.4953,14.4953,14.4953,14.5029,14.5029,14.5105,14.5181,14.5408,14.5864,14.6471,14.7044,14.7383,14.7797,14.8405,14.886,14.924,14.9585,14.9924,15.0076,15.0076,15.0076,15.0076,15.0076,15.0152,15.0076,15.0076,15.0076,15.0076,13.9941,13.9941,13.9941,13.9941,13.9941,13.9941,13.9941,13.9941,13.9941,13.9941,13.9941,13.9941,13.9941,13.9941,13.9941,14.0278,14.0473,14.1004,14.2025,14.2143,14.3164,14.3848,14.4379,14.4725,14.4877,14.4953,14.4953,14.4953,14.4953,14.4953,14.4953,14.4953,14.4919,14.4027,14.0895,13.6972,13.26,13.1121,12.886,12.7153,12.7153,12.7153,12.7153,12.7153,12.7153,12.7086,12.7086,12.7153,12.7153,12.702,12.6687,12.6354,12.5821,12.5089,12.4423,12.3957,12.3523,12.3491,12.3191,12.3023,12.2723,12.2757,12.269,12.2823,12.2957,12.3223,12.3324,12.3457,12.4122,12.3656,12.3156,12.4224,12.6289,12.8715,13.1141,13.4305,13.799,13.9939,14.1482,14.3787,14.4919,14.4953,14.4953,14.4953,14.4953,14.4953,14.4953,14.4953,14.4953,14.4953,14.4953,14.5029,14.5029,14.5029,14.5181,14.5408,14.5678,14.6099,14.6513,14.6962,14.7569,14.8066,14.8633,14.9088,14.9468,14.9772,14.9924,15.0,14.9924,14.9924,15.0076,15.0076,15.0076,15.0076,15.0076,13.9941,13.9941,13.9941,13.9941,13.9941,13.9941,13.9941,13.9941,13.9941,13.9941,13.9941,13.9941,13.9941,13.9941,13.9941,13.9941,14.0093,14.0701,14.1232,14.1384,14.2329,14.3164,14.3882,14.4379,14.4725,14.4877,14.4953,14.4953,14.4953,14.4953,14.4953,14.4953,14.4747,14.3306,13.9753,13.5019,13.0804,12.9815,12.8502,12.7153,12.7153,12.7153,12.7153,12.7153,12.7153,12.6953,12.6687,12.6585,12.6585,12.662,12.5755,12.6021,12.6354,12.5355,12.4823,12.4756,12.4224,12.4192,12.3691,12.3191,12.2789,12.289,12.2924,12.269,12.2656,12.3191,12.309,12.3023,12.3489,12.3356,12.3023,12.3856,12.4776,12.7232,12.9301,13.2567,13.5669,13.7654,14.0061,14.2309,14.4816,14.4953,14.4953,14.4953,14.4953,14.4953,14.4953,14.4953,14.4953,14.4953,14.4953,14.4953,14.4953,14.4953,14.5029,14.5105,14.5408,14.5526,14.5864,14.6244,14.6775,14.7307,14.7838,14.8253,14.886,14.9281,14.9281,14.9357,14.9509,14.9812,14.9964,15.004,15.004,15.0076,15.0076,13.9941,13.9941,13.9941,13.9941,13.9941,13.9941,13.9941,13.9941,13.9941,13.9941,13.9941,13.9941,13.9941,13.9941,13.9941,13.9941,14.0017,14.0093,14.0397,14.1004,14.1645,14.2405,14.3164,14.3958,14.4303,14.4801,14.4953,14.4953,14.4953,14.4953,14.4953,14.4953,14.4747,14.3306,14.0065,13.4424,13.0098,12.7686,12.7473,12.7153,12.7153,12.7153,12.702,12.6953,12.6851,12.6554,12.6154,12.5986,12.5986,12.5888,12.5089,12.5222,12.6154,12.5222,12.4956,12.5254,12.4889,12.4423,12.3824,12.309,12.3023,12.3289,12.289,12.269,12.269,12.2757,12.269,12.2723,12.3023,12.2957,12.2723,12.289,12.309,12.4246,12.5558,12.8146,13.1454,13.4066,13.7139,13.968,14.2515,14.4747,14.4679,14.4782,14.4679,14.4542,14.4782,14.4953,14.4953,14.4953,14.4953,14.4953,14.4953,14.4953,14.4953,14.4953,14.4953,14.4953,14.5181,14.556,14.6016,14.6623,14.7003,14.7341,14.7873,14.8405,14.8597,14.8673,14.8673,14.886,14.9357,14.966,14.9964,14.9964,15.0076,13.9941,13.9941,13.9941,13.9941,13.9941,13.9941,13.9941,13.9941,13.9941,13.9941,13.9941,13.9941,13.9941,13.9941,13.9941,13.9941,13.9941,13.9941,14.0169,14.0473,14.0928,14.1536,14.2329,14.3122,14.3924,14.4227,14.4607,14.4953,14.4953,14.4953,14.4953,14.4953,14.4679,14.1757,13.7564,13.179,12.8147,12.733,12.7153,12.7153,12.7086,12.702,12.6953,12.6319,12.6319,12.5954,12.5488,12.5222,12.5222,12.5089,12.4823,12.469,12.4623,12.4423,12.3989,12.3856,12.379,12.3758,12.3257,12.2757,12.2823,12.3023,12.2757,12.2757,12.269,12.269,12.2557,12.259,12.3124,12.3257,12.2723,12.3356,12.3723,12.3356,12.4455,12.5922,12.9087,13.1627,13.4523,13.7042,13.9438,14.1826,14.224,14.3272,14.2825,14.2102,14.2687,14.3375,14.3616,14.3787,14.413,14.4507,14.4439,14.461,14.4953,14.4953,14.4953,14.4953,14.5029,14.5256,14.545,14.5981,14.6547,14.6623,14.7038,14.7493,14.7721,14.7721,14.7721,14.7873,14.8177,14.8446,14.886,14.9544,14.9696,13.9941,13.9941,13.9941,13.9941,13.9941,13.9941,13.9941,13.9941,13.9941,13.9941,13.9941,13.9941,13.9941,13.9941,13.9941,13.9941,13.9941,13.9941,13.9941,14.0169,14.0549,14.0962,14.1688,14.2633,14.3544,14.4,14.4607,14.4953,14.4953,14.4953,14.4953,14.4953,14.4953,14.124,13.7424,13.3162,12.9434,12.7921,12.6687,12.6487,12.642,12.6287,12.6088,12.5622,12.5622,12.5222,12.4623,12.4556,12.4525,12.4458,12.4157,12.429,12.4423,12.4056,12.3923,12.3923,12.3891,12.3691,12.3257,12.3191,12.2957,12.2823,12.269,12.269,12.269,12.2392,12.2325,12.2392,12.2626,12.2559,12.2358,12.3324,12.409,12.3856,12.4467,12.5794,12.7904,13.0092,13.2604,13.4213,13.645,13.8606,14.0026,14.1378,14.0372,13.9541,14.0791,14.1688,14.1723,14.1861,14.2825,14.3375,14.2894,14.2894,14.4679,14.4953,14.4953,14.4953,14.4953,14.5105,14.5181,14.5602,14.5829,14.5829,14.6092,14.6547,14.6775,14.6734,14.6734,14.6927,14.7155,14.7383,14.8066,14.8901,14.9129,13.9941,13.9941,13.9941,13.9941,13.9941,13.9941,13.9941,13.9941,13.9941,13.9941,13.9941,13.9941,13.9941,13.9941,13.9941,13.9941,13.9941,13.9941,13.9941,13.9941,14.0017,14.0473,14.108,14.1916,14.286,14.3468,14.4303,14.4725,14.4877,14.4725,14.4877,14.4953,14.4953,14.1235,13.728,13.4526,13.1694,12.6936,12.5954,12.5622,12.539,12.5191,12.5057,12.4956,12.4858,12.4591,12.3859,12.3758,12.3758,12.3758,12.3324,12.3289,12.3923,12.379,12.379,12.379,12.3723,12.3457,12.339,12.3324,12.3223,12.289,12.269,12.269,12.269,12.2059,12.1794,12.1861,12.1994,12.1928,12.2027,12.2192,12.2858,12.3057,12.3896,12.5116,12.6586,12.863,12.9981,13.1548,13.3267,13.5123,13.6659,13.7424,13.6833,13.6345,13.7357,13.9126,13.9264,13.9576,14.0752,14.1343,14.0895,14.1551,14.3547,14.413,14.3444,14.3306,14.437,14.4816,14.4919,14.5029,14.5256,14.5332,14.5484,14.5678,14.5829,14.5864,14.5864,14.6057,14.6285,14.6623,14.7231,14.7762,14.8142,13.9941,13.9941,13.9941,13.9941,13.9941,13.9941,13.9809,13.9875,13.971,13.9809,13.9941,13.971,13.9743,13.9941,13.9875,13.9941,13.9941,13.9941,13.9941,13.9941,14.0017,14.0126,14.0625,14.1232,14.1764,14.1949,14.3434,14.4,14.4076,14.4152,14.4455,14.4953,14.4486,14.1037,13.6843,13.448,13.1871,12.5881,12.5324,12.5124,12.4924,12.4924,12.4556,12.4325,12.4024,12.3723,12.309,12.2957,12.2957,12.2991,12.2757,12.2823,12.3289,12.3257,12.3223,12.3289,12.3289,12.3023,12.3023,12.3023,12.289,12.2757,12.269,12.269,12.259,12.2523,12.2291,12.1728,12.1661,12.1661,12.1728,12.1794,12.216,12.2658,12.3191,12.409,12.5102,12.6368,12.7712,12.9133,13.0565,13.2216,13.2847,13.3583,13.3653,13.3197,13.4389,13.624,13.6763,13.6902,13.7703,13.8258,13.7807,13.7876,13.9368,14.0337,14.1343,14.1826,14.3753,14.4679,14.4884,14.4953,14.4953,14.4953,14.5105,14.5256,14.5408,14.5256,14.5105,14.5332,14.5636,14.594,14.6168,14.6437,14.6892,13.629,13.6257,13.6257,13.6257,13.6257,13.629,13.6257,13.6257,13.629,13.6257,13.629,13.6257,13.7023,13.8219,13.9578,13.9875,13.9941,13.9941,13.9941,13.9941,13.9941,13.9941,14.0103,14.0852,14.1341,14.1688,14.2447,14.3164,14.2936,14.3054,14.3434,14.3576,14.2385,13.94,13.498,13.3218,12.9545,12.6421,12.4658,12.4357,12.409,12.3957,12.3723,12.339,12.3324,12.309,12.2823,12.269,12.269,12.269,12.269,12.269,12.269,12.269,12.269,12.269,12.269,12.269,12.269,12.269,12.269,12.269,12.269,12.269,12.259,12.2358,12.1926,12.1694,12.1661,12.1428,12.1228,12.1528,12.1827,12.216,12.2426,12.3326,12.4157,12.4823,12.5629,12.6792,12.8002,12.8534,12.91,12.9625,12.9728,12.9722,13.0878,13.2005,13.2426,13.3373,13.4353,13.4983,13.4809,13.4494,13.5542,13.6902,13.8154,14.051,14.2515,14.3616,14.4199,14.4953,14.4953,14.4953,14.4953,14.4953,14.5029,14.5029,14.5029,14.5029,14.4953,14.5256,14.556,14.5788,14.6092,13.1893,13.1246,13.1687,13.1486,13.1343,13.1444,13.1242,13.141,13.1683,13.1288,13.1884,13.1763,13.3246,13.5189,13.7621,13.8849,13.918,13.9081,13.8949,13.8882,13.8982,13.8982,13.9398,14.0353,14.0162,14.119,14.1916,14.1916,14.184,14.2143,14.2447,14.2068,14.0181,13.6617,13.3641,13.1271,12.7816,12.5148,12.4024,12.339,12.289,12.2823,12.2823,12.2757,12.2757,12.2757,12.269,12.269,12.269,12.269,12.269,12.269,12.269,12.269,12.269,12.269,12.269,12.269,12.269,12.269,12.269,12.269,12.269,12.269,12.2557,12.2259,12.196,12.1728,12.1661,12.1428,12.1161,12.1228,12.1494,12.1694,12.1928,12.2559,12.3425,12.4157,12.4823,12.5878,12.6085,12.6148,12.6416,12.6201,12.6052,12.6554,12.6993,12.7281,12.7953,12.9757,13.092,13.1828,13.1932,13.1826,13.2635,13.4284,13.6205,13.9091,14.0722,14.1999,14.3478,14.4953,14.4953,14.4816,14.4953,14.4953,14.4953,14.4953,14.4953,14.4953,14.4953,14.5029,14.5063,14.5105,14.5408,13.488,12.998,13.2715,13.2311,12.9942,12.9676,12.9576,12.9781,13.0018,13.0135,13.0541,13.094,13.1427,13.2339,13.3179,13.4553,13.6557,13.659,13.6557,13.659,13.659,13.6557,13.6557,13.7013,13.8095,13.9709,14.0556,14.146,14.0898,14.0825,14.1714,14.0664,13.9267,13.6433,13.269,12.9438,12.652,12.4254,12.289,12.2856,12.269,12.269,12.269,12.269,12.269,12.269,12.269,12.269,12.269,12.269,12.269,12.269,12.269,12.269,12.269,12.269,12.269,12.269,12.2624,12.2624,12.2557,12.2557,12.2624,12.269,12.2624,12.2525,12.2192,12.176,12.1728,12.1561,12.1361,12.1061,12.1161,12.1428,12.1728,12.1994,12.2826,12.3425,12.409,12.4357,12.4357,12.4693,12.5299,12.5222,12.5355,12.5755,12.599,12.6021,12.6397,12.7736,12.8361,12.9087,12.9432,12.9326,13.0274,13.2003,13.3723,13.645,13.8258,14.048,14.2619,14.4747,14.461,14.437,14.4473,14.4336,14.4816,14.4953,14.4953,14.4953,14.4953,14.4953,14.5029,14.5105,14.5105,13.1062,12.7749,12.7616,12.6638,12.5225,12.5092,12.5023,12.5058,12.537,12.5751,12.6129,12.6576,12.76,12.903,12.9337,13.0959,13.3045,13.3649,13.3649,13.3649,13.3683,13.3649,13.3649,13.5256,13.6623,13.7271,13.6927,13.6922,13.8394,13.7458,13.6432,13.6571,13.4272,13.1953,12.9662,12.724,12.4604,12.3407,12.269,12.269,12.269,12.269,12.269,12.269,12.269,12.269,12.269,12.269,12.269,12.269,12.269,12.269,12.2457,12.2057,12.1592,12.1626,12.1559,12.1626,12.1626,12.2059,12.2192,12.2192,12.2491,12.2624,12.269,12.2624,12.2457,12.2259,12.2126,12.1993,12.1728,12.1395,12.1328,12.1595,12.1294,12.166,12.2358,12.2658,12.3124,12.3523,12.359,12.379,12.429,12.449,12.4658,12.4791,12.4991,12.5222,12.5488,12.6078,12.6422,12.7039,12.7515,12.7646,12.8438,12.9358,13.0521,13.3373,13.5787,13.8779,14.1343,14.3753,14.4233,14.3238,14.3375,14.3203,14.3684,14.437,14.4747,14.4953,14.4953,14.4953,14.4953,14.4953,14.5029,12.5782,12.4466,12.2077,12.0666,12.0296,12.0196,12.0398,12.0162,12.0733,12.0796,12.1533,12.1631,12.3663,12.5292,12.6109,12.7434,12.909,13.0415,13.0723,13.0723,13.0723,13.0689,13.0992,13.2373,13.3537,13.3504,13.3213,13.3755,13.4827,13.3079,13.3262,13.1906,12.9511,12.7882,12.6861,12.4404,12.3032,12.2725,12.269,12.269,12.269,12.269,12.269,12.269,12.269,12.269,12.269,12.269,12.269,12.269,12.2557,12.239,12.2025,12.116,12.0761,12.0728,12.0795,12.0861,12.0827,12.1228,12.1428,12.1627,12.186,12.2158,12.2424,12.2424,12.2424,12.2491,12.2557,12.2424,12.1928,12.1661,12.1695,12.1528,12.1294,12.1327,12.2025,12.2192,12.216,12.2924,12.289,12.2922,12.3356,12.3656,12.379,12.3923,12.3989,12.4189,12.4522,12.4889,12.5089,12.5488,12.5786,12.6287,12.6753,12.7214,12.8165,13.1341,13.3793,13.6722,13.923,14.2097,14.2619,14.0614,14.0095,14.1171,14.2412,14.3478,14.4062,14.485,14.4953,14.4953,14.4953,14.4953,14.4953,12.5167,11.9661,12.2292,12.1525,11.893,11.8731,11.8798,11.8864,11.9431,11.9797,11.9963,12.0462,12.1199,12.1704,12.2444,12.2645,12.4104,12.5903,12.7466,12.7466,12.75,12.7466,12.7671,12.8144,12.8545,12.7819,12.9422,13.2335,13.3644,13.3079,13.1157,13.3174,12.9608,12.6826,12.6281,12.4267,12.269,12.269,12.269,12.269,12.269,12.269,12.269,12.269,12.269,12.269,12.2557,12.2557,12.2624,12.259,12.2126,12.1527,12.0994,12.0561,12.0528,12.0428,12.0329,12.0329,12.0329,12.0495,12.0694,12.0694,12.0827,12.116,12.166,12.1827,12.2059,12.2291,12.2491,12.239,12.2457,12.2059,12.176,12.1661,12.1627,12.1595,12.1794,12.1794,12.2027,12.2491,12.269,12.2723,12.289,12.3057,12.2957,12.2957,12.2922,12.3122,12.3656,12.4056,12.4423,12.4823,12.5022,12.5422,12.5755,12.6208,12.7179,12.9632,13.1378,13.3897,13.6132,13.7174,13.6997,13.6306,13.7424,13.8814,14.0169,14.2033,14.3616,14.4645,14.4953,14.4953,14.4953,14.4953,14.4953,12.435,12.1318,12.0986,11.9956,11.8564,11.8365,11.8365,11.8498,11.8731,11.9164,11.9564,11.9863,12.0229,12.0561,12.0861,12.1061,12.1568,12.2919,12.363,12.3765,12.3731,12.363,12.3596,12.3562,12.4713,12.5996,12.6475,12.8108,12.9535,12.8422,12.781,12.8253,12.6111,12.502,12.4302,12.3376,12.2725,12.269,12.269,12.269,12.269,12.269,12.269,12.269,12.269,12.2424,12.2192,12.216,12.1926,12.1426,12.0895,12.0329,12.0063,11.963,11.9464,11.9364,11.9364,11.9364,11.9564,11.9697,12.003,11.9963,12.0329,12.0695,12.0962,12.1095,12.1227,12.1426,12.1525,12.1759,12.2025,12.1993,12.2259,12.2126,12.1894,12.1861,12.216,12.2192,12.2358,12.2557,12.269,12.269,12.269,12.2757,12.2757,12.2823,12.2789,12.2823,12.3324,12.3457,12.379,12.4056,12.429,12.4525,12.4823,12.5372,12.6339,12.7552,12.9291,13.1278,13.2464,13.2045,13.1625,13.3093,13.4492,13.6028,13.8435,14.0964,14.2791,14.3787,14.4473,14.4816,14.4953,14.4953,14.4953,12.1292,12.1091,11.9194,11.8365,11.8365,11.8365,11.8365,11.8365,11.8431,11.8764,11.9164,11.9297,11.9597,11.9962,12.0196,12.0295,12.0396,12.0696,12.0528,12.0528,12.0528,12.0462,12.0163,12.0564,12.1976,12.3222,12.2277,12.3595,12.5565,12.4816,12.2902,12.3823,12.4061,12.2759,12.2862,12.2828,12.269,12.269,12.269,12.269,12.269,12.269,12.2557,12.2392,12.2358,12.2059,12.1595,12.1462,12.0962,12.0196,11.9564,11.9231,11.8931,11.8465,11.8265,11.8166,11.8199,11.8265,11.8498,11.8964,11.9297,11.9297,11.963,12.0129,12.0262,12.0329,12.0395,12.0561,12.0528,12.0928,12.1394,12.2059,12.2259,12.2259,12.2059,12.2126,12.2557,12.2624,12.2624,12.269,12.269,12.269,12.269,12.269,12.269,12.269,12.269,12.269,12.2757,12.2757,12.309,12.3457,12.359,12.3656,12.3923,12.4163,12.4809,12.5665,12.7148,12.8778,12.8432,12.8117,12.8387,12.9671,13.1415,13.3968,13.6416,13.8921,14.1205,14.2584,14.3684,14.4268,14.4782,14.4919,14.4953,11.301,11.3344,11.6874,11.8365,11.8001,11.8332,11.7736,11.81,11.7869,11.8001,11.7769,11.8167,11.7403,11.8665,11.8295,11.9396,11.9429,11.9895,12.0228,12.0329,12.0262,11.983,11.8998,11.9397,12.0132,12.0667,12.0732,12.265,12.4137,12.3086,12.3491,12.4612,12.3481,12.2828,12.269,12.269,12.269,12.269,12.2624,12.2557,12.2557,12.2424,12.2158,12.1793,12.1726,12.1394,12.0928,12.0595,12.0063,11.8698,11.8565,11.8265,11.7667,11.7534,11.74,11.7467,11.7633,11.7833,11.8265,11.8498,11.8565,11.8631,11.8665,11.8864,11.9464,11.9664,11.9797,12.0162,12.0528,12.0462,12.0728,12.1294,12.1694,12.196,12.2291,12.2457,12.269,12.269,12.269,12.269,12.269,12.269,12.269,12.269,12.269,12.269,12.269,12.269,12.269,12.269,12.2823,12.2957,12.2957,12.2957,12.3023,12.309,12.3523,12.396,12.547,12.5815,12.5505,12.56,12.5619,12.6441,12.877,13.1312,13.4001,13.6481,13.8814,14.0614,14.2756,14.3787,14.4507,14.4542,14.4953,10.8051,10.8254,11.0069,11.0841,11.1109,11.3517,11.3083,11.1612,11.3313,11.3283,11.1176,11.0875,11.0841,11.1143,11.3803,11.5066,11.5532,11.7964,11.913,11.9231,11.9264,11.8898,11.8565,11.8665,11.9098,11.9564,11.9863,12.1136,12.2346,12.214,12.2441,12.3559,12.3006,12.2725,12.269,12.269,12.269,12.2624,12.2225,12.2059,12.2059,12.1626,12.1227,12.1094,12.0994,12.0928,12.0528,12.0163,11.9464,11.8632,11.8332,11.8265,11.7899,11.7899,11.7899,11.7899,11.7899,11.7999,11.8332,11.8365,11.8365,11.8365,11.8365,11.8565,11.8831,11.8898,11.8898,11.9331,11.9297,11.9497,11.9863,12.023,12.0796,12.1428,12.1894,12.2225,12.259,12.2521,12.2656,12.269,12.269,12.269,12.269,12.269,12.269,12.2622,12.2416,12.245,12.2587,12.269,12.2757,12.2757,12.2757,12.2823,12.289,12.289,12.3191,12.3156,12.3977,12.3806,12.3836,12.4069,12.4296,12.4942,12.6558,12.8533,13.1315,13.3957,13.639,13.8999,14.1511,14.2997,14.365,14.3993,14.4645,10.3197,10.3365,10.4445,10.4883,10.5388,10.8107,10.7833,10.5829,10.8715,10.834,10.6135,10.5383,10.5891,10.5899,10.9817,11.0917,11.1281,11.4354,11.638,11.6709,11.6974,11.7272,11.7305,11.757,11.8067,11.8598,11.8964,11.963,12.0296,12.0863,12.133,12.1661,12.2194,12.2424,12.2656,12.269,12.269,12.2557,12.2027,12.1728,12.1561,12.0994,12.0428,12.0329,12.0296,12.0129,11.9929,11.9464,11.8765,11.7438,11.7272,11.7339,11.7306,11.7339,11.7438,11.7767,11.7966,11.8132,11.8298,11.8365,11.8365,11.8365,11.8365,11.8365,11.8365,11.8431,11.8431,11.8365,11.8431,11.8698,11.9098,11.9297,11.983,12.0828,12.0082,11.9936,12.0529,12.0997,12.0963,12.0963,12.0795,12.0723,12.0787,12.0918,12.1018,12.1215,12.1316,12.135,12.166,12.1866,12.2141,12.2313,12.2317,12.2487,12.2487,12.2487,12.2418,12.2214,12.1908,12.1802,12.217,12.2504,12.2875,12.3827,12.5674,12.7571,12.9823,13.1727,13.4217,13.6916,13.8998,14.0495,14.1541,14.2697,14.3171,9.7683,9.8164,10.1945,10.3137,10.3137,10.3895,10.3892,10.4165,10.4836,10.4731,10.4664,10.3895,10.4394,10.5686,10.799,10.8347,10.6967,11.005,11.2144,11.2225,11.3216,11.4281,11.4745,11.5811,11.6408,11.6739,11.767,11.8599,11.9029,11.9361,12.0329,12.1022,12.1185,12.189,12.1947,12.2487,12.2148,12.1913,12.1587,12.1222,12.1222,12.0592,11.9894,11.9363,11.923,11.8897,11.8333,11.8134,11.7006,11.4812,11.4712,11.4986,11.5195,11.5263,11.5954,11.7007,11.7235,11.7503,11.8066,11.7902,11.8001,11.7968,11.7968,11.8365,11.8034,11.7836,11.7869,11.7902,11.7935,11.8134,11.8167,11.82,11.8532,11.9129,11.765,11.6694,11.6603,11.6933,11.7334,11.7099,11.6763,11.6891,11.7908,11.7904,11.8162,11.8583,11.885,11.9405,11.9956,12.0406,12.1184,12.1427,12.1301,12.12,12.0626,12.0692,12.0723,12.0384,11.9805,12.0004,12.0437,12.084,12.1244,12.3151,12.5032,12.6959,12.8822,13.0341,13.2341,13.4719,13.6234,13.7376,13.8627,13.9811,14.0678,9.3022,9.3191,9.4778,9.5452,9.5667,9.8521,9.822,9.63,9.8715,9.8401,9.6393,9.6143,9.655,9.8153,10.176,10.3334,10.4032,10.8735,10.9069,10.6377,10.7309,10.986,11.2779,11.4245,11.4912,11.5012,11.5445,11.5841,11.6101,11.6624,11.7113,11.7635,11.8088,11.8447,11.8574,11.8605,11.864,11.8475,11.8059,11.7635,11.7471,11.6882,11.6362,11.62,11.6135,11.6005,11.5743,11.5711,11.5178,11.4345,11.4078,11.4183,11.4391,11.4426,11.4723,11.5188,11.5287,11.5386,11.5613,11.5844,11.5678,11.5711,11.5711,11.5711,11.5711,11.5711,11.5711,11.5711,11.5778,11.5711,11.5744,11.5711,11.5776,11.6101,11.5453,11.5503,11.5625,11.5943,11.6132,11.5932,11.603,11.6392,11.6551,11.6615,11.6743,11.6906,11.7068,11.7444,11.7615,11.7885,11.7991,11.8268,11.9043,11.9245,11.8875,11.8906,11.9002,11.8223,11.7444,11.7642,11.8684,11.9187,12.0238,12.2173,12.3571,12.5318,12.6931,12.858,13.0266,13.2398,13.4494,13.5564,13.6563,13.7572,13.844,8.9563,8.9511,8.9563,8.9545,9.0033,9.2952,9.2866,9.057,9.3376,9.3267,9.0957,9.0601,9.1111,9.2989,9.6878,9.908,9.9715,10.4867,10.576,10.2973,10.407,10.6938,11.0032,11.1761,11.2819,11.3444,11.3878,11.4112,11.4307,11.4695,11.5047,11.5338,11.5787,11.6007,11.643,11.623,11.623,11.6135,11.5625,11.5273,11.5209,11.4564,11.4112,11.4078,11.4078,11.3611,11.2842,11.2775,11.2649,11.2425,11.2492,11.2565,11.277,11.2997,11.3391,11.3724,11.3983,11.4078,11.4112,11.4145,11.4212,11.4145,11.4145,11.4078,11.4078,11.4179,11.4212,11.4179,11.4112,11.4078,11.4078,11.4078,11.3745,11.2876,11.319,11.3406,11.3368,11.3752,11.4239,11.4205,11.4205,11.4332,11.4391,11.442,11.4377,11.4664,11.4761,11.5102,11.5413,11.5711,11.5652,11.6162,11.623,11.6831,11.7232,11.7565,11.6551,11.5102,11.4567,11.4464,11.6406,11.7718,11.9238,12.0729,12.1883,12.3278,12.4915,12.6556,12.8233,13.0149,13.1829,13.3272,13.4687,13.5654,13.6379,8.7344,8.75,8.7292,8.75,8.7688,8.85,8.8653,8.9025,8.988,9.0465,9.041,9.0498,9.0529,9.168,9.5643,9.6188,9.4964,9.9078,10.1195,10.152,10.4009,10.5832,10.6938,10.8407,10.9984,11.1753,11.3247,11.3847,11.3711,11.3742,11.4128,11.4943,11.4869,11.4957,11.5966,11.5566,11.5864,11.557,11.5024,11.4873,11.5142,11.4131,11.3678,11.3778,11.3714,11.2578,11.0131,11.0031,10.9793,10.9264,10.9107,10.9261,11.0044,11.0653,11.1531,11.2619,11.3496,11.3817,11.3814,11.3714,11.3517,11.3611,11.3878,11.3611,11.3511,11.3611,11.3678,11.3611,11.3678,11.3811,11.3745,11.3678,11.2775,11.0496,11.0424,11.0486,11.0255,11.0054,10.9986,11.0317,11.0576,11.0295,11.0728,11.1349,11.1643,11.2043,11.2134,11.2509,11.3502,11.374,11.4606,11.5422,11.5133,11.4569,11.5332,11.5928,11.3881,11.2243,11.2016,11.2418,11.4585,11.5788,11.7232,11.9523,12.0606,12.159,12.3185,12.4816,12.6417,12.775,12.8803,13.027,13.1679,13.2952,13.3915,8.6896,8.724,8.724,8.724,8.7325,8.7467,8.7831,8.8317,8.8525,8.894,8.9355,8.9426,8.9943,9.1248,9.3586,9.4006,9.3516,9.6702,9.8747,9.9519,10.1277,10.3081,10.4614,10.6038,10.7554,10.9062,11.013,11.0763,11.1138,11.1201,11.136,11.1614,11.1547,11.1706,11.186,11.1889,11.1923,11.1894,11.1672,11.1614,11.1581,11.1297,11.1201,11.1172,11.0796,11.0079,10.9278,10.865,10.8246,10.8094,10.8061,10.8169,10.8379,10.8631,10.8987,10.9384,10.9637,10.995,11.0421,11.0484,11.0801,11.1138,11.1234,11.1234,11.1201,11.1234,11.1201,11.1201,11.1201,11.1201,11.1201,11.1268,11.0865,11.0093,10.9824,10.9824,10.9824,10.9824,10.9824,10.9824,10.9824,10.9885,11.0071,11.0099,11.0318,11.0441,11.0503,11.0543,11.105,11.1247,11.1484,11.1759,11.2154,11.2318,11.2453,11.2714,11.1219,11.0886,11.0723,11.1681,11.3043,11.3672,11.5107,11.7754,11.9404,12.0283,12.1566,12.3189,12.4613,12.5975,12.6961,12.7941,12.9308,13.0301,13.1225,8.624,8.6636,8.6668,8.6668,8.6668,8.6844,8.7103,8.7434,8.7675,8.7953,8.8232,8.8458,8.9041,9.0002,9.1954,9.2845,9.3076,9.5998,9.7597,9.8161,9.9481,10.0952,10.2598,10.4512,10.5988,10.7025,10.8019,10.865,10.9082,10.9329,10.9486,10.9486,10.97,10.9824,10.9824,10.9824,10.9824,10.9824,10.9824,10.9824,10.9891,10.9824,10.9577,10.9049,10.865,10.8436,10.8403,10.7937,10.7534,10.7349,10.7382,10.7225,10.7011,10.7011,10.7073,10.7287,10.7567,10.7909,10.8341,10.8436,10.865,10.9021,10.9082,10.9183,10.9391,10.9486,10.9577,10.9795,10.9824,10.9638,10.961,10.9486,10.961,10.9762,10.9824,10.9824,10.9824,10.9824,10.9824,10.9824,10.9824,10.9824,10.9885,10.9824,10.9824,10.9824,10.9824,10.9885,10.9824,10.9824,10.9986,10.9857,10.9824,10.9824,10.9824,10.9824,10.9824,10.9824,10.9953,11.084,11.147,11.2164,11.3153,11.5686,11.6894,11.7869,11.9511,12.1127,12.2244,12.3562,12.4646,12.5863,12.7768,12.804,12.8651,8.5493,8.5461,8.5493,8.5545,8.5597,8.6084,8.6312,8.6467,8.7,8.7292,8.7396,8.7831,8.8005,8.8217,9.0848,9.2192,9.276,9.5563,9.7092,9.7468,9.8682,9.9751,10.0629,10.3167,10.4843,10.5399,10.6705,10.7459,10.7554,10.837,10.884,10.8807,10.9329,10.97,10.9638,10.9577,10.97,10.9577,10.9577,10.9638,10.9605,10.9638,10.8987,10.7937,10.7657,10.769,10.7657,10.7596,10.732,10.667,10.667,10.6455,10.587,10.5809,10.6085,10.6608,10.7225,10.7534,10.7596,10.769,10.7719,10.7719,10.7876,10.8061,10.8683,10.8774,10.8992,10.9605,10.9481,10.9329,10.8869,10.8745,10.9054,10.9515,10.9605,10.9638,10.9638,10.9577,10.9762,10.97,10.9762,10.9824,10.9824,10.9824,10.9824,10.9824,10.9824,10.9824,10.9824,10.9824,10.9824,10.9824,10.9824,10.9824,10.9824,10.9824,10.9824,10.9824,10.9824,10.9986,11.0328,11.086,11.1975,11.32,11.4337,11.58,11.7466,11.8876,12.009,12.1067,12.2144,12.366,12.5453,12.5757,12.6367,8.4475,8.4786,8.4838,8.5098,8.5545,8.5669,8.598,8.6312,8.6467,8.6811,8.7292,8.7448,8.7259,8.7143,8.9153,9.0801,9.1778,9.3644,9.5313,9.6711,9.707,9.8197,9.9759,10.0703,10.1581,10.2933,10.47,10.56,10.5759,10.7195,10.7999,10.7999,10.8218,10.8308,10.8308,10.8308,10.8246,10.8308,10.8213,10.8308,10.8308,10.8308,10.8123,10.7657,10.7225,10.6978,10.6946,10.6485,10.6241,10.6023,10.6023,10.5932,10.5747,10.5747,10.5838,10.6023,10.6208,10.6455,10.6917,10.6978,10.7164,10.7596,10.7657,10.7814,10.7971,10.8032,10.8123,10.8308,10.8308,10.8246,10.7999,10.7999,10.8094,10.8246,10.8308,10.8246,10.8403,10.8835,10.9149,10.9178,10.9453,10.9824,10.9824,10.9762,10.97,10.97,10.9762,10.9824,10.9824,10.9824,10.9824,10.9824,10.9824,10.9824,10.9824,10.9824,10.9824,10.9824,10.9824,10.9824,10.9924,11.0025,11.0716,11.1884,11.2392,11.3585,11.5148,11.6849,11.8288,11.8925,12.0096,12.174,12.3288,12.349,12.413,8.4018,8.4247,8.4215,8.4579,8.5098,8.5098,8.5461,8.5948,8.598,8.6188,8.6565,8.6565,8.6376,8.6129,8.8127,8.9733,9.1114,9.2756,9.4394,9.5931,9.5996,9.6792,9.8213,9.8851,9.9653,10.0893,10.2689,10.3523,10.3714,10.4672,10.5726,10.6436,10.7303,10.7657,10.7657,10.7657,10.7657,10.7657,10.7657,10.7443,10.6917,10.6855,10.6888,10.6826,10.6517,10.6299,10.627,10.5994,10.5747,10.5747,10.5747,10.5747,10.5747,10.5747,10.5747,10.5747,10.5747,10.5932,10.6238,10.6332,10.6517,10.6826,10.6888,10.7011,10.7225,10.7287,10.7196,10.6949,10.6855,10.7011,10.7258,10.7287,10.7443,10.7657,10.7657,10.7657,10.7657,10.8094,10.8403,10.8403,10.8678,10.8925,10.8925,10.8959,10.8959,10.8925,10.9268,10.9329,10.9391,10.9638,10.9762,10.9824,10.9824,10.9824,10.9824,10.9824,10.9824,10.9824,10.9824,10.9824,10.9824,10.9824,11.0025,11.0899,11.1129,11.1666,11.2976,11.4731,11.6362,11.7363,11.8527,11.9964,12.1102,12.137,12.1469,8.3572,8.3707,8.3675,8.4039,8.4443,8.4443,8.4838,8.5389,8.5409,8.5441,8.5389,8.5441,8.5409,8.5653,8.7332,8.8885,9.0354,9.2263,9.3799,9.5016,9.5274,9.5744,9.6475,9.7636,9.8601,9.9319,10.0652,10.1428,10.1514,10.1743,10.2635,10.4513,10.621,10.7077,10.7275,10.7275,10.7373,10.7472,10.7242,10.6589,10.542,10.5358,10.5423,10.552,10.552,10.5617,10.5809,10.5747,10.5747,10.5747,10.5747,10.5747,10.5747,10.5747,10.5747,10.5747,10.5747,10.5747,10.5747,10.5747,10.5809,10.5747,10.5809,10.6023,10.6579,10.6608,10.6361,10.5961,10.5809,10.6085,10.6579,10.6608,10.6793,10.7258,10.7382,10.7505,10.7411,10.7534,10.7596,10.7596,10.7752,10.7657,10.7876,10.7876,10.7814,10.7904,10.8403,10.8745,10.8807,10.9206,10.9638,10.9577,10.9577,10.9577,10.9515,10.9638,10.9515,10.9638,10.97,10.9762,10.9824,10.9824,10.9857,11.0227,10.9992,11.0429,11.167,11.2909,11.441,11.5673,11.7038,11.8466,11.9197,11.9531,11.9397,8.2356,8.3166,8.3166,8.3499,8.3904,8.3935,8.4267,8.4786,8.4786,8.4527,8.4247,8.4631,8.4786,8.4838,8.5729,8.6888,8.8232,8.9801,9.1481,9.3183,9.4329,9.5118,9.5719,9.5945,9.6449,9.7216,9.8543,9.955,10.0057,10.1129,10.1939,10.2379,10.2792,10.3506,10.4551,10.4551,10.5105,10.5952,10.4094,10.2896,10.2596,10.2564,10.3085,10.3967,10.4064,10.4612,10.565,10.5747,10.5747,10.5747,10.5747,10.5747,10.5747,10.5747,10.5747,10.5747,10.5747,10.5747,10.5747,10.5747,10.5747,10.5747,10.5747,10.5776,10.59,10.5961,10.59,10.5809,10.565,10.5711,10.5897,10.5897,10.6023,10.6179,10.6208,10.627,10.6303,10.6608,10.6917,10.6978,10.7443,10.7657,10.7657,10.7657,10.7596,10.7596,10.7814,10.7937,10.7999,10.8588,10.8712,10.837,10.8184,10.8246,10.8218,10.8279,10.8526,10.8992,10.9054,10.9239,10.9577,10.9762,10.9824,10.9762,10.9762,11.0025,11.0361,11.1536,11.2943,11.4345,11.5844,11.7205,11.8333,11.8598,11.8532,8.1182,8.1754,8.2096,8.2356,8.2637,8.3187,8.3727,8.4195,8.3935,8.3779,8.3779,8.4059,8.4215,8.4267,8.4838,8.5779,8.7168,8.8135,8.9574,9.122,9.2592,9.3542,9.4106,9.4772,9.5402,9.6004,9.6773,9.7302,9.7712,9.8749,9.9582,10.0227,10.0554,10.1357,10.2629,10.2699,10.3117,10.3833,10.2134,10.1176,10.1208,10.0911,10.1148,10.1767,10.1799,10.2186,10.2987,10.2987,10.2987,10.2987,10.302,10.3109,10.3412,10.3412,10.3853,10.4681,10.4774,10.5066,10.565,10.5747,10.5747,10.5747,10.5747,10.5228,10.3995,10.3865,10.3898,10.3865,10.3898,10.4125,10.4742,10.4774,10.5034,10.565,10.5747,10.5747,10.5809,10.6085,10.627,10.6299,10.6579,10.6764,10.6826,10.6764,10.6764,10.6793,10.6826,10.6949,10.7258,10.7167,10.703,10.725,10.7472,10.7657,10.769,10.7657,10.7876,10.8218,10.8341,10.8465,10.8774,10.9206,10.9301,10.9458,10.9638,10.9762,10.9857,11.1,11.2072,11.3244,11.4679,11.6243,11.7239,11.8001,11.7769,8.0135,8.0239,8.0871,8.1078,8.1213,8.2283,8.2979,8.3364,8.2958,8.3062,8.352,8.3623,8.3675,8.3675,8.4215,8.5139,8.6277,8.704,8.8039,8.9248,9.0828,9.1835,9.2432,9.3893,9.4809,9.5313,9.5345,9.537,9.5484,9.6028,9.6897,9.8084,9.8793,9.9704,10.088,10.12,10.1141,10.0768,10.0269,10.0001,10.006,9.9561,9.9329,9.9554,9.9613,9.9586,9.9724,9.9787,9.9724,9.9724,9.9724,9.9961,10.0496,10.062,10.125,10.2765,10.2927,10.3505,10.476,10.4918,10.4979,10.5164,10.5164,10.4129,10.1793,10.1624,10.1684,10.1684,10.1781,10.214,10.3122,10.335,10.3833,10.4872,10.5131,10.5164,10.5034,10.5063,10.503,10.4998,10.5164,10.5095,10.5027,10.5092,10.5027,10.5128,10.4987,10.5247,10.5509,10.5173,10.5239,10.631,10.704,10.7349,10.7225,10.7382,10.7443,10.7567,10.7567,10.7596,10.7876,10.8341,10.865,10.8683,10.9054,10.9391,10.9486,11.0553,11.1227,11.1954,11.3489,11.5315,11.5877,11.6446,11.6414,7.929,7.9698,8.0209,8.0477,8.0499,8.1234,8.1628,8.168,8.1576,0.0,0.0,8.2875,8.3083,8.3166,8.3707,8.4061,8.4375,8.6056,8.6954,8.7387,9.0195,9.1581,9.1788,9.3208,9.4214,9.4784,9.4784,9.5004,9.5427,9.5541,9.5784,9.6067,9.667,9.7086,9.7436,9.9065,9.8807,9.6633,9.6397,9.6626,9.7142,9.7027,9.7554,9.8778,9.8778,9.9034,9.9692,9.9724,9.9724,9.9724,9.9724,9.9783,9.9842,9.9934,9.9792,9.9658,9.9599,9.9933,10.0726,10.0818,10.1205,10.2308,10.2401,10.1934,10.0976,10.1354,10.1684,10.1684,10.1684,10.1749,10.1977,10.201,10.2108,10.2336,10.2368,10.2401,10.2433,10.2401,10.2531,10.2401,10.2531,10.2401,10.2499,10.2531,10.2368,10.2433,10.2629,10.2461,10.2646,10.3265,10.414,10.5442,10.6049,10.6147,10.6117,10.6179,10.6332,10.6793,10.6855,10.7102,10.7567,10.7814,10.7876,10.7876,10.7999,10.8123,10.8123,10.845,10.9008,11.0765,11.1589,11.2377,11.3922,11.3809,11.3035,7.7962,7.8326,7.9157,7.952,0.0,8.0373,8.0455,8.0018,8.0559,8.0892,8.1204,8.1836,8.2127,8.2179,8.2979,8.3426,8.3457,8.4658,8.5393,8.5719,8.8064,8.9602,9.0629,9.1937,9.3151,9.4189,9.4189,9.4328,9.4581,9.489,9.5036,9.5061,9.5598,9.5939,9.5971,9.6962,9.6683,9.5093,9.5093,9.5207,9.5491,9.5207,9.5357,9.6029,9.6061,0.0,0.0,0.0,0.0,0.0,0.0,0.0,0.0,9.7465,0.0,9.7572,9.7111,9.7104,9.7826,9.8095,9.8476,9.9161,9.9842,9.9206,9.6863,9.7556,9.8338,9.8945,9.897,9.9438,10.0416,10.054,10.0835,10.1553,10.1684,10.1684,10.1684,10.1684,10.1684,10.1684,10.1684,10.1684,10.1684,10.1684,10.1684,10.1684,10.1684,10.1716,10.1684,10.1618,10.2075,10.341,10.471,10.5715,10.5747,10.5747,10.59,10.6085,10.6208,10.6394,10.6641,10.6978,10.7164,10.7225,10.7472,10.7657,10.7657,10.7657,10.8012,10.9083,10.9935,11.0623,11.0643,11.0302,10.9798,7.656,7.6767,7.7754,7.8274,7.8459,7.9149,7.9075,7.8459,7.9357,7.9876,8.0002,8.0767,8.1048,8.1161,8.22,8.2699,8.2729,8.3312,8.3831,8.433,8.5929,8.7567,8.9099,9.051,9.1961,9.3259,9.3291,9.3449,9.3702,9.4246,9.4474,9.4499,9.5004,9.5256,9.5256,0.0,0.0,0.0,9.4442,9.4531,9.4645,9.4189,9.3873,9.3873,9.3904,0.0,9.4442,9.4474,9.467,9.5086,9.5086,0.0,0.0,0.0,0.0,0.0,0.0,0.0,0.0,0.0,0.0,0.0,9.6198,9.5493,9.2578,9.3714,9.5068,9.5971,9.628,9.7053,9.8597,9.8753,9.9301,10.0527,10.0658,10.0749,10.0835,10.0835,10.0835,10.0867,10.0835,10.0835,10.0769,10.0867,10.0802,10.0704,10.0835,10.0867,10.0769,10.0083,10.0115,10.152,10.3768,10.5326,10.5682,10.5747,10.5747,10.5747,10.5747,10.5747,10.587,10.627,10.6485,10.6546,10.7011,10.732,10.7287,10.732,10.7353,10.7538,10.8394,10.8854,10.7645,10.732,10.732,7.503,7.5493,7.6059,7.6739,7.7154,7.6733,7.6814,7.7235,7.7829,7.84,7.8949,7.9958,8.0395,8.0447,8.113,8.1472,8.1524,8.2595,8.3114,8.3333,8.5591,8.6847,8.7143,8.8981,9.0534,9.1779,9.1811,9.2444,9.367,9.3791,9.3816,9.3816,9.4442,9.4727,9.4727,9.4214,9.3904,9.3847,9.3816,9.4075,9.4645,9.4556,9.4531,9.4531,9.4531,9.4303,9.3816,9.3847,9.3873,9.3898,9.393,9.393,9.3987,9.2842,9.174,0.0,8.8652,0.0,0.0,0.0,0.0,0.0,0.0,0.0,0.0,9.2988,9.4791,9.4841,9.5833,9.6288,9.5938,9.597,9.6295,9.7004,9.7061,9.7323,9.7838,9.7952,9.7952,9.7952,9.7952,9.7952,9.796,9.7952,9.7952,9.8116,9.8124,9.81,9.8026,9.878,9.9828,10.1455,10.2922,10.4158,10.5228,10.5617,10.5585,10.5682,10.5617,10.5747,10.5682,10.5838,10.59,10.5932,10.6056,10.6056,10.5994,10.6023,10.6208,10.6732,10.7051,10.6964,10.6274,10.6117,10.5961,7.3755,7.4298,7.4898,7.4898,7.4666,7.503,7.5313,7.5653,7.645,7.6969,7.7281,7.8089,7.8815,7.9468,8.0351,8.0923,8.1295,8.1784,8.2387,8.3073,8.4155,8.5212,8.6336,8.746,8.8678,8.992,9.0305,9.12,9.2412,9.2475,9.2911,9.367,9.3987,9.3581,9.2546,9.2201,9.2636,9.367,9.367,9.3847,9.4132,9.41,9.41,9.41,9.41,9.4189,9.4246,9.4246,9.4385,9.4663,9.4663,9.4208,9.3184,9.106,8.8804,0.0,0.0,0.0,0.0,0.0,0.0,0.0,0.0,0.0,0.0,0.0,9.205,9.1057,9.3688,9.5459,9.5427,9.5143,9.515,9.541,9.515,9.5036,9.5264,9.5914,9.6199,9.589,9.6426,9.6881,9.6849,9.6849,9.6995,9.7337,9.6735,9.628,9.6434,9.711,9.8318,9.9687,10.0729,10.1847,10.3247,10.3475,10.3475,10.354,10.406,10.458,10.458,10.5228,10.5747,10.5747,10.5747,10.5747,10.5747,10.5747,10.5809,10.6085,10.6208,10.6085,10.5809,10.5747,10.5747,7.2432,7.2924,7.2978,7.2667,7.2199,7.303,7.3682,7.407,7.4841,7.5436,7.5799,7.6064,7.6767,7.7939,7.8682,7.9594,8.0403,8.0715,8.1472,8.2564,8.2854,8.3779,8.5229,8.5748,8.6728,8.815,8.8669,8.9693,9.1018,9.0939,9.1398,9.2465,9.2528,9.163,8.9996,9.0524,9.1518,9.3001,9.343,9.367,9.367,9.367,9.367,9.367,9.367,9.393,9.4417,9.4385,9.4613,9.4972,9.4318,9.3221,9.1667,8.837,0.0,0.0,0.0,0.0,0.0,0.0,0.0,0.0,0.0,7.9886,7.8936,0.0,8.8108,0.0,9.1101,9.3921,9.4883,9.4524,0.0,0.0,9.3702,9.3272,9.3443,9.4265,9.4663,9.4271,9.5264,9.5971,9.5971,9.6109,9.6426,9.7052,9.628,9.5565,9.5452,9.5996,9.6914,9.8098,9.8803,9.955,10.0922,10.1327,10.1538,10.1684,10.2499,10.3122,10.3122,10.406,10.4774,10.4774,10.5001,10.5196,10.5228,10.5553,10.5715,10.5747,10.5747,10.5747,10.5747,10.5747,10.5747,7.0691,7.1027,6.9574,6.947,7.038,7.0483,7.1419,7.2795,7.2899,7.3779,7.5153,7.4194,7.4402,7.5493,7.5568,0.0,7.8059,7.9097,8.0247,8.1421,8.2521,8.3073,8.3218,8.3791,8.4972,8.6825,8.691,8.7896,8.9652,8.9107,8.8929,8.9024,8.9024,8.8509,8.7533,8.9642,9.0848,9.1061,9.2762,9.367,9.367,9.367,9.367,9.367,9.367,9.3702,9.3791,9.3759,9.3759,9.3727,9.1076,8.9255,8.8503,0.0,0.0,0.0,0.0,0.0,0.0,0.0,0.0,0.0,0.0,0.0,0.0,0.0,0.0,8.47,8.8214,0.0,9.3607,9.3241,0.0,0.0,0.0,9.2129,9.2785,9.2868,9.2925,9.2899,0.0,0.0,9.4816,9.5232,9.5736,9.6394,9.6394,9.6109,9.5508,9.5971,9.671,9.746,9.775,9.8264,9.9534,10.0178,10.0712,10.1185,10.1749,10.1755,10.1787,10.2042,10.201,10.214,10.2987,10.3772,10.3772,10.4839,10.5747,10.5682,10.5682,10.5715,10.5747,10.5747,10.5747,6.7754,6.635,6.6013,6.6275,6.7029,6.7443,6.8171,6.908,6.9496,6.9675,6.9687,6.9533,6.9801,7.0304,7.0304,0.0,0.0,0.0,7.8089,8.0195,8.0693,8.1442,8.246,8.3031,8.3707,8.45,8.4784,8.595,8.7832,8.7564,8.5848,8.28,0.0,8.3536,8.4303,8.6249,8.8282,9.029,9.1711,9.2848,9.367,9.367,9.367,9.367,9.367,9.367,9.367,9.367,9.2875,9.0964,8.9042,8.6347,0.0,0.0,0.0,0.0,0.0,0.0,0.0,0.0,0.0,0.0,0.0,6.8046,6.802,0.0,0.0,0.0,8.1743,8.5311,8.8362,8.9738,0.0,0.0,0.0,0.0,0.0,0.0,0.0,8.7721,9.0435,9.2507,9.2844,9.3416,9.4037,9.4695,9.4435,9.4265,9.4321,0.0,9.5571,9.6225,9.6289,9.6597,9.7524,9.7621,9.7621,9.7885,9.8881,9.9758,9.9791,10.0892,10.1651,10.1716,10.2075,10.2727,10.348,10.341,10.3508,10.4259,10.445,10.4807,10.5585,10.5747,10.5747,6.427,0.0,0.0,0.0,0.0,6.4198,6.4675,6.5055,6.5541,6.5457,6.499,6.5091,0.0,0.0,0.0,0.0,0.0,0.0,7.5509,7.7627,7.9297,8.0455,8.1308,8.1784,8.2044,8.22,8.2117,8.287,8.4354,8.3601,8.1432,7.8014,0.0,0.0,0.0,0.0,8.5955,8.8498,9.0197,9.1676,9.3101,9.3101,9.3291,9.367,9.367,9.367,9.3702,9.2875,9.1207,8.8629,8.5937,0.0,0.0,0.0,0.0,0.0,0.0,0.0,0.0,0.0,0.0,0.0,0.0,0.0,0.0,0.0,0.0,0.0,0.0,0.0,8.2512,8.5608,8.7054,0.0,0.0,0.0,0.0,0.0,0.0,0.0,0.0,0.0,8.8967,9.0466,9.197,0.0,0.0,9.3354,9.3645,9.4246,9.4727,9.4922,9.4915,0.0,9.5605,9.5402,9.52,9.5232,9.6608,9.7575,9.7203,9.8214,9.9008,9.8832,9.9565,10.0173,10.0331,9.9522,9.9367,10.0542,10.1013,10.1484,10.2437,10.2875,10.2904,0.0,0.0,0.0,0.0,6.0702,0.0,0.0,0.0,6.1175,6.1562,0.0,6.1197,0.0,0.0,0.0,0.0,6.5955,7.0128,0.0,0.0,7.8475,8.0559,7.9535,7.9483,7.9824,8.0209,7.8704,7.8267,7.8719,7.617,0.0,0.0,0.0,0.0,0.0,0.0,8.4503,8.5213,8.8119,9.0279,9.1557,9.162,9.2254,9.3607,9.367,9.367,9.3525,9.0702,8.8573,8.726,8.1141,0.0,0.0,0.0,0.0,0.0,0.0,0.0,0.0,0.0,0.0,0.0,0.0,0.0,0.0,0.0,0.0,0.0,0.0,0.0,0.0,8.0932,0.0,0.0,0.0,0.0,0.0,0.0,0.0,0.0,0.0,8.651,8.2595,8.6166,8.9547,9.0688,0.0,0.0,0.0,0.0,9.4474,9.3873,9.3759,9.3791,9.3816,9.4271,9.4702,9.4702,0.0,0.0,9.405,9.3366,9.2916,9.2196,9.4728,9.5842,9.291,9.2355,9.2838,9.4229,9.5037,9.5365,9.5516,9.6358,9.6655,0.0,0.0,0.0,0.0,0.0,0.0,0.0,0.0,0.0,5.5914,5.5836,5.5498,0.0,0.0,0.0,0.0,0.0,0.0,0.0,0.0,7.0945,7.2548,7.3581,7.3878,7.4159,7.4332,7.4102,7.2239,0.0,0.0,0.0,0.0,0.0,0.0,0.0,0.0,8.2021,8.3848,8.6423,8.8565,9.0216,9.0279,9.0915,9.2278,9.2286,9.1756,9.0671,8.7327,8.4022,0.0,0.0,0.0,0.0,0.0,0.0,0.0,0.0,0.0,0.0,0.0,0.0,0.0,0.0,0.0,0.0,0.0,0.0,0.0,0.0,0.0,0.0,0.0,7.9939,0.0,0.0,0.0,0.0,0.0,0.0,0.0,0.0,0.0,7.9167,8.2333,8.5884,8.873,9.0198,9.1658,9.3405,0.0,0.0,0.0,0.0,0.0,0.0,0.0,9.3443,9.3354,9.2868,9.2268,9.1844,9.1306,9.0882,9.0654,0.0,0.0,8.7085,8.7344,8.8703,9.0526,9.1085,9.1646,9.2893,9.331,9.3608,0.0,0.0,0.0,0.0,0.0,0.0,0.0,0.0,0.0,5.0608,5.017,0.0,0.0,0.0,0.0,0.0,0.0,0.0,0.0,0.0,0.0,0.0,6.8458,6.8806,0.0,0.0,0.0,0.0,0.0,0.0,0.0,0.0,0.0,0.0,0.0,0.0,7.9654,8.2217,8.4525,8.6561,8.8317,8.8565,8.9276,9.052,9.0772,9.0094,8.8393,0.0,0.0,0.0,0.0,0.0,0.0,0.0,0.0,0.0,0.0,0.0,0.0,0.0,0.0,0.0,0.0,0.0,0.0,0.0,0.0,0.0,0.0,0.0,0.0,0.0,7.505,0.0,0.0,0.0,0.0,0.0,0.0,0.0,0.0,0.0,0.0,7.7874,8.1607,8.4969,8.7524,8.985,9.2127,9.3134,9.3816,0.0,0.0,0.0,0.0,0.0,0.0,0.0,0.0,0.0,0.0,0.0,0.0,0.0,0.0,8.3003,8.0108,8.0806,8.235,8.3957,0.0,0.0,0.0,0.0,0.0,0.0,0.0,0.0,0.0,0.0,0.0,0.0,0.0,0.0,0.0,4.5472,0.0,0.0,4.7029,0.0,0.0,0.0,0.0,0.0,0.0,0.0,0.0,0.0,0.0,0.0,0.0,0.0,0.0,0.0,0.0,0.0,0.0,0.0,0.0,0.0,0.0,7.7495,8.0209,8.2647,8.4469,8.5869,8.638,8.7267,8.856,8.9167,8.8686,8.6958,0.0,0.0,0.0,0.0,0.0,0.0,0.0,0.0,0.0,0.0,0.0,0.0,0.0,0.0,0.0,0.0,0.0,0.0,0.0,0.0,0.0,0.0,0.0,0.0,0.0,0.0,7.0113,7.578,7.9392,0.0,0.0,0.0,0.0,0.0,0.0,0.0,0.0,0.0,7.949,8.5113,8.9151,8.9913,9.2121,9.3702,9.3702,9.3702,9.3702,9.3702,9.3645,9.3215,0.0,0.0,0.0,0.0,0.0,0.0,0.0,0.0,0.0,0.0,0.0,0.0,0.0,0.0,0.0,0.0,0.0,0.0,0.0,0.0,0.0,0.0,0.0,0.0,0.0,0.0,0.0,0.0,0.0,0.0,0.0,0.0,0.0,0.0,0.0,0.0,0.0,0.0,0.0,0.0,0.0,0.0,0.0,0.0,0.0,0.0,0.0,0.0,0.0,0.0,0.0,0.0,0.0,0.0,7.5987,7.9127,8.1836,8.3582,8.4407,8.4595,8.5328,8.6624,8.6097,8.5033,0.0,0.0,0.0,0.0,0.0,0.0,0.0,0.0,0.0,0.0,0.0,0.0,0.0,0.0,0.0,0.0,0.0,0.0,0.0,0.0,0.0,0.0,0.0,0.0,0.0,0.0,0.0,0.0,7.7661,7.8592,7.6093,0.0,0.0,0.0,0.0,0.0,0.0,0.0,0.0,0.0,0.0,8.6621,8.9003,9.1839,9.367,9.367,9.367,9.367,9.367,9.3297,9.2444,9.0768,0.0,0.0,0.0,0.0,0.0,0.0,0.0,0.0,0.0,0.0,0.0,0.0,0.0,0.0,0.0,0.0,0.0,0.0,0.0,0.0,0.0,0.0,0.0,0.0,0.0,0.0,0.0,0.0,0.0,0.0,0.0,0.0,0.0,0.0,0.0,0.0,0.0,0.0,0.0,0.0,0.0,0.0,0.0,0.0,0.0,0.0,0.0,0.0,0.0,0.0,0.0,0.0,0.0,7.4255,7.7341,8.0814,8.2771,8.3104,8.3312,8.3937,8.4811,8.383,8.2353,0.0,0.0,0.0,0.0,0.0,0.0,0.0,0.0,0.0,0.0,0.0,0.0,0.0,0.0,0.0,0.0,0.0,0.0,0.0,0.0,0.0,0.0,0.0,0.0,0.0,0.0,0.0,0.0,7.2246,7.3828,7.2486,0.0,0.0,0.0,0.0,0.0,0.0,0.0,0.0,0.0,0.0,8.4705,8.7214,9.0907,0.0,0.0,9.3329,9.3329,9.3329,9.3184,9.2092,8.9055,8.6593,0.0,0.0,0.0,0.0,0.0,0.0,0.0,0.0,0.0,0.0,0.0,0.0,0.0,0.0,0.0,0.0,0.0,0.0,0.0,0.0,0.0,0.0,0.0,0.0,0.0,0.0,0.0,0.0,0.0,0.0,0.0,0.0,0.0,0.0,0.0,0.0,0.0,0.0,0.0,0.0,0.0,0.0,0.0,0.0,0.0,0.0,0.0,0.0,0.0,0.0,0.0,0.0,7.237,7.5192,7.9667,8.2035,8.2035,8.2616,8.2927,8.2906,8.22,8.0477,0.0,0.0,0.0,0.0,0.0,0.0,0.0,0.0,0.0,0.0,0.0,0.0,0.0,0.0,0.0,0.0,0.0,0.0,0.0,0.0,0.0,0.0,0.0,0.0,0.0,0.0,0.0,0.0,0.0,0.0,0.0,0.0,0.0,0.0,0.0,0.0,0.0,0.0,0.0,0.0,0.0,8.3235,8.4977,8.9391,9.2515,0.0,9.2515,9.2427,9.2251,9.2856,9.1667,8.668,0.0,0.0,0.0,0.0,0.0,0.0,0.0,0.0,0.0,0.0,0.0,0.0,0.0,0.0,0.0,0.0,0.0,0.0,0.0,0.0,0.0,0.0,0.0,0.0,0.0,0.0,0.0,0.0,0.0,0.0,0.0,0.0,0.0,0.0,0.0,0.0,0.0,0.0,0.0,0.0,0.0,0.0,0.0,0.0,0.0,0.0,0.0,0.0,0.0,0.0,0.0,0.0,0.0,0.0,7.469,7.9491,8.2035,8.2035,8.2221,8.2273,8.2221,8.001,0.0,0.0,0.0,0.0,0.0,0.0,0.0,0.0,0.0,0.0,0.0,0.0,0.0,0.0,0.0,0.0,0.0,0.0,0.0,0.0,0.0,0.0,0.0,0.0,0.0,0.0,0.0,5.0445,0.0,0.0,0.0,0.0,0.0,0.0,0.0,0.0,0.0,0.0,0.0,0.0,0.0,0.0,8.1224,8.3662,8.7826,9.0684,0.0,0.0,8.9863,8.7551,8.8861,8.8239,0.0,0.0,0.0,0.0,0.0,0.0,0.0,0.0,0.0,0.0,0.0,0.0,0.0,0.0,0.0,0.0,0.0,0.0,0.0,0.0,0.0,0.0,0.0,0.0,0.0,0.0,0.0,0.0,0.0,0.0,0.0,0.0,0.0,0.0,0.0,0.0,0.0,0.0,0.0,0.0,0.0,0.0,0.0,0.0,0.0,0.0,0.0,0.0,0.0,0.0,0.0,0.0,0.0,0.0,6.9135,7.2693,7.7595,8.0717,8.1671,8.1931,8.2035,8.2035,7.9283,7.6871,0.0,0.0,0.0,0.0,0.0,0.0,0.0,0.0,0.0,0.0,0.0,0.0,0.0,0.0,0.0,0.0,0.0,0.0,0.0,0.0,0.0,0.0,0.0,0.0,0.0,0.0,0.0,0.0,0.0,0.0,0.0,0.0,0.0,0.0,0.0,0.0,0.0,0.0,0.0,0.0,0.0,0.0,8.292,8.4978,0.0,0.0,0.0,8.8298,8.6761,0.0,0.0,0.0,0.0,0.0,0.0,0.0,0.0,0.0,0.0,0.0,0.0,0.0,0.0,0.0,0.0,0.0,0.0,0.0,0.0,0.0,0.0,0.0,0.0,0.0,0.0,0.0,0.0,0.0,0.0,0.0,0.0,0.0,0.0,0.0,0.0,0.0,0.0,0.0,0.0,0.0,0.0,0.0,0.0,0.0,0.0,0.0,0.0,0.0,0.0,0.0,0.0,0.0,0.0,0.0,0.0,0.0,7.0171,7.5053,7.8745,8.1048,8.1671,8.1983,8.1983,7.9409,7.6582,0.0,0.0,0.0,0.0,0.0,0.0,0.0,0.0,0.0,0.0,0.0,0.0,0.0,0.0,0.0,0.0,0.0,0.0,0.0,0.0,0.0,0.0,0.0,0.0,0.0,0.0,0.0,0.0,0.0,0.0,0.0,0.0,0.0,0.0,0.0,0.0,0.0,0.0,0.0,0.0,0.0,7.3777,8.1661,8.1301,8.0511,0.0,0.0,8.6313,8.6944,8.6868,0.0,0.0,0.0,0.0,0.0,0.0,0.0,0.0,0.0,0.0,0.0,0.0,0.0,0.0,0.0,0.0,0.0,0.0,0.0,0.0,0.0,0.0,0.0,0.0,0.0,0.0,0.0,0.0,0.0,0.0,0.0,0.0,0.0,0.0,0.0,0.0,0.0,0.0,0.0,0.0,0.0,0.0,0.0,0.0,0.0,0.0,0.0,0.0,0.0,0.0,0.0,0.0,0.0,0.0,0.0,0.0,6.8946,7.3972,7.7824,8.0335,8.1078,8.1598,8.1983,8.0135,7.7207,0.0,0.0,0.0,0.0,0.0,0.0,0.0,0.0,0.0,0.0,0.0,0.0,0.0,0.0,0.0,0.0,0.0,0.0,0.0,0.0,0.0,0.0,0.0,0.0,0.0,0.0,0.0,0.0,0.0,0.0,0.0,0.0,0.0,0.0,0.0,0.0,0.0,0.0,0.0,0.0,0.0,6.9679,7.6927,7.6894,0.0,0.0,0.0,0.0,8.0598,7.9341,0.0,0.0,0.0,0.0,0.0,0.0,0.0,0.0,0.0,0.0,0.0,0.0,0.0,0.0,0.0,0.0,0.0,0.0,0.0,0.0,0.0,0.0,0.0,0.0,0.0,0.0,0.0,0.0,0.0,0.0,0.0,0.0,0.0,0.0,0.0,0.0,0.0,0.0,0.0,0.0,0.0,0.0,0.0,0.0,0.0,0.0,0.0,0.0,0.0,0.0,0.0,0.0,0.0,0.0,0.0,0.0,6.7331,7.1296,7.5199,7.8905,7.9958,8.0633,8.1121,7.9884,7.6797,0.0,0.0,0.0,0.0,0.0,0.0,0.0,0.0,0.0,0.0,0.0,0.0,0.0,0.0,0.0,0.0,0.0,0.0,0.0,0.0,0.0,0.0,0.0,0.0,0.0,0.0,0.0,0.0,0.0,0.0,0.0,0.0,0.0,0.0,0.0,0.0,0.0,0.0,0.0,0.0,6.1899,6.4036,7.1301,0.0,0.0,0.0,0.0,0.0,0.0,7.4851,7.285,0.0,0.0,0.0,0.0,0.0,0.0,0.0,0.0,0.0,0.0,0.0,0.0,0.0,0.0,0.0,0.0,0.0,0.0,0.0,0.0,0.0,0.0,0.0,0.0,0.0,0.0,0.0,0.0,0.0,0.0,0.0,0.0,0.0,0.0,0.0,0.0,0.0,0.0,0.0,0.0,0.0,0.0,0.0,0.0,0.0,0.0,0.0,0.0,0.0,0.0,0.0,0.0,0.0,0.0,0.0,6.5117,6.8144,7.1982,7.6652,7.8312,7.9335,7.9824,7.8697,7.5389,6.9711,0.0,0.0,0.0,0.0,0.0,0.0,0.0,0.0,0.0,0.0,0.0,0.0,0.0,0.0,0.0,0.0,0.0,0.0,0.0,0.0,0.0,0.0,0.0,0.0,0.0,0.0,0.0,0.0,0.0,0.0,0.0,0.0,0.0,0.0,0.0,0.0,0.0,0.0,0.0,5.6158,5.7994,0.0,0.0,0.0,0.0,0.0,0.0,0.0,0.0,6.8174,0.0,0.0,0.0,0.0,0.0,0.0,0.0,0.0,0.0,0.0,0.0,0.0,0.0,0.0,0.0,0.0,0.0,0.0,0.0,0.0,0.0,0.0,0.0,0.0,0.0,0.0,0.0,0.0,0.0,0.0,0.0,0.0,0.0,0.0,0.0,0.0,0.0,0.0,0.0,0.0,0.0,0.0,0.0,0.0,0.0,0.0,0.0,0.0,0.0,0.0,0.0,0.0,0.0,0.0,0.0,0.0,6.5256,6.9221,7.2756,7.5762,7.7621,7.8111,7.6154,7.2306,6.6449,0.0,0.0,0.0,0.0,0.0,0.0,0.0,0.0,0.0,0.0,0.0,0.0,0.0,0.0,0.0,0.0,0.0,0.0,0.0,0.0,0.0,0.0,0.0,0.0,0.0,0.0,0.0,0.0,0.0,0.0,0.0,0.0,0.0,0.0,0.0,0.0,0.0,0.0,4.3974,4.7705,0.0,0.0,0.0,0.0,0.0,0.0,0.0,0.0,6.3618,0.0,0.0,0.0,0.0,0.0,0.0,0.0,0.0,0.0,0.0,0.0,0.0,0.0,0.0,0.0,0.0,0.0,0.0,0.0,0.0,0.0,0.0,0.0,0.0,0.0,0.0,0.0,0.0,0.0,0.0,0.0,0.0,0.0,0.0,0.0,0.0,0.0,0.0,0.0,0.0,0.0,0.0,0.0,0.0,0.0,0.0,0.0,0.0,0.0,0.0,0.0,0.0,0.0,0.0,0.0,0.0,0.0,0.0,6.5949,6.9255,7.1992,7.3918,7.4837,7.0414,6.615,0.0,0.0,0.0,0.0,0.0,0.0,0.0,0.0,0.0,0.0,0.0,0.0,0.0,0.0,0.0,0.0,0.0,0.0,0.0,0.0,0.0,0.0,0.0,0.0,0.0,0.0,0.0,0.0,0.0,0.0,0.0,0.0,0.0,0.0,0.0,0.0,0.0,0.0,0.0,0.0,0.0,0.0,0.0,0.0,0.0,0.0,0.0,0.0,0.0,0.0,0.0,0.0,0.0,0.0,0.0,0.0,0.0,0.0,0.0,0.0,0.0,0.0,0.0,0.0,0.0,0.0,0.0,0.0,0.0,0.0,0.0,0.0,0.0,0.0,0.0,0.0,0.0,0.0,0.0,0.0,0.0,0.0,0.0,0.0,0.0,0.0,0.0,0.0,0.0,0.0,0.0,0.0,0.0,0.0,0.0,0.0,0.0,0.0,0.0,0.0,0.0,0.0,0.0,0.0,0.0,0.0,0.0,0.0,6.2648,6.563,6.8189,7.0098,7.1403,6.4446,5.9894,0.0,0.0,0.0,0.0,0.0,0.0,0.0,0.0,0.0,0.0,0.0,0.0,0.0,0.0,0.0,0.0,0.0,0.0,0.0,0.0,0.0,0.0,0.0,0.0,0.0,0.0,0.0,0.0,0.0,0.0,0.0,0.0,0.0,0.0,0.0,0.0,0.0,0.0,0.0,0.0,0.0,0.0,0.0,0.0,0.0,0.0,0.0,0.0,5.402,0.0,0.0,0.0,0.0,0.0,0.0,0.0,0.0,0.0,0.0,0.0,0.0,0.0,0.0,0.0,0.0,0.0,0.0,0.0,0.0,0.0,0.0,0.0,0.0,0.0,0.0,0.0,0.0,0.0,0.0,0.0,0.0,0.0,0.0,0.0,0.0,0.0,0.0,0.0,0.0,0.0,0.0,0.0,0.0,0.0,0.0,0.0,0.0,0.0,0.0,0.0,0.0,0.0,0.0,0.0,0.0,0.0,0.0,0.0,5.939,6.1134,6.5124,6.7278,6.7232,6.0181,5.5512,0.0,0.0,0.0,0.0,0.0,0.0,0.0,0.0,0.0,0.0,0.0,0.0,0.0,0.0,0.0,0.0,0.0,0.0,0.0,0.0,0.0,0.0,0.0,0.0,0.0,0.0,0.0,0.0,0.0,0.0,0.0,0.0,0.0,0.0,0.0,0.0,0.0,0.0,0.0,0.0,0.0,0.0,0.0,0.0,0.0,0.0,0.0,0.0,0.0,0.0,0.0,0.0,0.0,0.0,0.0,0.0,0.0,0.0,0.0,0.0,0.0,0.0,0.0,0.0,0.0,0.0,0.0,0.0,0.0,0.0,0.0,0.0,0.0,0.0,0.0,0.0,0.0,0.0,0.0,0.0,0.0,0.0,0.0,0.0,0.0,0.0,0.0,0.0,0.0,0.0,0.0,0.0,0.0,0.0,0.0,0.0,0.0,0.0,0.0,0.0,0.0,0.0,0.0,0.0,0.0,0.0,0.0,0.0,5.4852,5.7188,6.0129,6.0337,5.7605,5.4073,5.1237,0.0,0.0,0.0,0.0,0.0,0.0,0.0,0.0,0.0,0.0,0.0,0.0,0.0,0.0,0.0,0.0,0.0,0.0,0.0,0.0,0.0,0.0,0.0,0.0,0.0,0.0,0.0,0.0,0.0,0.0,0.0,0.0,0.0,0.0,0.0,0.0,0.0,0.0,0.0,0.0,0.0,0.0,0.0,0.0,0.0,0.0,0.0,0.0,0.0,0.0,0.0,0.0,0.0,0.0,0.0,0.0,0.0,0.0,0.0,0.0,0.0,0.0,0.0,0.0,0.0,0.0,0.0,0.0,0.0,0.0,0.0,0.0,0.0,0.0,0.0,0.0,0.0,0.0,0.0,0.0,0.0,0.0,0.0,0.0,0.0,0.0,0.0,0.0,0.0,0.0,0.0,0.0,0.0,0.0,0.0,0.0,0.0,0.0,0.0,0.0,0.0,0.0,0.0,0.0,0.0,0.0,0.0,0.0,0.0,5.287,5.4098,5.2972,4.9524,4.8648,4.7114,0.0,0.0,0.0,0.0,0.0,0.0,0.0,0.0,0.0,0.0,0.0,0.0,0.0,0.0,0.0,0.0,0.0,0.0,0.0,0.0,0.0,0.0,0.0,0.0,0.0,0.0,0.0,0.0,0.0,0.0,0.0,0.0,0.0,0.0,0.0,0.0,0.0,0.0,0.0,0.0,0.0,0.0,0.0,0.0,0.0,0.0,0.0,0.0,0.0,0.0,0.0,0.0,0.0,0.0,0.0,0.0,0.0,0.0,0.0,0.0,0.0,0.0,0.0,0.0,0.0,0.0,0.0,0.0,0.0,0.0,0.0,0.0,0.0,0.0,0.0,0.0,0.0,0.0,0.0,0.0,0.0,0.0,0.0,0.0,0.0,0.0,0.0,0.0,0.0,0.0,0.0,0.0,0.0,0.0,0.0,0.0,0.0,0.0,0.0,0.0,0.0,0.0,0.0,0.0,0.0,0.0,0.0,0.0,0.0,4.8198,4.686,4.6083,4.5782,4.4901,4.3099,0.0,0.0,0.0,0.0,0.0,0.0,0.0,0.0,0.0,0.0,0.0,0.0,0.0,0.0,0.0,0.0,0.0,0.0,0.0,0.0,0.0,0.0,0.0,0.0,0.0,0.0,0.0,0.0,0.0,0.0,0.0,0.0,0.0,0.0,0.0,0.0,0.0,0.0,0.0,0.0,0.0,0.0,0.0,0.0,0.0,0.0,0.0,0.0,0.0,0.0,0.0,0.0,0.0,0.0,0.0,0.0,0.0,0.0,0.0,0.0,0.0,0.0,0.0,0.0,0.0,0.0,0.0,0.0,0.0,0.0,0.0,0.0,0.0,0.0,0.0,0.0,0.0,0.0,0.0,0.0,0.0,0.0,0.0,0.0,0.0,0.0,0.0,0.0,0.0,0.0,0.0,0.0,0.0,0.0,0.0,0.0,0.0,0.0,0.0,0.0,0.0,0.0,0.0,0.0,0.0,0.0,0.0,0.0,0.0,4.1182,4.1681,4.155,4.0738,4.0674,3.9528,3.7351,0.0,0.0,0.0,0.0,0.0,0.0,0.0,0.0,0.0,0.0,0.0,0.0,0.0,0.0,0.0,0.0,0.0,0.0,0.0,0.0,0.0,0.0,0.0,0.0,0.0,0.0,0.0,0.0,0.0,0.0,0.0,0.0,0.0,0.0,0.0,0.0,0.0,0.0,0.0,0.0,0.0,0.0,0.0,0.0,0.0,0.0,0.0,0.0,0.0,0.0,0.0,0.0,0.0,0.0,0.0,0.0,0.0,0.0,0.0,0.0,0.0,0.0,0.0,0.0,0.0,0.0,0.0,0.0,0.0,0.0,0.0,0.0,0.0,0.0,0.0,0.0,0.0,0.0,0.0,0.0,0.0,0.0,0.0,0.0,0.0,0.0,0.0,0.0,0.0,0.0,0.0,0.0,0.0,0.0,0.0,0.0,0.0,0.0,0.0,0.0,0.0,0.0,0.0,0.0,0.0,0.0,0.0,0.0,3.6609,3.7871,3.8136,3.729,3.7396,3.675,0.0,0.0,0.0,0.0,0.0,0.0,0.0,0.0,0.0,0.0,0.0,0.0,0.0,0.0,0.0,0.0,0.0,0.0,0.0,0.0,0.0,0.0,0.0,0.0,0.0,0.0,0.0,0.0,0.0,0.0,0.0,0.0,0.0,0.0,0.0,0.0,0.0,0.0,0.0,0.0,0.0,0.0,0.0,0.0,0.0,0.0,0.0,0.0,0.0,0.0,0.0,0.0,0.0,0.0,0.0,0.0,0.0,0.0,0.0,0.0,0.0,0.0,0.0,0.0,0.0,0.0,0.0,0.0,0.0,0.0,0.0,0.0,0.0,0.0,0.0,0.0,0.0,0.0,0.0,0.0,0.0,0.0,0.0,0.0,0.0,0.0,0.0,0.0,0.0,0.0,0.0,0.0,0.0,0.0,0.0,0.0,0.0,0.0,0.0,0.0,0.0,0.0,0.0,0.0,0.0,0.0,0.0,0.0,3.3854,3.5136,3.5605,3.5831,3.5763,3.5404,3.4793,0.0,0.0,0.0,0.0,0.0,0.0,0.0,0.0,0.0,0.0,0.0,0.0,0.0,0.0,0.0,0.0,0.0,0.0,0.0,0.0,0.0,0.0,0.0,0.0,0.0,0.0,0.0,0.0,0.0,0.0,0.0,0.0,0.0,0.0,0.0,0.0,0.0,0.0,0.0,0.0,0.0,0.0,0.0,0.0,0.0,0.0,0.0,0.0,0.0,0.0,0.0,0.0,0.0,0.0,0.0,0.0,0.0,0.0,0.0,0.0,0.0,0.0,0.0,0.0,0.0,0.0,0.0,0.0,0.0,0.0,0.0,0.0,0.0,0.0,0.0,0.0,0.0,0.0,0.0,0.0,0.0,0.0,0.0,0.0,0.0,0.0,0.0,0.0,0.0,0.0,0.0,0.0,0.0,0.0,0.0,0.0,0.0,0.0,0.0,0.0,0.0,0.0,0.0,0.0,0.0,0.0,0.0,0.0,0.0,3.3341,0.0,3.3806,0.0,3.3393,3.3058,0.0,0.0,0.0,0.0,0.0,0.0,0.0,0.0,0.0,0.0,0.0,0.0,0.0,0.0,0.0,0.0,0.0,0.0,0.0,0.0,0.0,0.0,0.0,0.0,0.0,0.0,0.0,0.0,0.0,0.0,0.0,0.0,0.0,0.0,0.0,0.0,0.0,0.0,0.0,0.0,0.0,0.0,0.0,0.0,0.0,0.0,0.0,0.0,0.0,0.0,0.0,0.0,0.0,0.0,0.0,0.0,0.0,0.0,0.0,0.0,0.0,0.0,0.0,0.0,0.0,0.0,0.0,0.0,0.0,0.0,0.0,0.0,0.0,0.0,0.0,0.0,0.0,0.0,0.0,0.0,0.0,0.0,0.0,0.0,0.0,0.0,0.0,0.0,0.0,0.0,0.0,0.0,0.0,0.0,0.0,0.0,0.0,0.0,0.0,0.0,0.0,0.0,0.0,0.0,0.0,0.0,0.0,0.0,0.0,3.1988,3.2361,3.2425,3.2178,3.2194,3.1969,0.0,0.0,0.0,0.0,0.0,0.0,0.0,0.0,0.0,0.0,0.0,0.0,0.0,0.0,0.0,0.0,0.0,0.0,0.0,0.0,0.0,0.0,0.0,0.0,0.0,0.0,0.0,0.0,0.0,0.0,0.0,0.0,0.0,0.0,0.0,0.0,0.0,0.0,0.0,0.0,0.0,0.0,0.0,0.0,0.0,0.0,0.0,0.0,0.0,0.0,0.0,0.0,0.0,0.0,0.0,0.0,0.0,0.0,0.0,0.0,0.0,0.0,0.0,0.0,0.0,0.0,0.0,0.0,0.0,0.0,0.0,0.0,0.0,0.0,0.0,0.0,0.0,0.0,0.0,0.0,0.0,0.0,0.0,0.0,0.0,0.0,0.0,0.0,0.0,0.0,0.0,0.0,0.0,0.0,0.0,0.0,0.0,0.0,0.0,0.0,0.0,0.0,0.0,0.0,0.0,0.0,0.0,0.0,0.0,0.0,3.1367,3.1573,3.1547,3.1589,3.1394,0.0,0.0,0.0,0.0,0.0,0.0,0.0,0.0,0.0,0.0,0.0,0.0,0.0,0.0,0.0,0.0,0.0,0.0,0.0,0.0,0.0,0.0,0.0,0.0,0.0,0.0,0.0,0.0,0.0,0.0,0.0,0.0,0.0,0.0,0.0,0.0,0.0,0.0,0.0,0.0,0.0,0.0,0.0,0.0,0.0,0.0,0.0,0.0,0.0,0.0,0.0,0.0,0.0,0.0,0.0,0.0,0.0,0.0,0.0,0.0,0.0,0.0,0.0,0.0,0.0,0.0,0.0,0.0,0.0,0.0,0.0,0.0,0.0,0.0,0.0,0.0,0.0,0.0,0.0,0.0,0.0,0.0,0.0,0.0,0.0,0.0,0.0,0.0,0.0,0.0,0.0,0.0,0.0,0.0,0.0,0.0,0.0,0.0,0.0,0.0,0.0,0.0,0.0,0.0,0.0,0.0,0.0,0.0,0.0,0.0,2.9678,0.0,2.9692,2.9706,2.965,2.9581,0.0,0.0,0.0,0.0,0.0,0.0,0.0,0.0,0.0,0.0,0.0,0.0,0.0,0.0,0.0,0.0,0.0,0.0,0.0,0.0,0.0,0.0,0.0,0.0,0.0,0.0,0.0,0.0,0.0,0.0,0.0,0.0,0.0,0.0,0.0,0.0,0.0,0.0,0.0,0.0,0.0,0.0,0.0,0.0,0.0,0.0,0.0,0.0,0.0,0.0,0.0,0.0,0.0,0.0,0.0,0.0,0.0,0.0,0.0,0.0,0.0,0.0,0.0,0.0,0.0,0.0,0.0,0.0,0.0,0.0,0.0,0.0,0.0,0.0,0.0,0.0,0.0,0.0,0.0,0.0,0.0,0.0,0.0,0.0,0.0,0.0,0.0,0.0,0.0,0.0,0.0,0.0,0.0,0.0,0.0,0.0,0.0,0.0,0.0,0.0,0.0,0.0,0.0,0.0,0.0,0.0,0.0,0.0,0.0,0.0,2.8938,2.8938,2.8938,2.8938,0.0,0.0,0.0,0.0,0.0,0.0,0.0,0.0,0.0,0.0,0.0,0.0,0.0,0.0,0.0,0.0,0.0,0.0,0.0,0.0,0.0,0.0,0.0,0.0,0.0,0.0,0.0,0.0,0.0,0.0,0.0,0.0,0.0,0.0,0.0,0.0,0.0,0.0,0.0,0.0,0.0,0.0,0.0,0.0,0.0,0.0,0.0,0.0,0.0,0.0,0.0,0.0,0.0,0.0,0.0,0.0,0.0,0.0,0.0,0.0,0.0,0.0,0.0,0.0,0.0,0.0,0.0,0.0,0.0,0.0,0.0,0.0,0.0,0.0,0.0,0.0,0.0,0.0,0.0,0.0,0.0,0.0,0.0,0.0,0.0,0.0,0.0,0.0,0.0,0.0,0.0,0.0,0.0,0.0,0.0,0.0,0.0,0.0,0.0,0.0,0.0,0.0,0.0,0.0,0.0,0.0,0.0,0.0,0.0,0.0,0.0,2.8826,2.8826,2.8826,0.0,2.8813,0.0,0.0,0.0,0.0,0.0,0.0,0.0,0.0,0.0,0.0,0.0,0.0,0.0,0.0,0.0,0.0,0.0,0.0,0.0,0.0,0.0,0.0,0.0,0.0,0.0,0.0,0.0,0.0,0.0,0.0,0.0,0.0,0.0,0.0,0.0,0.0,0.0,0.0,0.0,0.0,0.0,0.0,0.0,0.0,0.0,0.0,0.0,0.0,0.0,0.0,0.0,0.0,0.0,0.0,0.0,0.0,0.0,0.0,0.0,0.0,0.0,0.0,0.0,0.0,0.0,0.0,0.0,0.0,0.0,0.0,0.0,0.0,0.0,0.0,0.0,0.0,0.0,0.0,0.0,0.0,0.0,0.0,0.0,0.0,0.0,0.0,0.0,0.0,0.0,0.0,0.0,0.0,0.0,0.0,0.0,0.0,0.0,0.0,0.0,0.0,0.0,0.0,0.0,0.0,0.0,0.0,0.0,0.0,0.0,0.0,0.0,0.0,2.7891,2.7946,2.7878,0.0,0.0,0.0,0.0,0.0,0.0,0.0,0.0,0.0,0.0,0.0,0.0,0.0,0.0,0.0,0.0,0.0,0.0,0.0,0.0,0.0,0.0,0.0,0.0,0.0,0.0,0.0,0.0,0.0,0.0,0.0,0.0,0.0,0.0,0.0,0.0,0.0,0.0,0.0,0.0,0.0,0.0,0.0,0.0,0.0,0.0,0.0,0.0,0.0,0.0,0.0,0.0,0.0,0.0,0.0,0.0,0.0,0.0,0.0,0.0,0.0,0.0,0.0,0.0,0.0,0.0,0.0,0.0,0.0,0.0,0.0,0.0,0.0,0.0,0.0,0.0,0.0,0.0,0.0,0.0,0.0,0.0,0.0,0.0,0.0,0.0,0.0,0.0,0.0,0.0,0.0,0.0,0.0,0.0,0.0,0.0,0.0,0.0,0.0,0.0,0.0,0.0,0.0,0.0,0.0,0.0,0.0,0.0,0.0,0.0,2.7585,2.7585,2.7585,2.7585,2.7585,0.0,0.0,0.0,0.0,0.0,0.0,0.0,0.0,0.0,0.0,0.0,0.0,0.0,0.0,0.0,0.0,0.0,0.0,0.0,0.0,0.0,0.0,0.0,0.0,0.0,0.0,0.0,0.0,0.0,0.0,0.0,0.0,0.0,0.0,0.0,0.0,0.0,0.0,0.0,0.0,0.0,0.0,0.0,0.0,0.0,0.0,0.0,0.0,0.0,0.0,0.0,0.0,0.0,0.0,0.0,0.0,0.0,0.0,0.0,0.0,0.0,0.0,0.0,0.0,0.0,0.0,0.0,0.0,0.0,0.0,0.0,0.0,0.0,0.0,0.0,0.0,0.0,0.0,0.0,0.0,0.0,0.0,0.0,0.0,0.0,0.0,0.0,0.0,0.0,0.0,0.0,0.0,0.0,0.0,0.0,0.0,0.0,0.0,0.0,0.0,0.0,0.0,0.0,0.0,0.0,0.0,0.0,0.0,0.0,0.0,0.0,0.0,0.0,0.0,2.7431,0.0,0.0,0.0,0.0,0.0,0.0,0.0,0.0,0.0,0.0,0.0,0.0,0.0,0.0,0.0,0.0,0.0,0.0,0.0,0.0,0.0,0.0,0.0,0.0,0.0,0.0,0.0,0.0,0.0,0.0,0.0,0.0,0.0,0.0,0.0,0.0,0.0,0.0,0.0,0.0,0.0,0.0,0.0,0.0,0.0,0.0,0.0,0.0,0.0,0.0,0.0,0.0,0.0,0.0,0.0,0.0,0.0,0.0,0.0,0.0,0.0,0.0,0.0,0.0,0.0,0.0,0.0,0.0,0.0,0.0,0.0,0.0,0.0,0.0,0.0,0.0,0.0,0.0,0.0,0.0,0.0,0.0,0.0,0.0,0.0,0.0,0.0,0.0,0.0,0.0,0.0,0.0,0.0,0.0,0.0,0.0,0.0,0.0,0.0,0.0,0.0,0.0,0.0,0.0,0.0,0.0,0.0,0.0,0.0,0.0,0.0,0.0,0.0,0.0,0.0,0.0,0.0,0.0,0.0,0.0,0.0,0.0,0.0,0.0,0.0,0.0,0.0,0.0,0.0,0.0,0.0,0.0,0.0,0.0,0.0,0.0,0.0,0.0,0.0,0.0,0.0,0.0,0.0,0.0,0.0,0.0,0.0,0.0,0.0,0.0,0.0,0.0,0.0,0.0,0.0,0.0,0.0,0.0,0.0,0.0,0.0,0.0,0.0,0.0,0.0,0.0,0.0,0.0,0.0,0.0,0.0,0.0,0.0,0.0,0.0,0.0,0.0,0.0,0.0,0.0,0.0,0.0,0.0,0.0,0.0,0.0,0.0,0.0,0.0,0.0,0.0,0.0,0.0,0.0,0.0,0.0,0.0,0.0,0.0,0.0,0.0,0.0,0.0,0.0,0.0,0.0,0.0,0.0,0.0,0.0,0.0,0.0,0.0,0.0,0.0,0.0,0.0,0.0,0.0,0.0,0.0,0.0,0.0,0.0,0.0,0.0,0.0,0.0,0.0,0.0,0.0,0.0,0.0,0.0,0.0,0.0,0.0,0.0,0.0,0.0,0.0,0.0,0.0,0.0,0.0,0.0,0.0,0.0,0.0,0.0,0.0,0.0,0.0,0.0,0.0,0.0,0.0,0.0,0.0,0.0,0.0,0.0,0.0,0.0,0.0,0.0,0.0,0.0,0.0,0.0,0.0,0.0,0.0,0.0,0.0,0.0,0.0,0.0,0.0,0.0,0.0,0.0,0.0,0.0,0.0,0.0,0.0,0.0,0.0,0.0,0.0,0.0,0.0,0.0,0.0,0.0,0.0,0.0,0.0,0.0,0.0,0.0,0.0,0.0,0.0,0.0,0.0,0.0,0.0,0.0,0.0,0.0,0.0,0.0,0.0,0.0,0.0,0.0,0.0,0.0,0.0,0.0,0.0,0.0,0.0,0.0,0.0,0.0,0.0,0.0,0.0,0.0,0.0,0.0,0.0,0.0,0.0,0.0,0.0,0.0,0.0,0.0,0.0,0.0,0.0,0.0,0.0,0.0,0.0,0.0,0.0,0.0,0.0,0.0,0.0,0.0,0.0,0.0,0.0,0.0,0.0,0.0,0.0,0.0,0.0,0.0,0.0,0.0,0.0,0.0,0.0,0.0,0.0,0.0,0.0,0.0,0.0,0.0,0.0,0.0,0.0,0.0,0.0,0.0,0.0,0.0,0.0,0.0,0.0,0.0,0.0,0.0,0.0,0.0,0.0,0.0,0.0,0.0,0.0,0.0,0.0,0.0,0.0,0.0,0.0,0.0,0.0,0.0,0.0,0.0,0.0,0.0,0.0,0.0,0.0,0.0,0.0,0.0,0.0,0.0,0.0,0.0,0.0,0.0,0.0,0.0,0.0,0.0,0.0,0.0,0.0,0.0,0.0,0.0,0.0,0.0,0.0,0.0,0.0,0.0,0.0,0.0,0.0,0.0,0.0,0.0,0.0,0.0,0.0,0.0,0.0,0.0,0.0,0.0,0.0,0.0,0.0,0.0,0.0,0.0,0.0,0.0,0.0,0.0,0.0,0.0,0.0,0.0,0.0,0.0,0.0,0.0,0.0,0.0,0.0,0.0,0.0,0.0,0.0,0.0,0.0,0.0,0.0,0.0,0.0,0.0,0.0,0.0,0.0,0.0,0.0,0.0,0.0,0.0,0.0,0.0,0.0,0.0,0.0,0.0,0.0,0.0,0.0,0.0,0.0,0.0,0.0,0.0,0.0,0.0,0.0,0.0,0.0,0.0,0.0,0.0,0.0,0.0,0.0,0.0,0.0,0.0,0.0,0.0,0.0,0.0,0.0,0.0,0.0,0.0,0.0,0.0,0.0,0.0,0.0,0.0,0.0,0.0,0.0,0.0,0.0,0.0,0.0,0.0,0.0,0.0,0.0,0.0,0.0,0.0,0.0,0.0,0.0,0.0,0.0,0.0,0.0,0.0,0.0,0.0,0.0,0.0,0.0,0.0,0.0,0.0,0.0,0.0,0.0,0.0,0.0,0.0,0.0,0.0,0.0,0.0,0.0,0.0,0.0,0.0,0.0,0.0,0.0,0.0,0.0,0.0,0.0,0.0,0.0,0.0,0.0,0.0,0.0,0.0,0.0,0.0,0.0,0.0,0.0,0.0,0.0,0.0,0.0,0.0,0.0,0.0,0.0,0.0,0.0,0.0,0.0,0.0,0.0,0.0,0.0,0.0,0.0,0.0,0.0,0.0,0.0,0.0,0.0,0.0,0.0,0.0,0.0,0.0,0.0,0.0,0.0,0.0,0.0,0.0,0.0,0.0,0.0,0.0,0.0,0.0,0.0,0.0,0.0,0.0,0.0,0.0,0.0,0.0,0.0,0.0,0.0,0.0,0.0,0.0,0.0,0.0,0.0,0.0,0.0,0.0,0.0,0.0,0.0,0.0,0.0,0.0,0.0,0.0,0.0,0.0,0.0,0.0,0.0,0.0,0.0,0.0,0.0,0.0,0.0,0.0,0.0,0.0,0.0,0.0,0.0,0.0,0.0,0.0,0.0,0.0,0.0,0.0,0.0,0.0,0.0,0.0,0.0,0.0,0.0,0.0,0.0,0.0,0.0,0.0,0.0,0.0,0.0,0.0,0.0,0.0,0.0,0.0,0.0,0.0,0.0,0.0,0.0,0.0,0.0,0.0,0.0,0.0,0.0,0.0,0.0,0.0,0.0,0.0,0.0,0.0,0.0,0.0,0.0,0.0,0.0,0.0,0.0,0.0,0.0,0.0,0.0,0.0,0.0,0.0,0.0,0.0,0.0,0.0,0.0,0.0,0.0,0.0,0.0,0.0,0.0,0.0,0.0,0.0,0.0,0.0,0.0,0.0,0.0,0.0,0.0,0.0,0.0,0.0,0.0,0.0,0.0,0.0,0.0,0.0,0.0,0.0,0.0,0.0,0.0,0.0,0.0,0.0,0.0,0.0,0.0,0.0,0.0,0.0,0.0,0.0,0.0,0.0,0.0,0.0,0.0,0.0,0.0,0.0,0.0,0.0,0.0,0.0,0.0,0.0,0.0,0.0,0.0,0.0,0.0,0.0,0.0,0.0,0.0,0.0,0.0,0.0,0.0,0.0,0.0,0.0,0.0,0.0,0.0,0.0,0.0,0.0,0.0,0.0,0.0,0.0,0.0,0.0,0.0,0.0,0.0,0.0,0.0,0.0,0.0,0.0,0.0,0.0,0.0,0.0,0.0,0.0,0.0,0.0,0.0,0.0,0.0,0.0,0.0,0.0,0.0,0.0,0.0,0.0,0.0,0.0,0.0,0.0,0.0,0.0,0.0,0.0,0.0,0.0,0.0,0.0,0.0,0.0,0.0,0.0,0.0,0.0,0.0,0.0,0.0,0.0,0.0,0.0,0.0,0.0,0.0,0.0,0.0,0.0,0.0,0.0,0.0,0.0,0.0,0.0,0.0,0.0,0.0,0.0,0.0,0.0,0.0,0.0,0.0,0.0,0.0,0.0,0.0,0.0,0.0,0.0,0.0,0.0,0.0,0.0,0.0,0.0,0.0,0.0,0.0,0.0,0.0,0.0,0.0,0.0,0.0,0.0,0.0,0.0,0.0,0.0,0.0,0.0,0.0,0.0,0.0,0.0,0.0,0.0,0.0,0.0,0.0,0.0,0.0,0.0,0.0,0.0,0.0,0.0,0.0,0.0,0.0,0.0,0.0,0.0,0.0,0.0,0.0,0.0,0.0,0.0,0.0,0.0,0.0,0.0,0.0,0.0,0.0,0.0,0.0,0.0,0.0,0.0,0.0,0.0,0.0,0.0,0.0,0.0,0.0,0.0,0.0,0.0,0.0,0.0,0.0,0.0,0.0,0.0]}]]]